[[{"header":{"parameterUnit":"m.s-1","parameterCategory":1,"la1":31.0,"la2":29.5877,"lo1":-88.7671,"lo2":-86.6584,"dy":0.0162,"dx":0.0185,"nx":115,"ny":88,"refTime":"2026-05-03T00:00:00:Z","depth":0,"parameterNumber":2,"parameterNumberName":"U-component_of_WINDS"},"data":[0.0,0.0,0.0,0.0,0.0,0.0,0.0,0.0,0.0,0.0,0.0,0.0,0.0,0.0,0.0,0.0,0.0,0.0,0.0,0.0,0.0,0.0,0.0,0.0,0.0,0.0,0.0,0.0,0.0,0.0,0.0,0.0,0.0,0.0,0.0,0.0,0.0,0.0,0.0,0.0,0.0,0.0,0.0,0.0,0.0,0.0,0.0,0.0,0.0,0.0,0.0,0.0,0.0,0.0,0.0,0.0,0.0,0.0,0.0,0.0,0.0,0.0,0.0,0.0,0.0,0.0,0.0,0.0,0.0,0.0,0.0,0.0,0.0,0.0,0.0,0.0,0.0,0.0,0.0,0.0,0.0,0.0,0.0,0.0,0.0,0.0,0.0,0.0,0.0,0.0,0.0,0.0,0.0,0.0,0.0,0.0,0.0,0.0,0.0,0.0,0.0,0.0,0.0,0.0,0.0,0.0,0.0,0.0,0.0,0.0,0.0,0.0,0.0,0.0,0.0,0.0,0.0,0.0,0.0,0.0,0.0,0.0,0.0,0.0,0.0,0.0,0.0,0.0,0.0,0.0,0.0,0.0,0.0,0.0,0.0,0.0,0.0,0.0,0.0,0.0,0.0,0.0,0.0,0.0,0.0,0.0,0.0,0.0,0.0,0.0,0.0,0.0,0.0,0.0,0.0,0.0,0.0,0.0,0.0,0.0,0.0,0.0,0.0,0.0,0.0,0.0,0.0,0.0,0.0,0.0,0.0,0.0,0.0,0.0,0.0,0.0,0.0,0.0,0.0,0.0,0.0,0.0,0.0,0.0,0.0,0.0,0.0,0.0,0.0,0.0,0.0,0.0,0.0,0.0,0.0,0.0,0.0,0.0,0.0,0.0,0.0,0.0,0.0,0.0,0.0,0.0,0.0,0.0,0.0,0.0,0.0,0.0,0.0,0.0,0.0,0.0,0.0,0.0,0.0,0.0,0.0,0.0,0.0,0.0,0.0,0.0,0.0,0.0,0.0,0.0,0.0,0.0,0.0,0.0,0.0,0.0,0.0,0.0,0.0,0.0,0.0,0.0,0.0,0.0,0.0,0.0,0.0,0.0,0.0,0.0,0.0,0.0,0.0,0.0,0.0,0.0,0.0,0.0,0.0,0.0,0.0,0.0,0.0,0.0,0.0,0.0,0.0,0.0,0.0,0.0,0.0,0.0,0.0,0.0,0.0,0.0,0.0,0.0,0.0,0.0,0.0,0.0,0.0,0.0,0.0,0.0,0.0,0.0,0.0,0.0,0.0,0.0,0.0,0.0,0.0,0.0,0.0,0.0,0.0,0.0,0.0,0.0,0.0,0.0,0.0,0.0,0.0,0.0,0.0,0.0,0.0,0.0,0.0,0.0,0.0,0.0,0.0,0.0,0.0,0.0,0.0,0.0,0.0,0.0,0.0,0.0,0.0,0.0,0.0,0.0,0.0,0.0,0.0,0.0,0.0,0.0,0.0,0.0,0.0,0.0,0.0,0.0,0.0,0.0,0.0,0.0,0.0,0.0,0.0,0.0,0.0,0.0,0.0,0.0,0.0,0.0,0.0,0.0,0.0,0.0,0.0,0.0,0.0,0.0,0.0,0.0,0.0,0.0,0.0,0.0,0.0,0.0,0.0,0.0,0.0,0.0,0.0,0.0,0.0,0.0,0.0,0.0,0.0,0.0,0.0,0.0,0.0,0.0,0.0,0.0,0.0,0.0,0.0,0.0,0.0,0.0,0.0,0.0,0.0,0.0,0.0,0.0,0.0,0.0,0.0,0.0,0.0,0.0,0.0,0.0,0.0,0.0,0.0,0.0,0.0,0.0,0.0,0.0,0.0,0.0,0.0,0.0,0.0,0.0,0.0,0.0,0.0,0.0,0.0,0.0,0.0,0.0,0.0,0.0,0.0,0.0,0.0,0.0,0.0,0.0,0.0,0.0,0.0,0.0,0.0,0.0,0.0,0.0,0.0,0.0,0.0,0.0,0.0,0.0,0.0,0.0,0.0,0.0,0.0,0.0,0.0,0.0,0.0,0.0,0.0,0.0,0.0,0.0,0.0,0.0,0.0,0.0,0.0,0.0,0.0,0.0,0.0,0.0,0.0,0.0,0.0,0.0,0.0,0.0,0.0,0.0,0.0,0.0,0.0,0.0,0.0,0.0,0.0,0.0,0.0,0.0,0.0,0.0,0.0,0.0,0.0,0.0,0.0,0.0,0.0,0.0,0.0,0.0,0.0,0.0,0.0,0.0,0.0,0.0,0.0,0.0,0.0,0.0,0.0,0.0,0.0,0.0,0.0,0.0,0.0,0.0,0.0,0.0,0.0,0.0,0.0,0.0,0.0,0.0,0.0,0.0,0.0,0.0,0.0,0.0,0.0,0.0,0.0,0.0,0.0,0.0,0.0,0.0,0.0,0.0,0.0,0.0,0.0,0.0,0.0,0.0,0.0,0.0,0.0,0.0,0.0,0.0,0.0,0.0,0.0,0.0,0.0,0.0,0.0,0.0,0.0,0.0,0.0,0.0,0.0,0.0,0.0,0.0,0.0,0.0,0.0,0.0,0.0,0.0,0.0,0.0,0.0,0.0,0.0,0.0,0.0,0.0,0.0,0.0,0.0,0.0,0.0,0.0,0.0,0.0,0.0,0.0,0.0,0.0,0.0,0.0,0.0,0.0,0.0,0.0,0.0,0.0,0.0,0.0,0.0,0.0,0.0,0.0,0.0,0.0,0.0,0.0,0.0,0.0,0.0,0.0,0.0,0.0,0.0,0.0,0.0,0.0,0.0,0.0,0.0,0.0,0.0,0.0,0.0,0.0,0.0,0.0,0.0,0.0,0.0,0.0,0.0,0.0,0.0,0.0,0.0,0.0,0.0,0.0,0.0,0.0,0.0,0.0,0.0,0.0,0.0,0.0,0.0,0.0,0.0,0.0,0.0,0.0,0.0,0.0,0.0,0.0,0.0,0.0,0.0,0.0,0.0,0.0,0.0,0.0,0.0,0.0,0.0,0.0,0.0,0.0,0.0,0.0,0.0,0.0,0.0,0.0,0.0,0.0,0.0,0.0,0.0,0.0,0.0,0.0,0.0,0.0,0.0,0.0,0.0,0.0,0.0,0.0,0.0,0.0,0.0,0.0,0.0,0.0,0.0,0.0,0.0,0.0,0.0,0.0,0.0,0.0,0.0,0.0,0.0,0.0,0.0,0.0,0.0,0.0,0.0,0.0,0.0,0.0,0.0,0.0,0.0,0.0,0.0,0.0,0.0,0.0,0.0,0.0,0.0,0.0,0.0,0.0,0.0,0.0,0.0,0.0,0.0,0.0,0.0,0.0,0.0,0.0,0.0,0.0,0.0,0.0,0.0,0.0,0.0,0.0,0.0,0.0,0.0,0.0,0.0,0.0,0.0,0.0,0.0,0.0,0.0,0.0,0.0,0.0,0.0,0.0,0.0,0.0,0.0,0.0,0.0,0.0,0.0,0.0,0.0,0.0,0.0,0.0,0.0,0.0,0.0,0.0,0.0,0.0,0.0,0.0,0.0,0.0,0.0,0.0,0.0,0.0,0.0,0.0,0.0,0.0,0.0,0.0,0.0,0.0,0.0,0.0,0.0,0.0,0.0,0.0,0.0,0.0,0.0,0.0,0.0,0.0,0.0,0.0,0.0,0.0,0.0,0.0,0.0,0.0,0.0,0.0,0.0,0.0,0.0,0.0,0.0,0.0,0.0,0.0,0.0,0.0,0.0,0.0,0.0,0.0,0.0,0.0,0.0,0.0,0.0,0.0,0.0,0.0,0.0,0.0,0.0,0.0,0.0,0.0,0.0,0.0,0.0,0.0,0.0,0.0,0.0,0.0,0.0,0.0,0.0,0.0,0.0,0.0,0.0,0.0,0.0,0.0,0.0,0.0,0.0,0.0,0.0,0.0,0.0,0.0,0.0,0.0,0.0,0.0,0.0,0.0,0.0,0.0,0.0,0.0,0.0,0.0,0.0,0.0,0.0,0.0,0.0,0.0,0.0,0.0,0.0,0.0,0.0,0.0,0.0,0.0,0.0,0.0,0.0,0.0,0.0,0.0,0.0,0.0,0.0,0.0,0.0,0.0,0.0,0.0,0.0,0.0,0.0,0.0,0.0,0.0,0.0,0.0,0.0,0.0,0.0,0.0,0.0,0.0,0.0,0.0,0.0,0.0,0.0,0.0,0.0,0.0,0.0,0.0,0.0,0.0,0.0,0.0,0.0,0.0,0.0,0.0,0.0,0.0,-2.557,0.0,0.0,0.0,0.0,0.0,0.0,0.0,0.0,0.0,0.0,0.0,0.0,0.0,0.0,0.0,0.0,0.0,0.0,0.0,0.0,0.0,0.0,0.0,0.0,0.0,0.0,0.0,0.0,0.0,0.0,0.0,0.0,0.0,0.0,0.0,0.0,0.0,0.0,0.0,0.0,0.0,0.0,0.0,0.0,0.0,0.0,0.0,0.0,0.0,0.0,0.0,0.0,0.0,0.0,0.0,0.0,0.0,0.0,0.0,0.0,0.0,0.0,0.0,0.0,0.0,0.0,0.0,0.0,0.0,0.0,0.0,0.0,0.0,0.0,0.0,0.0,0.0,0.0,0.0,0.0,0.0,0.0,0.0,0.0,0.0,0.0,0.0,0.0,0.0,0.0,0.0,0.0,0.0,0.0,0.0,0.0,0.0,0.0,0.0,0.0,0.0,0.0,0.0,0.0,0.0,0.0,0.0,0.0,0.0,0.0,-2.4932,-2.5516,-2.5611,-2.5841,-2.6378,0.0,0.0,0.0,0.0,0.0,0.0,0.0,0.0,0.0,0.0,0.0,0.0,0.0,0.0,0.0,0.0,0.0,0.0,0.0,0.0,0.0,0.0,0.0,0.0,0.0,0.0,0.0,0.0,0.0,0.0,0.0,0.0,0.0,0.0,0.0,0.0,0.0,0.0,0.0,0.0,0.0,0.0,0.0,0.0,0.0,0.0,0.0,0.0,0.0,0.0,0.0,0.0,0.0,0.0,0.0,0.0,0.0,0.0,0.0,0.0,0.0,0.0,0.0,0.0,0.0,0.0,0.0,0.0,0.0,0.0,0.0,0.0,0.0,0.0,0.0,0.0,0.0,0.0,0.0,0.0,0.0,0.0,0.0,0.0,0.0,0.0,0.0,0.0,0.0,0.0,0.0,0.0,0.0,0.0,0.0,0.0,0.0,0.0,0.0,0.0,0.0,0.0,0.0,0.0,0.0,0.0,0.0,0.0,0.0,0.0,0.0,0.0,-2.5663,-2.5919,-2.655,0.0,0.0,0.0,0.0,0.0,0.0,0.0,0.0,0.0,0.0,0.0,0.0,0.0,0.0,0.0,0.0,0.0,0.0,0.0,0.0,0.0,0.0,0.0,0.0,0.0,0.0,0.0,0.0,0.0,0.0,0.0,0.0,0.0,0.0,0.0,0.0,0.0,0.0,0.0,0.0,0.0,0.0,0.0,0.0,0.0,0.0,0.0,0.0,0.0,0.0,0.0,0.0,0.0,0.0,0.0,0.0,0.0,0.0,0.0,0.0,0.0,0.0,0.0,0.0,0.0,0.0,0.0,0.0,0.0,0.0,0.0,0.0,0.0,0.0,0.0,0.0,0.0,0.0,0.0,0.0,0.0,0.0,0.0,0.0,0.0,0.0,0.0,0.0,0.0,0.0,0.0,0.0,0.0,0.0,0.0,0.0,0.0,0.0,0.0,0.0,0.0,0.0,0.0,0.0,0.0,0.0,0.0,0.0,0.0,0.0,-2.2846,-2.5726,-2.5339,0.0,-2.5237,0.0,0.0,0.0,0.0,0.0,0.0,0.0,0.0,0.0,0.0,0.0,0.0,0.0,0.0,0.0,0.0,0.0,0.0,0.0,0.0,0.0,0.0,0.0,0.0,0.0,0.0,0.0,0.0,0.0,0.0,0.0,0.0,0.0,0.0,0.0,0.0,0.0,0.0,0.0,0.0,0.0,0.0,0.0,0.0,0.0,0.0,0.0,0.0,0.0,0.0,0.0,0.0,0.0,0.0,0.0,0.0,0.0,0.0,0.0,0.0,0.0,0.0,0.0,0.0,0.0,0.0,0.0,0.0,0.0,0.0,0.0,0.0,0.0,0.0,0.0,0.0,0.0,0.0,0.0,0.0,0.0,0.0,0.0,0.0,0.0,0.0,0.0,0.0,0.0,0.0,0.0,0.0,0.0,0.0,0.0,0.0,0.0,0.0,0.0,0.0,0.0,0.0,0.0,0.0,0.0,0.0,0.0,0.0,0.0,0.0,-2.3958,-2.5175,-2.458,-2.3956,0.0,0.0,0.0,0.0,0.0,0.0,0.0,0.0,0.0,0.0,0.0,0.0,0.0,0.0,0.0,0.0,0.0,0.0,0.0,0.0,0.0,0.0,0.0,0.0,0.0,0.0,0.0,0.0,0.0,0.0,0.0,0.0,0.0,0.0,0.0,0.0,0.0,0.0,0.0,0.0,0.0,0.0,0.0,0.0,0.0,0.0,0.0,0.0,0.0,0.0,0.0,0.0,0.0,0.0,0.0,0.0,0.0,0.0,0.0,0.0,0.0,0.0,0.0,0.0,0.0,0.0,0.0,0.0,0.0,0.0,0.0,0.0,0.0,0.0,0.0,0.0,0.0,0.0,0.0,0.0,0.0,0.0,0.0,0.0,0.0,0.0,0.0,0.0,0.0,0.0,0.0,0.0,0.0,0.0,0.0,0.0,0.0,0.0,0.0,0.0,0.0,0.0,0.0,0.0,0.0,0.0,0.0,0.0,0.0,0.0,-2.4073,-2.5158,-2.4499,-2.4022,-2.3319,-2.2689,0.0,0.0,0.0,0.0,0.0,0.0,0.0,0.0,0.0,0.0,0.0,0.0,0.0,0.0,0.0,0.0,0.0,0.0,0.0,0.0,0.0,0.0,0.0,0.0,0.0,0.0,0.0,0.0,0.0,0.0,0.0,0.0,0.0,0.0,0.0,0.0,0.0,0.0,0.0,0.0,0.0,0.0,0.0,0.0,0.0,0.0,0.0,0.0,0.0,0.0,0.0,0.0,0.0,0.0,0.0,0.0,0.0,0.0,0.0,0.0,0.0,0.0,0.0,0.0,0.0,0.0,0.0,0.0,0.0,0.0,0.0,0.0,0.0,0.0,0.0,0.0,0.0,0.0,0.0,0.0,0.0,0.0,0.0,0.0,0.0,0.0,0.0,0.0,0.0,0.0,0.0,0.0,0.0,0.0,0.0,0.0,0.0,0.0,0.0,0.0,0.0,0.0,0.0,0.0,0.0,0.0,0.0,0.0,0.0,-2.4805,-2.5683,-2.3987,-2.3921,-2.3704,0.0,0.0,0.0,0.0,0.0,0.0,0.0,0.0,0.0,0.0,0.0,0.0,0.0,0.0,0.0,0.0,0.0,0.0,0.0,0.0,0.0,0.0,0.0,0.0,0.0,0.0,0.0,0.0,0.0,0.0,0.0,0.0,0.0,0.0,0.0,0.0,0.0,0.0,0.0,0.0,0.0,0.0,0.0,0.0,0.0,0.0,0.0,0.0,0.0,0.0,0.0,0.0,0.0,0.0,0.0,0.0,0.0,0.0,0.0,0.0,0.0,0.0,0.0,0.0,0.0,0.0,0.0,0.0,0.0,0.0,0.0,0.0,0.0,0.0,0.0,0.0,0.0,0.0,0.0,0.0,0.0,0.0,0.0,0.0,0.0,0.0,0.0,0.0,0.0,0.0,0.0,0.0,0.0,0.0,0.0,0.0,0.0,0.0,0.0,0.0,0.0,0.0,0.0,0.0,0.0,0.0,0.0,0.0,0.0,-2.1302,-2.3667,-2.4624,-2.3888,-2.3546,-2.3004,0.0,0.0,0.0,0.0,0.0,0.0,0.0,0.0,0.0,0.0,0.0,0.0,0.0,0.0,0.0,0.0,0.0,0.0,0.0,0.0,0.0,0.0,0.0,0.0,0.0,0.0,0.0,0.0,0.0,0.0,0.0,0.0,0.0,0.0,0.0,0.0,0.0,0.0,0.0,0.0,0.0,0.0,0.0,0.0,0.0,0.0,0.0,0.0,0.0,0.0,0.0,0.0,0.0,0.0,0.0,0.0,0.0,0.0,0.0,0.0,0.0,0.0,0.0,0.0,0.0,0.0,0.0,0.0,0.0,0.0,0.0,0.0,0.0,0.0,0.0,0.0,0.0,0.0,0.0,0.0,0.0,0.0,0.0,0.0,0.0,0.0,0.0,0.0,0.0,0.0,0.0,0.0,0.0,0.0,0.0,0.0,0.0,0.0,0.0,0.0,0.0,0.0,0.0,0.0,0.0,0.0,0.0,0.0,0.0,-2.2015,0.0,-2.4761,0.0,-2.4132,-2.3504,0.0,0.0,0.0,0.0,0.0,0.0,0.0,0.0,0.0,0.0,0.0,0.0,0.0,0.0,0.0,0.0,0.0,0.0,0.0,0.0,0.0,0.0,0.0,0.0,0.0,0.0,0.0,0.0,0.0,0.0,0.0,0.0,0.0,0.0,0.0,0.0,0.0,0.0,0.0,0.0,0.0,0.0,0.0,0.0,0.0,0.0,0.0,0.0,0.0,0.0,0.0,0.0,0.0,0.0,0.0,0.0,0.0,0.0,0.0,0.0,0.0,0.0,0.0,0.0,0.0,0.0,0.0,0.0,0.0,0.0,0.0,0.0,0.0,0.0,0.0,0.0,0.0,0.0,0.0,0.0,0.0,0.0,0.0,0.0,0.0,0.0,0.0,0.0,0.0,0.0,0.0,0.0,0.0,0.0,0.0,0.0,0.0,0.0,0.0,0.0,0.0,0.0,0.0,0.0,0.0,0.0,0.0,0.0,-2.0515,-2.4138,-2.5746,-2.6446,-2.6282,-2.5838,-2.5415,0.0,0.0,0.0,0.0,0.0,0.0,0.0,0.0,0.0,0.0,0.0,0.0,0.0,0.0,0.0,0.0,0.0,0.0,0.0,0.0,0.0,0.0,0.0,0.0,0.0,0.0,0.0,0.0,0.0,0.0,0.0,0.0,0.0,0.0,0.0,0.0,0.0,0.0,0.0,0.0,0.0,0.0,0.0,0.0,0.0,0.0,0.0,0.0,0.0,0.0,0.0,0.0,0.0,0.0,0.0,0.0,0.0,0.0,0.0,0.0,0.0,0.0,0.0,0.0,0.0,0.0,0.0,0.0,0.0,0.0,0.0,0.0,0.0,0.0,0.0,0.0,0.0,0.0,0.0,0.0,0.0,0.0,0.0,0.0,0.0,0.0,0.0,0.0,0.0,0.0,0.0,0.0,0.0,0.0,0.0,0.0,0.0,0.0,0.0,0.0,0.0,0.0,0.0,0.0,0.0,0.0,0.0,0.0,0.0,-2.7594,-2.7837,-2.7759,-2.7178,-2.7149,-2.6522,0.0,0.0,0.0,0.0,0.0,0.0,0.0,0.0,0.0,0.0,0.0,0.0,0.0,0.0,0.0,0.0,0.0,0.0,0.0,0.0,0.0,0.0,0.0,0.0,0.0,0.0,0.0,0.0,0.0,0.0,0.0,0.0,0.0,0.0,0.0,0.0,0.0,0.0,0.0,0.0,0.0,0.0,0.0,0.0,0.0,0.0,0.0,0.0,0.0,0.0,0.0,0.0,0.0,0.0,0.0,0.0,0.0,0.0,0.0,0.0,0.0,0.0,0.0,0.0,0.0,0.0,0.0,0.0,0.0,0.0,0.0,0.0,0.0,0.0,0.0,0.0,0.0,0.0,0.0,0.0,0.0,0.0,0.0,0.0,0.0,0.0,0.0,0.0,0.0,0.0,0.0,0.0,0.0,0.0,0.0,0.0,0.0,0.0,0.0,0.0,0.0,0.0,0.0,0.0,0.0,0.0,0.0,0.0,0.0,-3.0821,-3.0636,-3.0074,-2.9332,-2.9061,-2.8262,-2.6973,0.0,0.0,0.0,0.0,0.0,0.0,0.0,0.0,0.0,0.0,0.0,0.0,0.0,0.0,0.0,0.0,0.0,0.0,0.0,0.0,0.0,0.0,0.0,0.0,0.0,0.0,0.0,0.0,0.0,0.0,0.0,0.0,0.0,0.0,0.0,0.0,0.0,0.0,0.0,0.0,0.0,0.0,0.0,0.0,0.0,0.0,0.0,0.0,0.0,0.0,0.0,0.0,0.0,0.0,0.0,0.0,0.0,0.0,0.0,0.0,0.0,0.0,0.0,0.0,0.0,0.0,0.0,0.0,0.0,0.0,0.0,0.0,0.0,0.0,0.0,0.0,0.0,0.0,0.0,0.0,0.0,0.0,0.0,0.0,0.0,0.0,0.0,0.0,0.0,0.0,0.0,0.0,0.0,0.0,0.0,0.0,0.0,0.0,0.0,0.0,0.0,0.0,0.0,0.0,0.0,0.0,0.0,0.0,-3.3816,-3.3782,-3.3312,-3.2411,-3.1521,-3.0351,0.0,0.0,0.0,0.0,0.0,0.0,0.0,0.0,0.0,0.0,0.0,0.0,0.0,0.0,0.0,0.0,0.0,0.0,0.0,0.0,0.0,0.0,0.0,0.0,0.0,0.0,0.0,0.0,0.0,0.0,0.0,0.0,0.0,0.0,0.0,0.0,0.0,0.0,0.0,0.0,0.0,0.0,0.0,0.0,0.0,0.0,0.0,0.0,0.0,0.0,0.0,0.0,0.0,0.0,0.0,0.0,0.0,0.0,0.0,0.0,0.0,0.0,0.0,0.0,0.0,0.0,0.0,0.0,0.0,0.0,0.0,0.0,0.0,0.0,0.0,0.0,0.0,0.0,0.0,0.0,0.0,0.0,0.0,0.0,0.0,0.0,0.0,0.0,0.0,0.0,0.0,0.0,0.0,0.0,0.0,0.0,0.0,0.0,0.0,0.0,0.0,0.0,0.0,0.0,0.0,0.0,0.0,0.0,0.0,-3.3979,-3.7042,-3.7177,-3.4206,-3.2969,-3.1387,0.0,0.0,0.0,0.0,0.0,0.0,0.0,0.0,0.0,0.0,0.0,0.0,0.0,0.0,0.0,0.0,0.0,0.0,0.0,0.0,0.0,0.0,0.0,0.0,0.0,0.0,0.0,0.0,0.0,0.0,0.0,0.0,0.0,0.0,0.0,0.0,0.0,0.0,0.0,0.0,0.0,0.0,0.0,0.0,0.0,0.0,0.0,0.0,0.0,0.0,0.0,0.0,0.0,0.0,0.0,0.0,0.0,0.0,0.0,0.0,0.0,0.0,0.0,0.0,0.0,0.0,0.0,0.0,0.0,0.0,0.0,0.0,0.0,0.0,0.0,0.0,0.0,0.0,0.0,0.0,0.0,0.0,0.0,0.0,0.0,0.0,0.0,0.0,0.0,0.0,0.0,0.0,0.0,0.0,0.0,0.0,0.0,0.0,0.0,0.0,0.0,0.0,0.0,0.0,0.0,0.0,0.0,0.0,-3.1513,-3.4573,-3.9203,-4.0176,-3.7207,-3.5195,-3.3144,0.0,0.0,0.0,0.0,0.0,0.0,0.0,0.0,0.0,0.0,0.0,0.0,0.0,0.0,0.0,0.0,0.0,0.0,0.0,0.0,0.0,0.0,0.0,0.0,0.0,0.0,0.0,0.0,0.0,0.0,0.0,0.0,0.0,0.0,0.0,0.0,0.0,0.0,0.0,0.0,0.0,0.0,0.0,0.0,0.0,0.0,0.0,0.0,0.0,0.0,0.0,0.0,0.0,0.0,0.0,0.0,0.0,0.0,0.0,0.0,0.0,0.0,0.0,0.0,0.0,0.0,0.0,0.0,0.0,0.0,0.0,0.0,0.0,0.0,0.0,0.0,0.0,0.0,0.0,0.0,0.0,0.0,0.0,0.0,0.0,0.0,0.0,0.0,0.0,0.0,0.0,0.0,0.0,0.0,0.0,0.0,0.0,0.0,0.0,0.0,0.0,0.0,0.0,0.0,0.0,0.0,0.0,0.0,-3.2364,-3.5396,-4.0439,-4.2305,-4.0644,-3.7812,-3.5254,0.0,0.0,0.0,0.0,0.0,0.0,0.0,0.0,0.0,0.0,0.0,0.0,0.0,0.0,0.0,0.0,0.0,0.0,0.0,0.0,0.0,0.0,0.0,0.0,0.0,0.0,0.0,0.0,0.0,0.0,0.0,0.0,0.0,0.0,0.0,0.0,0.0,0.0,0.0,0.0,0.0,0.0,0.0,0.0,0.0,0.0,0.0,0.0,0.0,0.0,0.0,0.0,0.0,0.0,0.0,0.0,0.0,0.0,0.0,0.0,0.0,0.0,0.0,0.0,0.0,0.0,0.0,0.0,0.0,0.0,0.0,0.0,0.0,0.0,0.0,0.0,0.0,0.0,0.0,0.0,0.0,0.0,0.0,0.0,0.0,0.0,0.0,0.0,0.0,0.0,0.0,0.0,0.0,0.0,0.0,0.0,0.0,0.0,0.0,0.0,0.0,0.0,0.0,0.0,0.0,0.0,0.0,0.0,-3.3162,-3.6201,-4.0743,-4.2578,-4.1562,-3.9258,-3.6855,0.0,0.0,0.0,0.0,0.0,0.0,0.0,0.0,0.0,0.0,0.0,0.0,0.0,0.0,0.0,0.0,0.0,0.0,0.0,0.0,0.0,0.0,0.0,0.0,0.0,0.0,0.0,0.0,0.0,0.0,0.0,0.0,0.0,0.0,0.0,0.0,0.0,0.0,0.0,0.0,0.0,0.0,0.0,0.0,0.0,0.0,0.0,0.0,-3.8191,0.0,0.0,0.0,0.0,0.0,0.0,0.0,0.0,0.0,0.0,0.0,0.0,0.0,0.0,0.0,0.0,0.0,0.0,0.0,0.0,0.0,0.0,0.0,0.0,0.0,0.0,0.0,0.0,0.0,0.0,0.0,0.0,0.0,0.0,0.0,0.0,0.0,0.0,0.0,0.0,0.0,0.0,0.0,0.0,0.0,0.0,0.0,0.0,0.0,0.0,0.0,0.0,0.0,0.0,0.0,0.0,0.0,0.0,0.0,-3.3966,-3.6988,-4.1428,-4.3281,-4.2402,-4.1094,-3.8789,0.0,0.0,0.0,0.0,0.0,0.0,0.0,0.0,0.0,0.0,0.0,0.0,0.0,0.0,0.0,0.0,0.0,0.0,0.0,0.0,0.0,0.0,0.0,0.0,0.0,0.0,0.0,0.0,0.0,0.0,0.0,0.0,0.0,0.0,0.0,0.0,0.0,0.0,0.0,0.0,0.0,0.0,0.0,0.0,0.0,0.0,0.0,0.0,0.0,0.0,0.0,0.0,0.0,0.0,0.0,0.0,0.0,0.0,0.0,0.0,0.0,0.0,0.0,0.0,0.0,0.0,0.0,0.0,0.0,0.0,0.0,0.0,0.0,0.0,0.0,0.0,0.0,0.0,0.0,0.0,0.0,0.0,0.0,0.0,0.0,0.0,0.0,0.0,0.0,0.0,0.0,0.0,0.0,0.0,0.0,0.0,0.0,0.0,0.0,0.0,0.0,0.0,0.0,0.0,0.0,0.0,0.0,-3.0909,-3.5071,-3.7881,-4.2074,-4.3828,-4.291,-4.2402,-4.0215,-3.6172,0.0,0.0,0.0,0.0,0.0,0.0,0.0,0.0,0.0,0.0,0.0,0.0,0.0,0.0,0.0,0.0,0.0,0.0,0.0,0.0,0.0,0.0,0.0,0.0,0.0,0.0,0.0,0.0,0.0,0.0,0.0,0.0,0.0,0.0,0.0,0.0,0.0,0.0,-3.4904,-3.6481,0.0,0.0,0.0,0.0,0.0,0.0,0.0,0.0,-3.8015,0.0,0.0,0.0,0.0,0.0,0.0,0.0,0.0,0.0,0.0,0.0,0.0,0.0,0.0,0.0,0.0,0.0,0.0,0.0,0.0,0.0,0.0,0.0,0.0,0.0,0.0,0.0,0.0,0.0,0.0,0.0,0.0,0.0,0.0,0.0,0.0,0.0,0.0,0.0,0.0,0.0,0.0,0.0,0.0,0.0,0.0,0.0,0.0,0.0,0.0,0.0,0.0,0.0,0.0,0.0,0.0,-2.7598,-3.2541,-3.6375,-3.9098,-4.225,-4.3242,-4.2051,-4.125,-3.9316,-3.6191,0.0,0.0,0.0,0.0,0.0,0.0,0.0,0.0,0.0,0.0,0.0,0.0,0.0,0.0,0.0,0.0,0.0,0.0,0.0,0.0,0.0,0.0,0.0,0.0,0.0,0.0,0.0,0.0,0.0,0.0,0.0,0.0,0.0,0.0,0.0,0.0,0.0,0.0,0.0,-3.7862,-3.8567,0.0,0.0,0.0,0.0,0.0,0.0,0.0,0.0,-3.6533,0.0,0.0,0.0,0.0,0.0,0.0,0.0,0.0,0.0,0.0,0.0,0.0,0.0,0.0,0.0,0.0,0.0,0.0,0.0,0.0,0.0,0.0,0.0,0.0,0.0,0.0,0.0,0.0,0.0,0.0,0.0,0.0,0.0,0.0,0.0,0.0,0.0,0.0,0.0,0.0,0.0,0.0,0.0,0.0,0.0,0.0,0.0,0.0,0.0,0.0,0.0,0.0,0.0,0.0,0.0,-2.9288,-3.4416,-3.804,-4.0024,-4.2721,-4.334,-4.1855,-4.0762,-3.8789,0.0,0.0,0.0,0.0,0.0,0.0,0.0,0.0,0.0,0.0,0.0,0.0,0.0,0.0,0.0,0.0,0.0,0.0,0.0,0.0,0.0,0.0,0.0,0.0,0.0,0.0,0.0,0.0,0.0,0.0,0.0,0.0,0.0,0.0,0.0,0.0,0.0,0.0,0.0,0.0,-3.9747,-4.0802,-4.0224,0.0,0.0,0.0,0.0,0.0,0.0,-3.6773,-3.6183,0.0,0.0,0.0,0.0,0.0,0.0,0.0,0.0,0.0,0.0,0.0,0.0,0.0,0.0,0.0,0.0,0.0,0.0,0.0,0.0,0.0,0.0,0.0,0.0,0.0,0.0,0.0,0.0,0.0,0.0,0.0,0.0,0.0,0.0,0.0,0.0,0.0,0.0,0.0,0.0,0.0,0.0,0.0,0.0,0.0,0.0,0.0,0.0,0.0,0.0,0.0,0.0,0.0,0.0,0.0,-3.0643,-3.6154,-3.9406,-4.0677,-4.3002,-4.3262,-4.1484,-4.0254,-3.8164,0.0,0.0,0.0,0.0,0.0,0.0,0.0,0.0,0.0,0.0,0.0,0.0,0.0,0.0,0.0,0.0,0.0,0.0,0.0,0.0,0.0,0.0,0.0,0.0,0.0,0.0,0.0,0.0,0.0,0.0,0.0,0.0,0.0,0.0,0.0,0.0,0.0,0.0,0.0,0.0,0.0,-4.266,-4.1781,-4.1279,0.0,0.0,0.0,0.0,-3.8693,-3.8165,0.0,0.0,0.0,0.0,0.0,0.0,0.0,0.0,0.0,0.0,0.0,0.0,0.0,0.0,0.0,0.0,0.0,0.0,0.0,0.0,0.0,0.0,0.0,0.0,0.0,0.0,0.0,0.0,0.0,0.0,0.0,0.0,0.0,0.0,0.0,0.0,0.0,0.0,0.0,0.0,0.0,0.0,0.0,0.0,0.0,0.0,0.0,0.0,0.0,0.0,0.0,0.0,0.0,0.0,0.0,0.0,-3.1772,-3.6685,-3.999,-4.1062,-4.2592,-4.2226,-4.0176,-3.9219,-3.7129,0.0,0.0,0.0,0.0,0.0,0.0,0.0,0.0,0.0,0.0,0.0,0.0,0.0,0.0,0.0,0.0,0.0,0.0,0.0,0.0,0.0,0.0,0.0,0.0,0.0,0.0,0.0,0.0,0.0,0.0,0.0,0.0,0.0,0.0,0.0,0.0,0.0,0.0,0.0,0.0,0.0,-4.2936,-4.2811,-4.2735,-4.2459,0.0,0.0,-4.1505,-4.1028,-4.1622,0.0,0.0,0.0,0.0,0.0,0.0,0.0,0.0,0.0,0.0,0.0,0.0,0.0,0.0,0.0,0.0,0.0,0.0,0.0,0.0,0.0,0.0,0.0,0.0,0.0,0.0,0.0,0.0,0.0,0.0,0.0,0.0,0.0,0.0,0.0,0.0,0.0,0.0,0.0,0.0,0.0,0.0,0.0,0.0,0.0,0.0,0.0,0.0,0.0,0.0,0.0,0.0,0.0,0.0,0.0,-2.87,-3.263,-3.7727,-4.074,-4.1481,-4.2222,-4.1816,-3.9941,-3.8574,-3.6465,0.0,0.0,0.0,0.0,0.0,0.0,0.0,0.0,0.0,0.0,0.0,0.0,0.0,0.0,0.0,0.0,0.0,0.0,0.0,0.0,0.0,0.0,0.0,0.0,0.0,0.0,0.0,0.0,0.0,0.0,0.0,0.0,0.0,0.0,0.0,0.0,0.0,0.0,0.0,0.0,0.0,0.0,-4.4367,-4.4392,0.0,0.0,0.0,-4.4166,-4.4568,0.0,0.0,0.0,0.0,0.0,0.0,0.0,0.0,0.0,0.0,0.0,0.0,0.0,0.0,0.0,0.0,0.0,0.0,0.0,0.0,0.0,0.0,0.0,0.0,0.0,0.0,0.0,0.0,0.0,0.0,0.0,0.0,0.0,0.0,0.0,0.0,0.0,0.0,0.0,0.0,0.0,0.0,0.0,0.0,0.0,0.0,0.0,0.0,0.0,0.0,0.0,0.0,0.0,0.0,0.0,0.0,0.0,-3.3327,-3.8383,-4.1211,-4.1641,-4.1953,-4.1348,-3.9766,-3.8144,0.0,0.0,0.0,0.0,0.0,0.0,0.0,0.0,0.0,0.0,0.0,0.0,0.0,0.0,0.0,0.0,0.0,0.0,0.0,0.0,0.0,0.0,0.0,0.0,0.0,0.0,0.0,-2.8987,0.0,0.0,0.0,0.0,0.0,0.0,0.0,0.0,0.0,0.0,0.0,0.0,0.0,0.0,-4.5095,-4.5799,-4.625,-4.6652,0.0,0.0,-4.6753,-4.7431,-4.8429,-4.7937,0.0,0.0,0.0,0.0,0.0,0.0,0.0,0.0,0.0,0.0,0.0,0.0,0.0,0.0,0.0,0.0,0.0,0.0,0.0,0.0,0.0,0.0,0.0,0.0,0.0,0.0,0.0,0.0,0.0,0.0,0.0,0.0,0.0,0.0,0.0,0.0,0.0,0.0,0.0,0.0,0.0,0.0,0.0,0.0,0.0,0.0,0.0,0.0,0.0,0.0,0.0,0.0,0.0,0.0,0.0,-3.402,-3.8265,-4.0781,-4.1191,-4.125,-4.0605,-3.9277,-3.7988,-3.5898,0.0,0.0,0.0,0.0,0.0,0.0,0.0,0.0,0.0,0.0,0.0,0.0,0.0,0.0,0.0,0.0,0.0,0.0,0.0,0.0,0.0,0.0,0.0,0.0,0.0,0.0,0.0,0.0,0.0,0.0,0.0,0.0,0.0,0.0,0.0,0.0,0.0,0.0,0.0,0.0,0.0,-4.5824,-4.6878,-4.8335,-4.9339,0.0,0.0,-4.9163,-4.8736,-5.0842,-5.0565,-4.4724,0.0,0.0,0.0,0.0,0.0,0.0,0.0,0.0,0.0,0.0,0.0,0.0,0.0,0.0,0.0,0.0,0.0,0.0,0.0,0.0,0.0,0.0,0.0,0.0,0.0,0.0,0.0,0.0,0.0,0.0,0.0,0.0,0.0,0.0,0.0,0.0,0.0,0.0,0.0,0.0,0.0,0.0,0.0,0.0,0.0,0.0,0.0,0.0,0.0,0.0,0.0,0.0,0.0,-2.9874,-3.3569,-3.7671,-4.0141,-4.0742,-4.0762,-4.0254,-3.9219,-3.8203,-3.6269,0.0,0.0,0.0,0.0,0.0,0.0,0.0,0.0,0.0,0.0,0.0,0.0,0.0,0.0,0.0,0.0,0.0,0.0,0.0,0.0,0.0,0.0,0.0,0.0,0.0,0.0,0.0,0.0,-3.0658,-3.0783,-3.0783,0.0,0.0,0.0,0.0,0.0,0.0,0.0,0.0,0.0,0.0,-4.625,-4.8335,-5.0067,0.0,0.0,-5.1649,-5.1448,-5.0921,-5.1974,-5.1194,-4.6162,-4.1629,0.0,0.0,0.0,0.0,0.0,0.0,0.0,0.0,0.0,0.0,0.0,0.0,0.0,0.0,0.0,0.0,0.0,0.0,0.0,0.0,0.0,0.0,0.0,0.0,0.0,0.0,0.0,0.0,0.0,0.0,0.0,0.0,0.0,0.0,0.0,0.0,0.0,0.0,0.0,0.0,0.0,0.0,0.0,0.0,0.0,0.0,0.0,0.0,0.0,0.0,0.0,0.0,-3.0092,-3.3634,-3.7239,-3.9557,-4.0312,-4.0386,-3.9955,-3.9023,-3.8184,-3.6387,0.0,0.0,0.0,0.0,0.0,0.0,0.0,0.0,0.0,0.0,0.0,0.0,0.0,0.0,0.0,0.0,0.0,0.0,0.0,0.0,0.0,0.0,0.0,0.0,0.0,0.0,0.0,0.0,-3.1763,-3.1637,-3.1637,0.0,0.0,0.0,0.0,0.0,0.0,0.0,0.0,0.0,0.0,-4.7355,-4.9766,-5.1523,-5.2729,-5.3105,-5.303,-5.2628,-5.1724,-5.2359,-5.1224,-4.6566,0.0,0.0,0.0,0.0,0.0,0.0,0.0,0.0,0.0,0.0,0.0,0.0,0.0,0.0,0.0,0.0,0.0,0.0,0.0,0.0,0.0,0.0,0.0,0.0,0.0,0.0,0.0,-1.7609,0.0,0.0,-1.7582,0.0,0.0,0.0,0.0,0.0,0.0,0.0,0.0,0.0,0.0,0.0,0.0,0.0,0.0,0.0,0.0,0.0,0.0,0.0,0.0,0.0,0.0,-3.002,-3.4143,-3.7144,-3.9023,-3.9863,-4.0077,-3.9662,-3.8594,-3.7754,-3.6094,-3.3437,0.0,0.0,0.0,0.0,0.0,0.0,0.0,0.0,0.0,0.0,0.0,0.0,0.0,0.0,0.0,0.0,0.0,0.0,0.0,0.0,0.0,0.0,0.0,0.0,0.0,0.0,-3.2943,-3.2516,-3.219,0.0,0.0,0.0,0.0,0.0,0.0,0.0,0.0,0.0,0.0,-4.5949,-4.9314,-5.1021,-5.2628,-5.3658,-5.3683,-5.3256,-5.2377,-5.077,-5.1795,-5.1054,0.0,0.0,0.0,0.0,0.0,0.0,0.0,0.0,0.0,0.0,0.0,0.0,0.0,0.0,0.0,0.0,0.0,0.0,0.0,0.0,0.0,0.0,0.0,0.0,0.0,0.0,0.0,-1.9158,-1.9038,0.0,0.0,0.0,0.0,0.0,0.0,0.0,0.0,0.0,0.0,0.0,-2.1638,-2.0498,0.0,0.0,0.0,0.0,0.0,0.0,0.0,0.0,0.0,0.0,0.0,0.0,-3.018,-3.3311,-3.6836,-3.873,-3.9004,-3.9141,-3.8848,-3.8164,-3.7598,-3.5547,-3.1855,0.0,0.0,0.0,0.0,0.0,0.0,0.0,0.0,0.0,0.0,0.0,0.0,0.0,0.0,0.0,0.0,0.0,0.0,0.0,0.0,0.0,0.0,0.0,0.0,0.0,-3.3269,0.0,0.0,0.0,0.0,0.0,0.0,0.0,0.0,0.0,0.0,0.0,-4.035,-4.4392,-4.7456,-5.0067,-5.2101,-5.3457,-5.4285,0.0,0.0,0.0,0.0,0.0,0.0,0.0,0.0,0.0,0.0,0.0,0.0,0.0,0.0,-4.5522,-4.4091,-4.276,-4.153,-4.045,0.0,0.0,0.0,0.0,0.0,0.0,0.0,0.0,0.0,0.0,0.0,0.0,0.0,0.0,-2.0521,0.0,-2.0187,0.0,0.0,0.0,0.0,0.0,0.0,0.0,0.0,-2.2739,-2.3363,-2.3721,-2.2848,-2.3306,0.0,-2.5804,-2.4951,0.0,0.0,0.0,0.0,0.0,0.0,0.0,0.0,-3.041,-3.3027,-3.6034,-3.7836,-3.834,-3.8224,-3.803,-3.7715,-3.6719,-3.4726,-3.1641,-2.9473,-2.7461,0.0,0.0,0.0,0.0,0.0,0.0,0.0,0.0,0.0,0.0,0.0,0.0,0.0,0.0,0.0,0.0,0.0,0.0,0.0,0.0,0.0,0.0,0.0,-3.4098,0.0,0.0,0.0,0.0,0.0,0.0,0.0,0.0,0.0,-3.7344,-3.974,-4.2735,-4.6205,-4.8761,-5.0845,-5.2678,0.0,0.0,0.0,0.0,0.0,0.0,0.0,-4.9502,-4.608,-4.7184,-4.8236,-4.7529,-4.7546,-4.8159,-4.9414,0.0,0.0,-4.7832,-4.6602,-4.5547,-4.4618,-4.1653,-4.0458,-4.4451,-4.9124,-5.1583,0.0,0.0,0.0,0.0,0.0,0.0,0.0,0.0,-2.1777,-2.1977,0.0,-2.159,0.0,0.0,0.0,0.0,0.0,-2.0628,0.0,0.0,-2.4075,-2.5092,-2.58,-2.5216,-2.5912,-2.7632,-2.8652,-2.8504,-2.745,-2.4743,0.0,0.0,0.0,0.0,0.0,0.0,-3.0859,-3.3379,-3.5084,-3.6559,-3.7851,-3.7526,-3.7313,-3.7246,-3.5254,-3.3769,-3.2832,-3.0801,-2.9082,-2.7812,-2.6504,0.0,0.0,0.0,0.0,0.0,0.0,0.0,0.0,0.0,0.0,0.0,0.0,0.0,0.0,0.0,0.0,0.0,0.0,0.0,0.0,-3.5072,0.0,0.0,0.0,0.0,0.0,0.0,0.0,0.0,0.0,0.0,-3.8152,-4.1755,-4.5329,-4.7233,0.0,0.0,0.0,0.0,-5.3683,-5.3683,-5.3231,-5.2327,-5.072,-4.9974,-4.8863,-4.6588,0.0,0.0,-4.9694,-5.0142,-5.0645,-5.1247,-5.1348,-5.1322,-5.1272,-5.0243,-4.9364,-4.8837,-4.6577,-4.6069,-4.9057,-5.2181,-5.3999,-2.3901,0.0,0.0,0.0,0.0,-2.2699,-2.314,-2.3581,-2.3701,-2.3968,-2.4262,-2.3394,0.0,0.0,0.0,0.0,0.0,0.0,-2.2686,-2.3834,-2.4596,-2.55,-2.6444,-2.6891,-2.7725,-2.8806,-3.1098,-3.121,-2.9511,-2.8535,-2.7121,-2.5396,0.0,0.0,0.0,0.0,-3.1152,-3.3398,-3.5143,-3.634,-3.7031,-3.7144,-3.7105,-3.6855,-3.5664,-3.4746,-3.416,-3.2402,-3.0976,-3.0,-2.8144,0.0,0.0,0.0,0.0,0.0,0.0,0.0,0.0,0.0,0.0,0.0,0.0,0.0,0.0,0.0,0.0,0.0,0.0,0.0,-3.5486,-3.6024,-3.5805,0.0,0.0,0.0,0.0,0.0,0.0,0.0,0.0,0.0,-4.2725,-4.4734,-4.6856,0.0,0.0,-5.1523,-5.2251,-5.2804,-5.3155,-5.313,-5.2678,0.0,-5.1172,-5.0273,-4.8832,-4.6621,-4.9386,-5.2042,-5.2488,-5.2352,-5.2377,-5.2879,-5.2703,-5.2452,-5.2402,-5.1548,-5.0795,-5.0594,-5.0431,-5.083,-5.185,-5.4014,-5.5349,-2.5718,-2.4422,-2.4262,-2.4088,-2.3968,-2.4556,-2.5037,-2.5438,-2.5611,-2.5905,-2.6226,-2.5251,-2.4422,-2.3661,-2.2258,0.0,0.0,0.0,-2.346,-2.4396,-2.4983,-2.5854,-2.6864,-2.7546,-2.8399,-2.9745,-3.261,-3.3044,-3.1103,-3.1065,-3.0401,-2.8861,0.0,0.0,-2.9297,-3.043,-3.1875,-3.3672,-3.5278,-3.6286,-3.668,-3.6914,-3.6855,-3.6426,-3.5566,-3.498,-3.4687,-3.3223,-3.2031,-3.1172,-2.9525,-2.7767,0.0,0.0,0.0,0.0,0.0,0.0,0.0,0.0,0.0,0.0,0.0,-2.6135,-2.704,0.0,0.0,0.0,-3.1788,-3.4073,-3.6182,-3.6784,0.0,0.0,0.0,0.0,0.0,0.0,0.0,-4.2333,-4.4769,-4.6138,-4.6042,-4.7631,-4.896,-4.9501,-5.0788,-5.18,-5.2352,0.0,-5.2929,-5.2929,-5.2653,-5.2226,-5.1674,-5.1261,-5.0474,-4.9141,-5.1021,-5.292,-5.3344,-5.3105,-5.3055,-5.3256,-5.313,-5.2929,-5.2929,-5.2377,-5.2101,-5.2477,-5.3128,-5.3645,-5.3783,-5.4758,-5.5369,-2.6934,-2.6854,-2.6052,-2.5678,-2.5665,-2.6213,-2.6787,-2.7321,-2.7308,-2.7629,-2.8083,-2.6961,-2.5959,-2.5024,-2.3354,0.0,-2.3474,-2.3754,-2.4182,-2.4756,-2.5304,-2.6167,-2.7214,-2.7463,-2.8327,-3.0098,-3.3296,-3.3895,-3.245,-3.2835,-3.2949,-3.2871,-3.0527,-2.9922,-3.1074,-3.1875,-3.2891,-3.418,-3.5413,-3.6228,-3.6621,-3.6582,-3.6367,-3.5976,-3.5137,-3.4707,-3.4668,-3.3535,-3.2519,-3.168,-3.0774,-2.9755,-2.8749,0.0,0.0,0.0,0.0,0.0,0.0,0.0,0.0,0.0,0.0,0.0,0.0,0.0,0.0,0.0,-3.3319,0.0,-3.6584,-3.7638,0.0,0.0,0.0,-3.7412,-3.9094,-4.0651,-4.2459,-4.4644,0.0,0.0,-4.8268,-4.9949,-5.1297,-5.1373,-5.18,-5.2277,-5.2779,-5.2879,-5.2929,-5.2929,-5.2929,-5.2729,-5.2251,-5.243,-5.2597,-5.2546,-5.2953,-5.2851,-5.2879,-5.2955,-5.2929,-5.2955,-5.2929,-5.2929,-5.2929,-5.2879,-5.3256,-5.4185,-5.4466,-5.4708,-5.5106,-5.4813,-5.4486,-2.7829,-2.7816,-2.7602,-2.7134,-2.6547,-2.6907,-2.7388,-2.7896,-2.7696,-2.7936,-2.843,-2.7482,-2.6453,-2.5358,-2.4502,-2.4315,-2.4663,-2.473,-2.5077,-2.5638,-2.5785,-2.631,-2.7038,-2.6808,-2.7696,-2.9828,-3.2069,-3.3112,-3.2998,-3.3838,-3.4238,-3.4199,-3.3301,-3.2832,-3.2832,-3.3027,-3.3769,-3.5059,-3.5646,-3.6016,-3.6172,-3.5859,-3.5644,-3.5547,-3.5,-3.4687,-3.4687,-3.4101,-3.3516,-3.2969,-3.2217,-3.1604,-3.1063,-2.89,0.0,0.0,0.0,0.0,0.0,0.0,0.0,0.0,0.0,-2.8825,-2.993,0.0,-3.126,0.0,-3.4977,-3.7387,-3.9346,-4.0149,0.0,0.0,-4.0475,-4.0802,-4.2434,-4.3338,-4.4694,-4.6878,-4.8083,-4.9291,-5.0348,-5.1028,-5.1632,-5.2346,-5.2261,-5.2151,-5.2302,-5.2678,-5.2929,-5.2929,-5.2929,-5.2879,-5.2754,-5.2866,-5.2952,-5.284,-5.2891,-5.2829,-5.2904,-5.2929,-5.2929,-5.2929,-5.2929,-5.2929,-5.2904,-5.2929,-5.3155,-5.3758,-5.4264,-5.4632,-5.4804,-5.4077,-5.357,-2.815,-2.815,-2.815,-2.7856,-2.7428,-2.7736,-2.8043,-2.8323,-2.8177,-2.8297,-2.8564,-2.7789,-2.7028,-2.6279,-2.5812,-2.5625,-2.5665,-2.5665,-2.5838,-2.6146,-2.6146,-2.6397,-2.6689,-2.6512,-2.7278,-2.8807,-3.1431,-3.2806,-3.3019,-3.426,-3.5,-3.5,-3.457,-3.4336,-3.4297,-3.4101,-3.4453,-3.5391,-3.5625,-3.5568,-3.5375,-3.5159,-3.5078,-3.5059,-3.4453,-3.4141,-3.4121,-3.3662,-3.3257,-3.2927,-3.2869,-3.2642,-3.2212,-3.0658,-2.9194,0.0,0.0,0.0,0.0,0.0,0.0,0.0,0.0,0.0,0.0,0.0,-3.3796,-3.5152,-3.7337,-3.9371,-4.1078,-4.2183,-4.3037,-4.3589,-4.3589,-4.4016,-4.5146,-4.5773,-4.6652,-4.8109,-4.9012,-4.9741,-5.0419,-5.1172,-5.1959,-5.2784,-5.2614,-5.2477,-5.2503,-5.2754,-5.2929,-5.2929,-5.2929,-5.2929,-5.2929,-5.2929,-5.2929,-5.2929,-5.2929,-5.2929,-5.2929,-5.2929,-5.2854,-5.2628,-5.2754,-5.2854,-5.2628,-5.2779,-5.303,-5.3281,-5.3596,-5.3847,-5.4084,-5.3503,-5.3113,-2.815,-2.815,-2.815,-2.815,-2.8163,-2.843,-2.8564,-2.8604,-2.8564,-2.8551,-2.8511,-2.7949,-2.7535,-2.7255,-2.6961,-2.6653,-2.64,-2.64,-2.64,-2.64,-2.64,-2.6373,-2.6477,-2.6364,-2.699,-2.8026,-3.1201,-3.2736,-3.2945,-3.4678,-3.5469,-3.5449,-3.5078,-3.5078,-3.5449,-3.5078,-3.5059,-3.5469,-3.543,-3.5026,-3.4413,-3.4464,-3.4512,-3.4434,-3.3633,-3.3144,-3.3086,-3.2749,-3.2455,-3.2307,-3.309,-3.342,-3.2982,-3.2408,-3.1413,0.0,-2.9845,0.0,0.0,0.0,0.0,0.0,0.0,0.0,0.0,-3.568,-3.6734,-3.8291,-3.9823,-4.1229,-4.2459,-4.394,-4.5095,-4.5723,-4.6225,-4.6728,-4.728,-4.7757,-4.8234,-4.8812,-4.9715,-5.0112,-4.9775,-5.0955,-5.2211,-5.2784,-5.274,-5.2703,-5.2804,-5.2854,-5.2929,-5.2929,-5.2879,-5.2754,-5.2779,-5.2779,-5.2866,-5.2703,-5.2628,-5.2729,-5.2653,-5.2678,-5.2528,-5.2151,-5.2352,-5.2528,-5.2151,-5.2452,-5.2703,-5.2804,-5.2966,-5.3117,-5.3432,-5.3306,-5.2955,-2.815,-2.815,-2.815,-2.815,-2.815,-2.8203,-2.8377,-2.8591,-2.8337,-2.823,-2.8203,-2.7856,-2.7535,-2.7241,-2.6947,-2.6653,-2.64,-2.64,-2.64,-2.64,-2.64,-2.6423,-2.6493,-2.6474,-2.723,-2.9004,-3.1524,-3.3019,-3.3623,-3.51,-3.5898,-3.5898,-3.5801,-3.582,-3.5898,0.0,0.0,0.0,-3.5566,-3.4508,-3.2749,-3.3373,-3.3496,-3.3144,-3.2324,0.0,-3.1387,-3.1662,-3.1856,-3.1823,-3.3136,0.0,0.0,0.0,0.0,0.0,0.0,0.0,0.0,0.0,0.0,0.0,-3.814,-3.8191,-3.691,-3.8065,-3.9421,-4.0601,-4.1404,-4.266,-4.4669,-4.5522,-4.6376,-4.733,-4.7531,-4.7832,-4.8385,-4.856,-4.8812,-4.9364,-4.964,-4.9711,-4.97,-5.0738,-5.1808,-5.2658,-5.2463,-5.2277,-5.2251,-5.2603,-5.2904,-5.2904,-5.2528,-5.2277,-5.2251,-5.2607,-5.2565,-5.1859,-5.1599,-5.1599,-5.1649,-5.1649,-5.1624,-5.1448,-5.1523,-5.1749,-5.2,-5.185,-5.18,-5.2176,-5.2607,-5.3004,-5.3067,-5.3005,-5.2929,-2.815,0.0,-2.815,-2.815,0.0,-2.815,-2.823,-2.8364,-2.8217,-2.815,-2.8136,-2.7976,-2.7682,-2.7255,-2.7108,-2.68,-2.64,-2.64,-2.64,-2.64,-2.64,-2.654,-2.6708,-2.6586,-2.7623,-2.9774,-3.2451,-3.383,-3.4057,-3.5314,-3.6035,-3.6035,-3.6035,-3.6035,-3.6016,-3.582,-3.5703,-3.5549,-3.5059,-3.41,-3.2841,-3.3231,-3.3223,-3.2793,-3.2289,0.0,0.0,0.0,0.0,0.0,0.0,0.0,0.0,0.0,0.0,-3.5111,-3.5244,-3.5118,-3.4776,-3.6483,-3.8065,-3.917,-4.0777,-4.1254,-4.0124,-4.1078,-4.1798,-4.2138,-4.335,-4.4669,-4.5773,-4.6878,-4.7732,-4.8259,-4.8586,-4.8862,-4.9113,-4.9188,-4.9289,-4.9515,-4.959,-4.9536,-4.9581,-5.0563,-5.1456,-5.2025,-5.2195,-5.1975,-5.1774,-5.1925,-5.2101,-5.2101,-5.19,-5.1724,-5.1674,-5.1942,-5.1949,-5.1322,-5.083,-5.078,-5.1247,-5.1272,-5.1197,-5.0971,-5.1071,-5.1322,-5.1247,-5.1247,-5.1373,-5.1624,-5.1917,-5.2101,-5.2051,-5.2101,-5.2201,-2.815,-2.815,-2.815,-2.815,-2.815,-2.815,-2.815,-2.815,0.0,0.0,0.0,-2.815,-2.7982,-2.7445,-2.7431,-2.727,-2.6716,-2.686,-2.686,-2.686,-2.686,-2.7125,-2.7535,-2.7154,-2.8148,-3.0516,-3.3536,-3.4818,-3.4609,-3.5451,-3.6035,-3.6035,-3.6035,-3.5976,-3.5879,-3.5488,-3.5234,-3.4965,-3.4434,-3.3856,-3.3277,-3.3223,-3.3105,-3.2695,-3.2631,-3.2335,-3.1896,-3.2993,-3.3965,-3.4392,-3.6177,-3.7403,-3.7721,-3.7412,-3.7122,-3.6989,-3.7513,-3.7839,-3.7939,-3.9295,-4.045,-4.1204,-4.2585,-4.3388,-4.3288,-4.3689,-4.3801,-4.3472,-4.5229,-4.6376,-4.6627,-4.7883,-4.8812,-4.8912,-4.9314,-4.959,-4.959,-4.959,-4.959,-4.959,-4.959,-4.959,-4.964,-5.0494,-5.1204,-5.1342,-5.1614,-5.1624,-5.1147,-5.1197,-5.1373,-5.1373,-5.1272,-5.1122,-5.1122,-5.0996,-5.0996,-5.0896,-5.0223,-5.0041,-5.0738,-5.0996,-5.0795,-5.0343,-5.0695,-5.077,-5.0544,-5.0695,-5.1021,-5.1096,-5.1046,-5.0996,-5.0996,-5.1154,-5.1513,-2.815,-2.815,-2.815,-2.815,-2.815,-2.815,-2.815,-2.815,-2.815,-2.815,-2.815,-2.815,-2.7982,-2.7758,-2.8233,-2.8221,-2.8133,-2.8431,-2.8573,-2.8573,-2.8588,-2.8857,-2.9152,-2.8119,-2.8888,-3.1456,-3.4436,-3.5582,-3.5333,-3.5743,-3.6035,-3.6035,-3.6035,-3.584,-3.5469,-3.5019,-3.4609,-3.4258,-3.4121,-3.37,-3.2708,-3.2777,-3.2695,-3.2266,-3.2435,-3.2458,-3.2309,-3.3528,-3.4493,-3.523,-3.6747,-3.8001,-3.8666,-3.8485,-3.8584,-3.9143,-3.9365,-3.9735,-4.0595,-4.1404,-4.2459,-4.3915,-4.4719,-4.492,-4.4443,-4.4468,-4.4552,-4.4836,-4.5754,-4.6874,-4.8005,-4.8561,-4.8987,-4.9389,-4.954,-4.959,-4.959,-4.959,-4.959,-4.959,-4.959,-4.959,-4.9665,-5.0167,-5.0776,-5.1114,-5.0852,-5.0494,-5.0218,-5.067,-5.1222,-5.1222,-5.0845,-5.0594,-5.0519,-5.0142,-4.9967,-4.9841,-4.9711,-4.9711,-4.9941,-4.9992,-4.9916,-4.9766,-4.9891,-5.0017,-5.0268,-5.0067,-5.0142,-5.0419,-5.0243,-4.9967,-4.9967,-5.074,-5.1743,-2.815,-2.815,-2.815,-2.815,-2.815,-2.815,-2.815,-2.815,-2.815,-2.815,-2.815,-2.815,-2.8149,-2.826,-2.9177,-2.9471,-2.9634,-3.0392,-3.0854,-3.0854,-3.0854,-3.0934,-3.1007,-2.9692,-3.0287,-3.2784,-3.494,-3.584,-3.5743,-3.5879,-3.6035,-3.5996,-3.5801,-3.5586,-3.5371,-3.4707,-3.4258,-3.4082,-3.3956,-3.3847,-3.3572,-3.3828,-3.3797,-3.3619,-3.4217,-3.436,-3.4199,-3.5758,-3.6998,-3.7532,-3.881,-3.9674,-4.0224,-4.0115,-4.024,-4.0601,-4.1128,-4.153,-4.1756,-4.2585,-4.3639,-4.497,-4.5321,-4.5522,-4.5547,-4.5522,-4.5648,-4.5754,-4.6652,-4.7752,-4.896,-4.9141,-4.9314,-4.9565,-4.959,-4.959,-4.959,-4.959,-4.959,-4.959,-4.959,-4.959,-4.959,-5.0067,-5.0293,-5.0323,-5.0042,-4.9866,-4.964,-5.0017,-5.0368,-5.0343,-5.0142,-4.9992,-4.9967,-4.9791,-4.9615,-4.959,-4.959,-4.959,-4.959,-4.959,-4.959,-4.959,-4.959,-4.969,-4.9967,-4.9791,-4.9741,-4.9816,-4.9816,-4.9615,-4.9744,-5.1045,-5.2615,-2.815,-2.815,-2.815,-2.815,-2.815,-2.815,-2.815,-2.815,-2.815,-2.8305,-2.8473,-2.8473,-2.8675,-2.932,-3.0319,-3.1071,-3.1629,-3.2555,-3.3112,-3.3129,-3.3129,-3.3042,-3.293,-3.1548,-3.2014,-3.3964,-3.5412,-3.6035,-3.6035,-3.6035,-3.5957,-3.5859,-3.5547,-3.5293,-3.5078,-3.4414,-3.4023,-3.3906,-3.41,-3.4278,-3.4652,-3.5149,-3.5354,-3.5628,-3.6427,-3.6838,-3.6703,-3.8241,-3.9354,-3.9766,-4.0666,-4.1289,-4.153,-4.1656,-4.1756,-4.1932,-4.284,-4.3144,-4.2897,-4.3614,-4.4543,-4.5397,-4.5598,-4.5849,-4.625,-4.6326,-4.6326,-4.6401,-4.7129,-4.8182,-4.9263,-4.9419,-4.9464,-4.9565,-4.959,-4.959,-4.959,-4.959,-4.959,-4.959,-4.959,-4.959,-4.9665,-4.9967,-5.0042,-4.9715,-4.959,-4.959,-4.959,-4.959,-4.959,-4.959,-4.959,-4.9615,-4.959,-4.9615,-4.959,-4.959,-4.959,-4.959,-4.959,-4.959,-4.959,-4.959,-4.959,-4.9615,-4.9615,-4.9615,-4.9615,-4.964,-4.9615,-4.9744,-5.0206,-5.1793,-5.3592,-2.815,-2.815,-2.8136,-2.815,-2.8305,-2.8318,-2.8318,-2.8305,-2.815,-2.8642,-2.9481,-2.9314,-3.0116,-3.1386,-3.2188,-3.3257,-3.4094,-3.4545,-3.4839,-3.4839,-3.4839,-3.4729,-3.4685,-3.3804,-3.3816,-3.4846,-3.5568,-3.6035,-3.6035,-3.6016,-3.582,-3.5488,-3.541,-3.498,-3.4297,-3.4121,-3.3887,-3.3496,-3.4318,-3.5129,-3.5683,-3.6316,-3.7023,-3.7821,-3.8535,-3.9128,-3.9325,-4.021,-4.082,-4.1139,-4.1672,-4.2082,-4.2108,-4.2534,-4.3037,-4.3489,-4.413,-4.4434,-4.4392,-4.4995,-4.5347,-4.5497,-4.5949,-4.6225,-4.6301,-4.6326,-4.6326,-4.6426,-4.6853,-4.7853,-4.9362,-4.9141,-4.9088,-4.9464,-4.9565,-4.959,-4.959,-4.959,-4.959,-4.959,-4.959,-4.959,-4.9615,-4.969,-4.969,-4.9615,-4.959,-4.959,-4.959,-4.959,-4.959,-4.959,-4.959,-4.959,-4.959,-4.959,-4.959,-4.959,-4.959,-4.9565,-4.954,-4.9515,-4.9565,-4.9289,-4.9464,-4.9414,-4.9464,-4.959,-4.9515,-4.9364,-4.9517,-4.9925,-5.1194,-5.2769,-5.4212,-2.815,-2.815,-2.8487,-2.8824,-2.9328,-2.9649,-2.9816,-2.9649,-2.9816,-3.0317,-3.1467,-3.1963,-3.2422,-3.2873,-3.4407,-3.5449,-3.6164,-3.6831,-3.7089,-3.7089,-3.7089,-3.6802,-3.6314,-3.6039,-3.5724,-3.5606,-3.586,-3.6035,-3.5976,-3.5781,-3.5566,-3.5332,-3.4883,-3.4434,-3.4082,-3.3828,-3.3594,-3.3418,-3.4548,-3.5869,-3.7144,-3.7528,-3.8268,-3.9334,-3.9943,-4.0453,-4.0925,-4.1492,-4.1979,-4.2333,-4.2534,-4.2635,-4.2635,-4.2861,-4.3062,-4.3313,-4.3828,-4.4407,-4.5095,-4.5372,-4.5623,-4.5949,-4.6175,-4.6326,-4.6326,-4.6326,-4.6326,-4.6376,-4.6803,-4.728,-4.7705,-4.8284,-4.8862,-4.9113,-4.9389,-4.959,-4.959,-4.959,-4.959,-4.959,-4.959,-4.959,-4.959,-4.959,-4.959,-4.959,-4.959,-4.959,-4.959,-4.959,-4.959,-4.959,-4.959,-4.959,-4.959,-4.959,-4.959,-4.959,-4.959,-4.954,-4.9188,-4.9113,-4.9012,-4.8686,-4.8686,-4.8686,-4.8535,-4.8586,-4.8611,-4.8762,-4.9114,-4.9614,-5.1239,-5.2834,-5.4058,-2.815,-2.8305,-2.9146,-2.9969,-3.0984,-3.1617,-3.1948,-3.1783,-3.1948,-3.2608,-3.3756,-3.4717,-3.5053,-3.5231,-3.6492,-3.7362,-3.7972,-3.8368,-3.8574,-3.8574,-3.8574,-3.8105,-3.7363,-3.7305,-3.6855,-3.6152,-3.6035,-3.6035,-3.5996,-3.5742,-3.5449,-3.5137,-3.4551,-3.4121,-3.3887,-3.3681,-3.3544,-3.3796,-3.5046,-3.6724,-3.8246,-3.8885,-3.9709,-4.087,-4.1353,-4.172,-4.1948,-4.24,-4.2762,-4.2986,-4.2986,-4.2986,-4.2986,-4.2986,-4.3011,-4.305,-4.384,-4.4593,-4.5447,-4.5623,-4.5874,-4.625,-4.6326,-4.6326,-4.6326,-4.6326,-4.6326,-4.6351,-4.6677,-4.6731,-4.6586,-4.7483,-4.8385,-4.8711,-4.9163,-4.9414,-4.9565,-4.959,-4.959,-4.959,-4.959,-4.959,-4.959,-4.959,-4.959,-4.959,-4.959,-4.959,-4.959,-4.959,-4.959,-4.959,-4.949,-4.9439,-4.954,-4.959,-4.959,-4.9515,-4.9464,-4.896,-4.8761,-4.8711,-4.851,-4.8259,-4.8008,-4.7958,-4.8134,-4.8033,-4.7957,-4.8081,-4.8574,-4.975,-5.1573,-5.2959,-5.4061,-2.815,-2.8642,-3.0426,-3.1737,-3.2741,-3.4018,-3.4506,-3.4506,-3.4506,-3.4992,-3.5994,-3.7099,-3.8073,-3.8651,-3.8205,-3.831,-3.8954,-3.8817,-3.8594,-3.8574,-3.8574,-3.8125,-3.7324,-3.7285,-3.6836,-3.6074,-3.6035,-3.6035,-3.6016,-3.5976,-3.5566,-3.4766,-3.4648,-3.4238,-3.3594,-3.369,-3.4047,-3.4528,-3.6013,-3.7572,-3.9098,-4.0316,-4.1468,-4.2625,-4.2874,-4.2874,-4.2849,-4.2961,-4.2986,-4.2986,-4.2986,-4.2986,-4.2986,-4.2986,-4.3,-4.3148,-4.4502,-4.5372,-4.5497,-4.5899,-4.6225,-4.6301,-4.6326,-4.6326,-4.6326,-4.6326,-4.6326,-4.6326,-4.6376,-4.6381,-4.6387,-4.6909,-4.7732,-4.8535,-4.8761,-4.9088,-4.9515,-4.9565,-4.959,-4.959,-4.959,-4.959,-4.959,-4.959,-4.959,-4.959,-4.959,-4.959,-4.959,-4.959,-4.954,-4.9414,-4.9188,-4.8987,-4.9439,-4.9568,-4.9618,-4.9289,-4.871,-4.8258,-4.8359,-4.8385,-4.8083,-4.7857,-4.7707,-4.7682,-4.7832,-4.7906,-4.7803,-4.8192,-4.8989,-5.0286,-5.2476,-5.3726,-5.4604,-3.015,-3.1286,-3.2592,-3.374,-3.488,-3.5994,-3.6316,-3.6299,-3.6316,-3.6797,-3.7631,-3.8426,-3.9216,-3.9983,-3.9472,-3.941,-3.9523,-3.9238,-3.8828,-3.8613,-3.8574,-3.8125,-3.7363,-3.7105,-3.6677,-3.6133,-3.6035,-3.6035,-3.5976,-3.5762,-3.5312,-3.4746,-3.4414,-3.4004,-3.3642,-3.3922,-3.4528,-3.5355,-3.6703,-3.8268,-4.0036,-4.1009,-4.1948,-4.2874,-4.2986,-4.2986,-4.2986,-4.2986,-4.2986,-4.2986,-4.2986,-4.2986,-4.2986,-4.2986,-4.3025,-4.3148,-4.3836,-4.4719,-4.5397,-4.5673,-4.5949,-4.6276,-4.6326,-4.6326,-4.6326,-4.6326,-4.6326,-4.6326,-4.6326,-4.6255,-4.6406,-4.6731,-4.728,-4.7682,-4.836,-4.8837,-4.9088,-4.9364,-4.959,-4.959,-4.959,-4.959,-4.959,-4.959,-4.959,-4.959,-4.959,-4.9565,-4.9515,-4.9314,-4.9063,-4.8987,-4.8611,-4.8284,-4.8435,-4.9166,-4.9393,-4.8687,-4.8084,-4.7808,-4.7807,-4.7682,-4.7405,-4.7104,-4.7176,-4.7542,-4.7688,-4.836,-4.8179,-4.7534,-4.8495,-5.1167,-5.3581,-5.4259,-5.4526,-3.2443,-3.3919,-3.488,-3.6011,-3.7152,-3.8109,-3.8585,-3.8585,-3.8585,-3.8919,-3.9411,-3.9726,-4.0139,-4.0395,-4.0199,-3.9902,-3.9648,-3.9199,-3.8848,-3.8594,-3.8574,-3.8125,-3.7402,-3.7086,-3.6658,-3.6133,-3.6035,-3.6035,-3.5996,-3.5857,-3.554,-3.508,-3.4913,-3.4497,-3.4273,-3.4777,-3.5623,-3.656,-3.7887,-3.9334,-4.0846,-4.1582,-4.2174,-4.2874,-4.2986,-4.2986,-4.2986,-4.2986,-4.2986,-4.2986,-4.2986,-4.2986,-4.2986,-4.2986,-4.295,-4.3087,-4.3501,-4.4192,-4.507,-4.5372,-4.5723,-4.625,-4.6326,-4.6326,-4.6326,-4.6326,-4.6326,-4.6326,-4.6326,-4.6326,-4.6376,-4.6652,-4.6928,-4.7179,-4.7958,-4.856,-4.8786,-4.9264,-4.954,-4.959,-4.959,-4.959,-4.959,-4.959,-4.9515,-4.9364,-4.9314,-4.9289,-4.9038,-4.8761,-4.8485,-4.846,-4.8008,-4.7732,-4.7657,-4.803,-4.8559,-4.8108,-4.7533,-4.7257,-4.7205,-4.7029,-4.6924,-4.6572,-4.678,-4.7205,-4.7769,-4.8469,-4.8197,-4.7318,-4.9003,-5.179,-5.3345,-5.4387,-5.4702,-3.5154,-3.6155,-3.7419,-3.8195,-3.9022,-4.0257,-4.0958,-4.0744,-4.0919,-4.0705,-4.0686,-4.0938,-4.0685,-4.0566,-4.0351,-3.998,-3.9297,-3.8828,-3.8613,-3.8574,-3.8574,-3.8105,-3.7324,-3.7105,-3.6658,-3.6055,-3.6035,-3.6035,-3.6016,-3.6324,-3.6176,-3.5872,-3.6099,-3.6013,-3.5418,-3.638,-3.721,-3.8029,-3.9334,-4.0663,-4.1582,-4.2174,-4.2625,-4.2986,-4.2986,-4.2986,-4.2986,-4.2986,-4.2986,-4.2986,-4.2986,-4.2986,-4.2986,-4.2986,-4.2986,-4.3087,-4.3489,-4.4016,-4.4618,-4.5146,-4.5648,-4.62,-4.6326,-4.6326,-4.6326,-4.6326,-4.6326,-4.6326,-4.6326,-4.6326,-4.6326,-4.6376,-4.6577,-4.7054,-4.7631,-4.8184,-4.8611,-4.9188,-4.9565,-4.9464,-4.9414,-4.954,-4.9565,-4.9389,-4.9188,-4.8962,-4.8786,-4.8611,-4.8259,-4.8058,-4.7933,-4.7832,-4.7481,-4.7154,-4.6928,-4.6778,-4.7205,-4.7456,-4.7007,-4.6731,-4.7096,-4.697,-4.706,-4.69,-4.7677,-4.8236,-4.9335,-4.996,-4.994,-4.9638,-5.1384,-5.2415,-5.3739,-5.4835,-5.4994,-3.6957,-3.7755,-3.8273,-3.8962,-3.9739,-4.0104,-4.0293,-4.0293,-4.0293,-4.0293,-4.0293,-4.0293,-4.0215,-4.0039,-3.9766,-3.9473,-3.916,-3.8789,-3.8574,-3.8574,-3.8574,-3.8125,-3.7422,-3.7266,-3.6836,-3.6152,-3.6035,-3.6016,-3.6152,-3.6674,-3.6861,-3.6779,-3.7361,-3.7481,-3.7352,-3.8149,-3.8862,-3.9779,-4.0639,-4.1582,-4.2513,-4.2762,-4.2874,-4.2986,-4.2986,-4.2986,-4.2986,-4.2986,-4.2986,-4.2986,-4.2986,-4.2986,-4.2986,-4.2986,-4.2986,-4.2986,-4.3137,-4.3664,-4.4493,-4.4819,-4.5347,-4.6075,-4.6326,-4.6326,-4.6326,-4.6326,-4.6326,-4.6326,-4.6326,-4.6326,-4.6326,-4.6326,-4.6401,-4.6552,-4.7355,-4.7807,-4.7832,-4.8184,-4.8385,-4.8435,-4.8661,-4.8838,-4.8862,-4.8584,-4.8359,-4.8636,-4.841,-4.8058,-4.7908,-4.7531,-4.738,-4.733,-4.6928,-4.6652,-4.6673,-4.6597,-4.6748,-4.7319,-4.7142,-4.7161,-4.735,-4.7462,-4.7401,-4.8029,-4.8789,-4.9702,-5.0685,-5.1316,-5.144,-5.1484,-5.2397,-5.3477,-5.4775,-5.5215,-5.5269,-3.8762,-3.9099,-3.9296,-3.9471,-3.9949,-3.9829,-3.9883,-3.9883,-3.9883,-3.9883,-3.9902,-3.9902,-3.9785,-3.9609,-3.9316,-3.9121,-3.8945,-3.8691,-3.8574,-3.8574,-3.8574,-3.8105,-3.7324,-3.6934,-3.6582,-3.6133,-3.6327,-3.6443,-3.6423,-3.7441,-3.7916,-3.8018,-3.875,-3.8987,-3.9049,-3.9569,-4.0292,-4.0985,-4.1582,-4.2287,-4.2874,-4.2986,-4.2986,-4.2986,-4.2986,-4.2986,-4.2986,-4.2986,-4.2986,-4.2986,-4.2986,-4.2986,-4.2986,-4.2986,-4.2986,-4.3011,-4.3237,-4.3714,-4.4493,-4.4869,-4.5321,-4.61,-4.6326,-4.6326,-4.6326,-4.6326,-4.6326,-4.6326,-4.6326,-4.6326,-4.6326,-4.6326,-4.6326,-4.6326,-4.7079,-4.7531,-4.7456,-4.7707,-4.7908,-4.7983,-4.7983,-4.8159,-4.8234,-4.7983,-4.7558,-4.8058,-4.7857,-4.7481,-4.733,-4.7004,-4.6903,-4.6828,-4.6723,-4.6667,-4.6686,-4.6585,-4.6484,-4.6925,-4.7342,-4.787,-4.842,-4.842,-4.8442,-4.9675,-5.0573,-5.1347,-5.2352,-5.3126,-5.3477,-5.3597,-5.3347,-5.4288,-5.5257,-5.5227,-5.5209,-4.0254,-3.9961,-4.0293,-4.0024,-3.9863,-3.9766,-3.9726,-3.9766,-3.9766,-3.9726,-3.9746,-3.9687,-3.9531,-3.9238,-3.9101,-3.8926,-3.8633,-3.8594,-3.8574,-3.8574,-3.8535,-3.8125,-3.7305,-3.6543,-3.6133,-3.6191,-3.6773,-3.7159,-3.7327,-3.8423,-3.9304,-3.9463,-4.0273,-4.0685,-4.0574,-4.0894,-4.1378,-4.1696,-4.2287,-4.2625,-4.2986,-4.2986,-4.2986,-4.2986,-4.2986,-4.2986,-4.2986,-4.2986,-4.2986,-4.2986,-4.2986,-4.2986,-4.2986,-4.3011,-4.3087,-4.3274,-4.3564,-4.4091,-4.4669,-4.5121,-4.5648,-4.6225,-4.6326,-4.6326,-4.6326,-4.6326,-4.6326,-4.6326,-4.6326,-4.6326,-4.6326,-4.6326,-4.6326,-4.6376,-4.6778,-4.723,-4.7757,-4.7782,-4.7606,-4.7657,-4.7558,-4.7433,-4.7807,-4.7558,-4.7307,-4.7207,-4.7179,-4.6903,-4.6652,-4.6502,-4.6376,-4.6446,-4.6591,-4.7019,-4.718,-4.7159,-4.7172,-4.756,-4.8247,-4.9312,-4.9595,-4.9724,-5.0099,-5.1237,-5.2136,-5.2992,-5.3681,-5.423,-5.4671,-5.4552,-5.4756,-5.5179,-5.5209,-5.5209,-5.5209,-4.0,-3.9883,-3.9648,-3.9492,-3.9336,-3.9062,-3.8945,-3.8926,-3.8945,-3.8984,-3.8945,-3.8926,-3.8906,-3.875,-3.875,-3.8672,-3.8594,-3.8574,-3.8574,-3.8574,-3.8574,-3.8086,-3.7266,-3.6426,-3.6016,-3.6171,-3.7355,-3.8027,-3.82,-3.939,-4.0271,-4.1317,-4.1614,-4.1962,-4.2248,-4.2287,-4.2513,-4.265,-4.2762,-4.2874,-4.2986,-4.2986,-4.2986,-4.2986,-4.2986,-4.2986,-4.2986,-4.2986,-4.2986,-4.2986,-4.2986,-4.2986,-4.3037,-4.3338,-4.3727,-4.4206,-4.4306,-4.4644,-4.5146,-4.5422,-4.5748,-4.6225,-4.6326,-4.6326,-4.6326,-4.6326,-4.6326,-4.6326,-4.6326,-4.6326,-4.6326,-4.6326,-4.6326,-4.6326,-4.6502,-4.6778,-4.7129,-4.6979,-4.6728,-4.6728,-4.6728,-4.6928,-4.7129,-4.7029,-4.6731,-4.6979,-4.6803,-4.6527,-4.6471,-4.6421,-4.6541,-4.6541,-4.678,-4.7442,-4.7782,-4.7843,-4.7951,-4.8418,-4.9467,-5.1099,-5.1183,-5.121,-5.192,-5.2914,-5.3126,-5.389,-5.4333,-5.4773,-5.5108,-5.5179,-5.5209,-5.5209,-5.5209,-5.5209,-5.5209,-3.9492,-3.9336,-3.9238,-3.9101,-3.8926,-3.8672,-3.8574,-3.8574,-3.8574,-3.8574,-3.8574,-3.8574,-3.8574,-3.8574,-3.8574,-3.8574,-3.8574,-3.8574,-3.8574,-3.8681,-3.8813,-3.8482,-3.7608,-3.6602,-3.6305,-3.7079,-3.8274,-3.903,-3.9649,-4.0657,-4.1793,-4.24,-4.2895,-4.3078,-4.2899,-4.2986,-4.2986,-4.2986,-4.2986,-4.2986,-4.2986,-4.2986,-4.2986,-4.2986,-4.2986,-4.2986,-4.2986,-4.2986,-4.2986,-4.2986,-4.2986,-4.3037,-4.31,-4.3564,-4.4269,-4.5119,-4.5102,-4.5146,-4.5447,-4.5673,-4.5974,-4.625,-4.6326,-4.6326,-4.6326,-4.6326,-4.6326,-4.6326,-4.6326,-4.6326,-4.6326,-4.6326,-4.6326,-4.6326,-4.6326,-4.6451,-4.6778,-4.6527,-4.6351,-4.6326,-4.6326,-4.6401,-4.6778,-4.6476,-4.6527,-4.6627,-4.6648,-4.6617,-4.6636,-4.6755,-4.6993,-4.7205,-4.7795,-4.8584,-4.9415,-4.9653,-5.0049,-5.0353,-5.1145,-5.2744,-5.2658,-5.273,-5.3366,-5.3993,-5.4333,-5.4539,-5.4875,-5.5108,-5.5108,-5.5209,-5.5209,-5.5209,-5.5209,-5.5209,-5.5209,-3.8926,-3.8613,-3.8984,-3.8926,-3.8613,-3.8574,-3.8574,-3.8574,-3.8574,-3.8574,-3.8574,-3.8574,-3.8574,-3.8574,-3.8574,-3.8574,-3.872,-3.8865,-3.8865,-3.8997,-3.9251,-3.931,-3.8999,-3.73,-3.7319,-3.8486,-3.9931,-4.0691,-4.1309,-4.266,-4.3307,-4.3454,-4.3919,-4.3696,-4.3288,-4.3037,-4.2986,-4.2986,-4.2986,-4.2986,-4.2986,-4.2986,-4.2986,-4.2986,-4.2986,-4.2986,-4.2986,-4.2986,-4.2986,-4.2986,-4.2986,-4.3025,-4.3099,-4.3576,-4.4598,-4.573,-4.5826,-4.5598,-4.5648,-4.6024,-4.6276,-4.6326,-4.6326,-4.6326,-4.6326,-4.6326,-4.6326,-4.6326,-4.6326,-4.6326,-4.6326,-4.6326,-4.6326,-4.6326,-4.6326,-4.6326,-4.6326,-4.6326,-4.6326,-4.6326,-4.6326,-4.6326,-4.6326,-4.6326,-4.6326,-4.6476,-4.6591,-4.7019,-4.7324,-4.7769,-4.8094,-4.8558,-4.9247,-4.9956,-5.0934,-5.179,-5.2193,-5.2722,-5.3442,-5.4316,-5.4007,-5.4126,-5.4671,-5.5078,-5.4875,-5.4875,-5.5078,-5.5209,-5.5209,-5.5209,-5.5209,-5.5209,-5.5209,-5.5209,-5.5209,-3.8652,-3.8594,-3.8672,-3.8652,-3.8594,-3.8574,-3.8574,-3.8574,-3.8574,-3.8574,-3.8574,-3.8574,-3.8574,-3.8574,-3.8574,-3.8739,-3.9176,-3.9445,-3.9714,-4.0473,-4.0549,-4.0993,-4.0608,-3.8954,-3.8861,-4.0473,-4.1919,-4.2662,-4.3232,-4.3545,-4.4207,-4.4774,-4.4286,-4.3776,-4.3639,-4.3212,-4.2986,-4.2986,-4.2986,-4.2986,-4.2986,-4.2986,-4.2986,-4.2986,-4.2986,-4.2986,-4.2986,-4.2986,-4.2986,-4.2986,-4.3037,-4.3075,-4.3198,-4.3886,-4.4961,-4.5876,-4.6213,-4.6125,-4.615,-4.6225,-4.6326,-4.6326,-4.6326,-4.6326,-4.6326,-4.6326,-4.6326,-4.6326,-4.6326,-4.6326,-4.6326,-4.6326,-4.6326,-4.6326,-4.6326,-4.6326,-4.6326,-4.6326,-4.6326,-4.6326,-4.6326,-4.6301,-4.6301,-4.6421,-4.6421,-4.6421,-4.6874,-4.7416,-4.8094,-4.8762,-4.9335,-4.9901,-5.0573,-5.1375,-5.2056,-5.2923,-5.3453,-5.3844,-5.4643,-5.5143,-5.4964,-5.4875,-5.5078,-5.5209,-5.5179,-5.5209,-5.5209,-5.5209,-5.5209,-5.5209,-5.5209,-5.5209,-5.5209,-5.5209,-5.5209,-3.8574,-3.8574,-3.8574,-3.8574,-3.8574,-3.8574,-3.8574,-3.8574,-3.8574,-3.8574,-3.8574,-3.8574,-3.8574,-3.8574,-3.8574,-3.8865,-3.957,-4.0555,-4.1404,-4.1989,-4.243,-4.2816,-4.2935,-4.2023,-4.1746,-4.257,-4.3884,-4.4463,-4.4398,-4.4622,-4.5031,-4.5472,-4.4844,-4.4342,-4.3865,-4.3489,-4.3237,-4.3011,-4.2986,-4.2986,-4.2986,-4.2986,-4.2986,-4.2986,-4.2986,-4.2986,-4.2986,-4.2986,-4.3112,-4.3288,-4.3388,-4.3237,-4.3358,-4.4286,-4.5439,-4.6043,-4.6295,-4.6301,-4.6301,-4.6326,-4.6326,-4.6326,-4.6326,-4.6326,-4.6326,-4.6326,-4.6326,-4.6326,-4.6326,-4.6326,-4.6326,-4.6326,-4.6326,-4.6326,-4.6326,-4.6326,-4.6326,-4.6326,-4.6326,-4.6301,-4.6446,-4.6465,-4.644,-4.6704,-4.6917,-4.7103,-4.812,-4.87,-4.9362,-5.0041,-5.0796,-5.1375,-5.2028,-5.2673,-5.3232,-5.389,-5.4436,-5.4671,-5.4934,-5.5197,-5.5108,-5.5078,-5.5179,-5.5209,-5.5209,-5.5209,-5.5209,-5.5209,-5.5209,-5.5209,-5.5209,-5.5209,-5.5209,-5.5209,-5.5209,-3.8574,-3.8574,-3.8574,-3.8574,-3.8574,-3.8574,-3.8574,-3.8574,-3.8574,-3.8574,-3.8574,-3.8574,-3.8574,-3.872,-3.8865,-3.9281,-4.0678,-4.1924,-4.3095,-4.3602,-4.4043,-4.4193,-4.438,-4.4254,-4.4094,-4.3974,-4.528,-4.5601,-4.538,-4.555,-4.5665,-4.5673,-4.5472,-4.497,-4.4267,-4.3815,-4.3564,-4.3237,-4.3062,-4.2986,-4.2986,-4.2986,-4.2986,-4.2986,-4.2986,-4.2986,-4.3011,-4.3112,-4.3338,-4.3765,-4.3966,-4.3746,-4.3788,-4.4593,-4.5723,-4.625,-4.6301,-4.6301,-4.6326,-4.6326,-4.6326,-4.6326,-4.6326,-4.6326,-4.6326,-4.6326,-4.6326,-4.6326,-4.6326,-4.6326,-4.6326,-4.6326,-4.6326,-4.6326,-4.6326,-4.6326,-4.6326,-4.6326,-4.6351,-4.6476,-4.6737,-4.6824,-4.6985,-4.7313,-4.7613,-4.8169,-4.9194,-5.0068,-5.074,-5.1375,-5.2164,-5.2808,-5.3442,-5.3943,-5.4524,-5.445,-5.504,-5.5287,-5.5359,-5.5239,-5.5209,-5.5209,-5.5209,-5.5209,-5.5209,-5.5209,-5.5209,-5.5209,-5.5209,-5.5209,-5.5209,-5.5209,-5.5209,-5.5209,-5.5209,-3.8574,-3.8574,-3.8574,-3.8574,-3.8574,-3.8574,-3.8574,-3.8574,-3.8574,-3.8574,-3.8574,-3.8574,-3.872,-3.9156,-3.9425,-4.0678,-4.2666,-4.3758,-4.4543,-4.4906,-4.509,-4.5086,-4.5247,-4.5306,-4.5306,-4.5817,-4.6209,-4.6159,-4.5963,-4.618,-4.6105,-4.6075,-4.5748,-4.5296,-4.492,-4.4367,-4.3815,-4.3514,-4.3187,-4.2986,-4.2986,-4.2986,-4.2986,-4.2986,-4.2986,-4.2986,-4.3087,-4.3413,-4.3714,-4.389,-4.4719,-4.4953,-4.4935,-4.5279,-4.5799,-4.6175,-4.6326,-4.6326,-4.6326,-4.6326,-4.6326,-4.6326,-4.6326,-4.6326,-4.6326,-4.6326,-4.6326,-4.6326,-4.6326,-4.6326,-4.6326,-4.6326,-4.6326,-4.6326,-4.6326,-4.6326,-4.6326,-4.6351,-4.6502,-4.6778,-4.7009,-4.7272,-4.7613,-4.8337,-4.9388,-5.0041,-5.0823,-5.1512,-5.2136,-5.2914,-5.3576,-5.423,-5.4875,-5.5262,-5.5825,-5.5412,-5.5382,-5.5603,-5.5556,-5.5227,-5.5197,-5.5209,-5.5209,-5.5209,-5.5209,-5.5209,-5.5209,-5.5209,-5.5209,-5.5209,-5.5209,-5.5209,-5.5209,-5.5209,-5.5209,-3.8574,-3.8574,-3.8574,-3.8574,-3.8574,-3.8574,-3.8574,-3.8574,-3.8574,-3.8574,-3.8574,-3.8574,-3.8865,-3.957,-4.0249,-4.2064,-4.4346,-4.5287,-4.5739,-4.6148,-4.6214,-4.5921,-4.5872,-4.5842,-4.6035,-4.618,-4.6326,-4.6326,-4.6326,-4.6326,-4.6326,-4.625,-4.5999,-4.5773,-4.5372,-4.4669,-4.4116,-4.379,-4.3288,-4.2986,-4.2986,-4.2986,-4.2986,-4.2986,-4.2986,-4.2986,-4.3087,-4.3514,-4.394,-4.4317,-4.502,-4.5522,-4.5773,-4.5899,-4.6024,-4.625,-4.6326,-4.6326,-4.6326,-4.6326,-4.6326,-4.6326,-4.6326,-4.6326,-4.6326,-4.6326,-4.6326,-4.6326,-4.6326,-4.6326,-4.6326,-4.6326,-4.6326,-4.6326,-4.6326,-4.6326,-4.6301,-4.6301,-4.6723,-4.7172,-4.7419,-4.7743,-4.8126,-4.9174,-5.0989,-5.1955,-5.2522,-5.3001,-5.3442,-5.3993,-5.4568,-5.501,-5.5568,-5.6137,-5.6555,-5.6467,-5.5991,-5.599,-5.5692,-5.5364,-5.5227,-5.5209,-5.5209,-5.5209,-5.5209,-5.5209,-5.5209,-5.5209,-5.5209,-5.5209,-5.5209,-5.5209,-5.5209,-5.5209,-5.5209,-3.8574,-3.8574,-3.8574,-3.8574,-3.8574,-3.8574,-3.872,-3.872,-3.8865,-3.8865,-3.9011,-3.9156,-3.957,-4.0514,-4.1763,-4.369,-4.6049,-4.6214,-4.656,-4.6885,-4.6759,-4.6581,-4.6426,-4.6326,-4.6301,-4.6301,-4.6326,-4.6326,-4.6326,-4.6326,-4.6326,-4.6301,-4.6301,-4.6125,-4.5623,-4.4945,-4.4418,-4.394,-4.3288,-4.3011,-4.2986,-4.2986,-4.2986,-4.2986,-4.2986,-4.2986,-4.3037,-4.3689,-4.4166,-4.4644,-4.5271,-4.5849,-4.6225,-4.6301,-4.6301,-4.6326,-4.6326,-4.6326,-4.6326,-4.6326,-4.6326,-4.6326,-4.6326,-4.6326,-4.6326,-4.6326,-4.6326,-4.6326,-4.6326,-4.6326,-4.6326,-4.6326,-4.6326,-4.6301,-4.6326,-4.6446,-4.6541,-4.6686,-4.7052,-4.7394,-4.7833,-4.8326,-4.8699,-5.0243,-5.1952,-5.3222,-5.3902,-5.3844,-5.4304,-5.4436,-5.4994,-5.5586,-5.6107,-5.6765,-5.7244,-5.7573,-5.6944,-5.6482,-5.5931,-5.5248,-5.5185,-5.5209,-5.5209,-5.5209,-5.5209,-5.5209,-5.5209,-5.5209,-5.5209,-5.5209,-5.5209,-5.5209,-5.5209,-5.5209,-5.5209,-3.8574,-3.8574,-3.8574,-3.8574,-3.8574,-3.8574,-3.8865,-3.9156,-3.9425,-3.9714,-4.0146,-4.0555,-4.1226,-4.2344,-4.4053,-4.5371,-4.619,-4.6461,-4.6662,-4.6979,-4.6677,-4.6451,-4.6326,-4.6326,-4.6326,-4.6326,-4.6326,-4.6326,-4.6326,-4.6326,-4.6326,-4.6326,-4.6301,-4.625,-4.6024,-4.5221,-4.4618,-4.4367,-4.3539,-4.3011,-4.3011,-4.3011,-4.2986,-4.2986,-4.2986,-4.3037,-4.3187,-4.3915,-4.4543,-4.4744,-4.5673,-4.62,-4.6326,-4.6326,-4.6326,-4.6326,-4.6326,-4.6326,-4.6326,-4.6326,-4.6326,-4.6326,-4.6326,-4.6326,-4.6326,-4.6326,-4.6326,-4.6326,-4.6326,-4.6326,-4.6326,-4.6326,-4.6326,-4.6421,-4.6541,-4.69,-4.7112,-4.7534,-4.7807,-4.8484,-4.9098,-4.9281,-4.963,-5.1344,-5.2972,-5.4185,-5.5066,-5.5006,-5.5036,-5.5096,-5.5735,-5.6346,-5.6765,-5.7423,-5.7872,-5.8201,-5.7693,-5.7004,-5.6006,-5.5234,-5.5215,-5.5209,-5.5209,-5.5209,-5.5209,-5.5209,-5.5209,-5.5209,-5.5209,-5.5209,-5.5209,-5.5209,-5.5209,-5.5209,-5.5209,-3.8556,-3.8574,-3.8574,-3.8574,-3.8574,-3.8574,-3.9011,-3.957,-4.0249,-4.0963,-4.1608,-4.2054,-4.2919,-4.4092,-4.5208,-4.5924,-4.6488,-4.6561,-4.6434,-4.6556,-4.6451,-4.6326,-4.6326,-4.6326,-4.6326,-4.6326,-4.6326,-4.6326,-4.6326,-4.6326,-4.6326,-4.6326,-4.6326,-4.6301,-4.625,-4.5522,-4.5196,-4.4794,-4.4091,-4.33,-4.3125,-4.3,-4.3011,-4.3011,-4.3011,-4.3187,-4.3589,-4.4141,-4.4794,-4.5121,-4.5949,-4.6301,-4.6326,-4.6326,-4.6326,-4.6326,-4.6326,-4.6326,-4.6326,-4.6326,-4.6326,-4.6326,-4.6326,-4.6326,-4.6326,-4.6301,-4.6301,-4.6326,-4.6326,-4.6301,-4.6301,-4.6326,-4.6326,-4.6421,-4.69,-4.7442,-4.7886,-4.8442,-4.8904,-4.9675,-5.0211,-5.0353,-5.0712,-5.2074,-5.3547,-5.4466,-5.5167,-5.5138,-5.5287,-5.5526,-5.6346,-5.7304,-5.7693,-5.8112,-5.8471,-5.877,-5.8022,-5.7169,-5.5961,-5.5323,-5.5185,-5.5209,-5.5209,-5.5209,-5.5209,-5.5209,-5.5209,-5.5209,-5.5209,-5.5209,-5.5209,-5.5209,-5.5209,-5.5209,-5.5209,-3.8909,-3.9229,-3.9082,-3.9037,-3.9136,-3.9156,-3.9714,-4.0555,-4.1509,-4.2333,-4.32,-4.3894,-4.4549,-4.5158,-4.5586,-4.6266,-4.6781,-4.6502,-4.6351,-4.6326,-4.6326,-4.6326,-4.6326,-4.6326,-4.6326,-4.6326,-4.6326,-4.6326,-4.6326,-4.6326,-4.6326,-4.6326,-4.6326,-4.6326,-4.6175,-4.5748,-4.5347,-4.5045,-4.4392,-4.3851,-4.3562,-4.345,-4.3463,-4.3413,-4.3438,-4.3589,-4.4016,-4.4568,-4.5121,-4.5447,-4.5999,-4.6301,-4.6326,-4.6326,-4.6326,-4.6326,-4.6326,-4.6326,-4.6326,-4.6326,-4.6326,-4.6326,-4.6326,-4.6326,-4.6301,-4.6301,-4.6371,-4.6295,-4.6636,-4.6755,-4.678,-4.69,-4.69,-4.7231,-4.7586,-4.8236,-4.8877,-4.9562,-5.035,-5.1017,-5.1453,-5.1468,-5.1896,-5.2972,-5.4009,-5.4845,-5.5209,-5.5269,-5.5658,-5.6077,-5.6885,-5.7842,-5.8261,-5.856,-5.88,-5.886,-5.8171,-5.7378,-5.6064,-5.5353,-5.5317,-5.5239,-5.5209,-5.5209,-5.5209,-5.5209,-5.5209,-5.5209,-5.5209,-5.5209,-5.5209,-5.5209,-5.5209,-5.5209,-5.5209,-4.014,-4.0635,-4.0271,-4.0286,-4.0678,-4.074,-4.1268,-4.2333,-4.3053,-4.4116,-4.5183,-4.588,-4.583,-4.5712,-4.6068,-4.6437,-4.6401,-4.6326,-4.6326,-4.6326,-4.6326,-4.6326,-4.6326,-4.6326,-4.6326,-4.6326,-4.6326,-4.6326,-4.6326,-4.6326,-4.6326,-4.6326,-4.6326,-4.6326,-4.6175,-4.5874,-4.5422,-4.5121,-4.4694,-4.4593,-4.4377,-4.4418,-4.4367,-4.4392,-4.4443,-4.4543,-4.4593,-4.507,-4.5447,-4.5598,-4.605,-4.6301,-4.6326,-4.6326,-4.6326,-4.6326,-4.6326,-4.6326,-4.6326,-4.6326,-4.6326,-4.6326,-4.6326,-4.6326,-4.6301,-4.6686,-4.656,-4.6595,-4.7195,-4.7964,-4.8081,-4.8055,-4.8146,-4.8353,-4.8904,-4.9562,-5.035,-5.1155,-5.1811,-5.238,-5.2665,-5.2751,-5.2903,-5.3818,-5.4215,-5.5078,-5.5508,-5.5568,-5.6316,-5.6825,-5.7513,-5.8261,-5.868,-5.8949,-5.9009,-5.88,-5.8441,-5.7391,-5.6123,-5.5575,-5.5347,-5.5329,-5.5209,-5.5209,-5.5209,-5.5209,-5.5209,-5.5209,-5.5209,-5.5209,-5.5209,-5.5209,-5.5209,-5.5209,-5.5209,-4.1155,-4.2234,-4.2436,-4.2259,-4.1885,-4.2189,-4.287,-4.3758,-4.4936,-4.6045,-4.6827,-4.6953,-4.6588,-4.6167,-4.6262,-4.6406,-4.6326,-4.6326,-4.6326,-4.6326,-4.6326,-4.6326,-4.6326,-4.6326,-4.6326,-4.6326,-4.6326,-4.6326,-4.6326,-4.6326,-4.6326,-4.6326,-4.6326,-4.6326,-4.62,-4.61,-4.5824,-4.5623,-4.5321,-4.5146,-4.4903,-4.4744,-4.4618,-4.4618,-4.4618,-4.4819,-4.5095,-4.5347,-4.5648,-4.5924,-4.6175,-4.6276,-4.6326,-4.6326,-4.6326,-4.6326,-4.6326,-4.6326,-4.6326,-4.6326,-4.6326,-4.6326,-4.6326,-4.6326,-4.6301,-4.678,-4.6908,-4.725,-4.8027,-4.8983,-5.073,-5.0232,-4.9734,-4.9987,-5.035,-5.1127,-5.1811,-5.2487,-5.302,-5.3576,-5.4097,-5.4318,-5.4522,-5.4654,-5.4917,-5.5209,-5.5568,-5.6017,-5.6705,-5.7453,-5.8112,-5.8501,-5.889,-5.9039,-5.9099,-5.8949,-5.874,-5.76,-5.6377,-5.608,-5.5777,-5.5299,-5.5209,-5.5209,-5.5209,-5.5209,-5.5209,-5.5209,-5.5209,-5.5209,-5.5209,-5.5209,-5.5209,-5.5209,-5.5209,-4.2303,-4.3542,-4.4325,-4.4068,-4.3212,-4.3711,-4.434,-4.5209,-4.631,-4.7102,-4.7657,-4.7255,-4.6828,-4.6426,-4.6326,-4.6351,-4.6326,-4.6326,-4.6326,-4.6326,-4.6326,-4.6326,-4.6326,-4.6326,-4.6326,-4.6326,-4.6326,-4.6326,-4.6326,-4.6326,-4.6326,-4.6326,-4.6326,-4.6326,-4.6326,-4.6326,-4.6326,-4.62,-4.5974,-4.5723,-4.5479,-4.5372,-4.5196,-4.5196,-4.5246,-4.5372,-4.5648,-4.5824,-4.5924,-4.615,-4.6301,-4.6301,-4.6326,-4.6326,-4.6326,-4.6326,-4.6326,-4.6326,-4.6326,-4.6326,-4.6326,-4.6326,-4.6326,-4.6326,-4.6421,-4.6874,-4.7144,-4.7638,-4.8744,-5.0512,-5.2656,-5.2098,-5.1265,-5.1237,-5.1811,-5.2459,-5.2886,-5.3576,-5.423,-5.4773,-5.5197,-5.5304,-5.5364,-5.5394,-5.5466,-5.5718,-5.6077,-5.6466,-5.6944,-5.7723,-5.853,-5.883,-5.9039,-5.9099,-5.9099,-5.8979,-5.883,-5.8321,-5.7183,-5.6691,-5.6286,-5.5777,-5.5299,-5.5209,-5.5209,-5.5209,-5.5209,-5.5209,-5.5209,-5.5209,-5.5209,-5.5209,-5.5209,-5.5209,-5.5209,-4.4003,-4.4792,-4.5721,-4.5548,-4.4736,-4.524,-4.5823,-4.6357,-4.6948,-4.7101,-4.7157,-4.7104,-4.6803,-4.6401,-4.6326,-4.6376,-4.6401,-4.6351,-4.6351,-4.6426,-4.6351,-4.6326,-4.6351,-4.6376,-4.6401,-4.6326,-4.6326,-4.6326,-4.6326,-4.6326,-4.6326,-4.6326,-4.6326,-4.6326,-4.6326,-4.6326,-4.6326,-4.6301,-4.625,-4.62,-4.615,-4.605,-4.6024,-4.5999,-4.5974,-4.605,-4.61,-4.6125,-4.62,-4.6276,-4.6326,-4.6326,-4.6326,-4.6326,-4.6326,-4.6326,-4.6326,-4.6326,-4.6326,-4.6301,-4.6301,-4.6301,-4.6326,-4.6326,-4.6421,-4.6849,-4.7313,-4.7754,-4.9167,-5.146,-5.2876,-5.3503,-5.2715,-5.2816,-5.3405,-5.3867,-5.4345,-5.4746,-5.541,-5.5705,-5.5825,-5.5974,-5.6064,-5.599,-5.6107,-5.6256,-5.6615,-5.6974,-5.7334,-5.7962,-5.883,-5.8979,-5.9099,-5.9099,-5.9099,-5.9099,-5.8919,-5.8471,-5.8128,-5.7588,-5.6825,-5.6226,-5.5777,-5.5388,-5.5209,-5.5209,-5.5209,-5.5209,-5.5209,-5.5209,-5.5209,-5.5209,-5.5209,-5.5209,-5.5209,-4.4792,-4.555,-4.6059,-4.6138,-4.5945,-4.6679,-4.7104,-4.6958,-4.7009,-4.7085,-4.6982,-4.6778,-4.6527,-4.6351,-4.6351,-4.6476,-4.6728,-4.6401,-4.6401,-4.6778,-4.6476,-4.6627,-4.6652,-4.6527,-4.6527,-4.6702,-4.6602,-4.6326,-4.6326,-4.6326,-4.6326,-4.6326,-4.6326,-4.6326,-4.6326,-4.6326,-4.6326,-4.6326,-4.6301,-4.6301,-4.6326,-4.6326,-4.6326,-4.6326,-4.6326,-4.6326,-4.6326,-4.6326,-4.6326,-4.6326,-4.6326,-4.6326,-4.6326,-4.6326,-4.6326,-4.6326,-4.6326,-4.6326,-4.6421,-4.6421,-4.6541,-4.6446,-4.6421,-4.6421,-4.6421,-4.6874,-4.7262,-4.7922,-4.9341,-5.1655,-5.3439,-5.3772,-5.3617,-5.4789,-5.5412,-5.5679,-5.6035,-5.6258,-5.6615,-5.6645,-5.6735,-5.6795,-5.6751,-5.7154,-5.7228,-5.7064,-5.7393,-5.7543,-5.7812,-5.8351,-5.9039,-5.9069,-5.9099,-5.9099,-5.9099,-5.9099,-5.9099,-5.883,-5.8667,-5.8444,-5.7648,-5.6795,-5.6226,-5.5837,-5.5478,-5.5209,-5.5209,-5.5209,-5.5209,-5.5209,-5.5209,-5.5209,-5.5209,-5.5209,-5.5209,-4.555,-4.5939,-4.618,-4.6326,-4.6451,-4.7255,-4.7431,-4.7154,-4.7129,-4.7054,-4.6803,-4.6451,-4.6326,-4.6326,-4.6351,-4.6426,-4.6803,-4.6527,-4.6376,-4.6803,-4.6502,-4.6527,-4.6602,-4.6773,-4.6894,-4.6924,-4.6602,-4.6326,-4.6326,-4.6326,-4.6326,-4.6326,-4.6326,-4.6326,-4.6326,-4.6326,-4.6326,-4.6326,-4.6326,-4.6326,-4.6326,-4.6326,-4.6326,-4.6326,-4.6326,-4.6326,-4.6326,-4.6326,-4.6326,-4.6326,-4.6326,-4.6326,-4.6326,-4.6326,-4.6326,-4.6326,-4.6326,-4.6326,-4.6326,-4.678,-4.707,-4.7658,-4.7121,-4.69,-4.7019,-4.7586,-4.7263,-4.7801,-4.9459,-5.1458,-5.3395,-5.3693,-5.4893,-5.599,-5.6496,-5.6765,-5.6944,-5.7064,-5.7094,-5.7184,-5.7423,-5.7483,-5.7693,-5.8128,-5.8474,-5.8308,-5.8171,-5.8231,-5.8261,-5.871,-5.9099,-5.9099,-5.9099,-5.9099,-5.9099,-5.9099,-5.9099,-5.9099,-5.9027,-5.8894,-5.8278,-5.7423,-5.6855,-5.6286,-5.5927,-5.5568,-5.5269,-5.5209,-5.5209,-5.5209,-5.5209,-5.5209,-5.5209,-5.5209,-5.5209,-4.6301,-4.6326,-4.6301,-4.6326,-4.6401,-4.6878,-4.7104,-4.7129,-4.7104,-4.6778,-4.6326,-4.6351,-4.6326,-4.6326,-4.6326,-4.6401,-4.6451,-4.6376,-4.6426,-4.6426,-4.6401,-4.6451,-4.6673,-4.7066,-4.7091,-4.6648,-4.6351,-4.6326,-4.6326,-4.6326,-4.6326,-4.6326,-4.6326,-4.6326,-4.6326,-4.6326,-4.6326,-4.6326,-4.6326,-4.6326,-4.6326,-4.6326,-4.6326,-4.6326,-4.6326,-4.6326,-4.6326,-4.6326,-4.6326,-4.6326,-4.6326,-4.6326,-4.6326,-4.6326,-4.6326,-4.6446,-4.6471,-4.6541,-4.6686,-4.7257,-4.8224,-4.9048,-4.8799,-4.8329,-4.8589,-4.8901,-4.8505,-4.8558,-4.9711,-5.1347,-5.298,-5.4293,-5.5529,-5.6303,-5.6944,-5.7154,-5.7304,-5.7393,-5.7393,-5.7573,-5.7962,-5.8201,-5.856,-5.8997,-5.8984,-5.8877,-5.865,-5.856,-5.862,-5.877,-5.9069,-5.9099,-5.9099,-5.9099,-5.9099,-5.9099,-5.9099,-5.9099,-5.9069,-5.8967,-5.8411,-5.8022,-5.7483,-5.6915,-5.6376,-5.5927,-5.5418,-5.5209,-5.5209,-5.5209,-5.5209,-5.5209,-5.5209,-5.5209,-5.5209,-4.6326,-4.6326,-4.6326,-4.6326,-4.6326,-4.6476,-4.6753,-4.7054,-4.6753,-4.6426,-4.6326,-4.6326,-4.6326,-4.6326,-4.6326,-4.6552,-4.6602,-4.6602,-4.6652,-4.6602,-4.6451,-4.6602,-4.6799,-4.692,-4.7021,-4.7021,-4.6748,-4.6326,-4.6326,-4.6326,-4.6326,-4.6326,-4.6326,-4.6326,-4.6326,-4.6326,-4.6326,-4.6326,-4.6326,-4.6326,-4.6326,-4.6326,-4.6326,-4.6326,-4.6326,-4.6326,-4.6326,-4.6326,-4.6326,-4.6326,-4.6326,-4.6326,-4.6326,-4.6326,-4.6471,-4.7487,-4.7504,-4.7468,-4.7781,-4.889,-5.0024,-5.1075,-5.1359,-5.1665,-5.1637,-5.1189,-5.0357,-5.0286,-5.107,-5.2958,-5.4446,-5.5606,-5.6538,-5.7063,-5.7603,-5.7842,-5.8022,-5.8141,-5.8171,-5.8231,-5.859,-5.865,-5.9069,-5.9069,-5.9087,-5.9069,-5.9069,-5.8919,-5.889,-5.9009,-5.9069,-5.9099,-5.9099,-5.9099,-5.9099,-5.9099,-5.9099,-5.9099,-5.9069,-5.9039,-5.88,-5.8411,-5.8022,-5.7483,-5.6825,-5.6077,-5.5329,-5.5329,-5.5598,-5.5269,-5.5239,-5.5209,-5.5209,-5.5329,-5.5448,-4.6326,-4.6326,-4.6326,-4.6326,-4.6326,-4.6326,-4.6527,-4.6702,-4.6451,-4.6326,-4.6326,-4.6326,-4.6326,-4.6326,-4.6326,-4.6451,-4.6702,-4.6476,-4.6476,-4.6502,-4.6476,-4.6527,-4.6552,-4.6552,-4.6698,-4.6824,-4.6773,-4.6326,-4.6326,-4.6326,-4.6326,-4.6326,-4.6326,-4.6326,-4.6326,-4.6326,-4.6326,-4.6326,-4.6326,-4.6326,-4.6326,-4.6326,-4.6326,-4.6326,-4.6326,-4.6326,-4.6326,-4.6326,-4.6326,-4.6326,-4.6326,-4.6326,-4.6421,-4.6541,-4.8376,-4.9416,-4.9388,-4.9568,-5.0139,-5.1075,-5.2149,-5.3107,-5.4148,-5.488,-5.4571,-5.412,-5.2827,-5.2044,-5.3498,-5.4898,-5.6042,-5.7124,-5.7535,-5.7915,-5.8351,-5.865,-5.883,-5.9009,-5.9039,-5.9039,-5.9069,-5.9039,-5.9099,-5.9099,-5.9099,-5.9099,-5.9099,-5.9069,-5.9009,-5.9069,-5.9099,-5.9099,-5.9099,-5.9099,-5.9099,-5.9099,-5.9099,-5.9099,-5.9099,-5.9069,-5.9009,-5.883,-5.8441,-5.7842,-5.7214,-5.6526,-5.5927,-5.5987,-5.6107,-5.5777,-5.5586,-5.5927,-5.5987,-5.5999,-5.6119,-4.6276,-4.6326,-4.6326,-4.6326,-4.6326,-4.6326,-4.6326,-4.6326,-4.6326,-4.6326,-4.6326,-4.6326,-4.6326,-4.6326,-4.6326,-4.6326,-4.6426,-4.6351,-4.6326,-4.6326,-4.6351,-4.6401,-4.6401,-4.6326,-4.6426,-4.6351,-4.6326,-4.6326,-4.6326,-4.6326,-4.6326,-4.6326,-4.6326,-4.6326,-4.6326,-4.6326,-4.6326,-4.6326,-4.6326,-4.6326,-4.6326,-4.6326,-4.6326,-4.6326,-4.6326,-4.6326,-4.6326,-4.6326,-4.6326,-4.6326,-4.6326,-4.6326,-4.6465,-4.7257,-4.9679,-5.1386,-5.1292,-5.1555,-5.2204,-5.3191,-5.4373,-5.5386,-5.6566,-5.7159,-5.6961,-5.6398,-5.5099,-5.4816,-5.6078,-5.6698,-5.7675,-5.7951,-5.8196,-5.8393,-5.868,-5.889,-5.9009,-5.9099,-5.9099,-5.9099,-5.9099,-5.9099,-5.9099,-5.9099,-5.9099,-5.9099,-5.9099,-5.9099,-5.9099,-5.9099,-5.9099,-5.9099,-5.9099,-5.9099,-5.9099,-5.9099,-5.9099,-5.9099,-5.9099,-5.9099,-5.9069,-5.8949,-5.886,-5.8201,-5.7543,-5.7274,-5.6885,-5.6765,-5.6452,-5.6169,-5.6199,-5.6691,-5.6855,-5.6839,-5.6869,-4.5924,-4.6301,-4.6326,-4.6326,-4.6326,-4.6326,-4.6326,-4.6326,-4.6326,-4.6326,-4.6326,-4.6326,-4.6326,-4.6326,-4.6326,-4.6326,-4.6326,-4.6326,-4.6326,-4.6326,-4.6326,-4.6326,-4.6326,-4.6326,-4.6326,-4.6326,-4.6326,-4.6326,-4.6326,-4.6326,-4.6326,-4.6326,-4.6326,-4.6326,-4.6326,-4.6326,-4.6326,-4.6326,-4.6326,-4.6326,-4.6326,-4.6326,-4.6326,-4.6326,-4.6326,-4.6326,-4.6326,-4.6326,-4.6326,-4.6326,-4.6326,-4.632,-4.6332,-4.7808,-5.0478,-5.3156,-5.3135,-5.3248,-5.4175,-5.5189,-5.6061,-5.6654,-5.7496,-5.8288,-5.8595,-5.8169,-5.7942,-5.7883,-5.8051,-5.8584,-5.8782,-5.8722,-5.8692,-5.889,-5.8979,-5.9039,-5.9099,-5.9099,-5.9099,-5.9099,-5.9099,-5.9099,-5.9099,-5.9099,-5.9099,-5.9099,-5.9099,-5.9099,-5.9099,-5.9099,-5.9099,-5.9099,-5.9099,-5.9099,-5.9099,-5.9099,-5.9099,-5.9099,-5.9099,-5.9099,-5.9099,-5.9039,-5.8919,-5.8441,-5.7932,-5.7752,-5.7513,-5.7124,-5.684,-5.6765,-5.6885,-5.7513,-5.8053,-5.8159,-5.8023,-4.5673,-4.5974,-4.62,-4.6326,-4.6326,-4.6326,-4.6326,-4.6326,-4.6326,-4.6326,-4.6326,-4.6326,-4.6326,-4.6326,-4.6326,-4.6326,-4.6326,-4.6326,-4.6326,-4.6326,-4.6326,-4.6326,-4.6326,-4.6326,-4.6326,-4.6326,-4.6326,-4.6326,-4.6326,-4.6326,-4.6326,-4.6326,-4.6326,-4.6326,-4.6326,-4.6326,-4.6326,-4.6326,-4.6326,-4.6326,-4.6326,-4.6326,-4.6326,-4.6326,-4.6326,-4.6326,-4.6326,-4.6326,-4.6326,-4.6421,-4.6541,-4.6654,-4.7236,-4.8594,-5.1453,-5.3978,-5.4816,-5.4806,-5.6187,-5.7013,-5.7496,-5.8001,-5.8228,-5.8961,-5.8961,-5.8673,-5.8673,-5.8644,-5.8644,-5.9039,-5.9039,-5.8979,-5.8979,-5.9039,-5.9039,-5.9099,-5.9099,-5.9099,-5.9099,-5.9099,-5.9099,-5.9099,-5.9099,-5.9099,-5.9099,-5.9099,-5.9099,-5.9099,-5.9099,-5.9099,-5.9099,-5.9099,-5.9099,-5.9099,-5.9099,-5.9099,-5.9099,-5.9099,-5.9099,-5.9099,-5.9099,-5.9099,-5.8949,-5.865,-5.8471,-5.8471,-5.8171,-5.7812,-5.7932,-5.8005,-5.8141,-5.8308,-5.8821,-5.9138,-5.8804,-4.5347,-4.5547,-4.6075,-4.6326,-4.6326,-4.6326,-4.6326,-4.6326,-4.6326,-4.6326,-4.6326,-4.6326,-4.6326,-4.6326,-4.6326,-4.6326,-4.6326,-4.6326,-4.6326,-4.6326,-4.6326,-4.6326,-4.6326,-4.6326,-4.6326,-4.6326,-4.6326,-4.6326,-4.6326,-4.6326,-4.6326,-4.6326,-4.6326,-4.6326,-4.6326,-4.6326,-4.6326,-4.6326,-4.6326,-4.6326,-4.6326,-4.6326,-4.6326,-4.6326,-4.6326,-4.6326,-4.6326,-4.6326,-4.6326,-4.6907,-4.7266,-4.7508,-4.8195,-4.9508,-5.2378,-5.48,-5.5829,-5.6613,-5.7981,-5.8476,-5.8841,-5.9069,-5.9099,-5.9099,-5.9099,-5.9099,-5.9099,-5.9099,-5.9099,-5.9099,-5.9099,-5.9099,-5.9099,-5.9099,-5.9099,-5.9099,-5.9099,-5.9099,-5.9099,-5.9099,-5.9099,-5.9099,-5.9099,-5.9099,-5.9099,-5.9099,-5.9099,-5.9099,-5.9099,-5.9099,-5.9099,-5.9099,-5.9099,-5.9099,-5.9099,-5.9099,-5.9099,-5.9099,-5.9099,-5.9099,-5.9099,-5.9099,-5.9099,-5.9069,-5.8949,-5.886,-5.889,-5.868,-5.889,-5.8919,-5.88,-5.865,-5.8877,-5.9165,-5.9117,-4.4669,-4.5547,-4.6075,-4.6301,-4.6301,-4.6301,-4.6326,-4.6301,-4.6326,-4.6326,-4.6326,-4.6326,-4.6326,-4.6326,-4.6326,-4.6326,-4.6326,-4.6326,-4.6326,-4.6326,-4.6326,-4.6326,-4.6326,-4.6326,-4.6326,-4.6326,-4.6326,-4.6326,-4.6326,-4.6326,-4.6326,-4.6326,-4.6326,-4.6326,-4.6326,-4.6326,-4.6326,-4.6326,-4.6301,-4.6301,-4.6326,-4.6326,-4.6326,-4.6326,-4.6326,-4.6326,-4.6326,-4.6326,-4.6698,-4.7503,-4.851,-4.8679,-4.9308,-5.0602,-5.3166,-5.4905,-5.5955,-5.709,-5.8065,-5.874,-5.889,-5.9099,-5.9099,-5.9099,-5.9099,-5.9099,-5.9099,-5.9099,-5.9099,-5.9099,-5.9099,-5.9099,-5.9099,-5.9099,-5.9099,-5.9099,-5.9099,-5.9099,-5.9099,-5.9099,-5.9099,-5.9099,-5.9099,-5.9099,-5.9099,-5.9099,-5.9099,-5.9099,-5.9099,-5.9099,-5.9099,-5.9099,-5.9099,-5.9099,-5.9099,-5.9099,-5.9099,-5.9099,-5.9099,-5.9099,-5.9099,-5.9099,-5.9099,-5.9099,-5.9099,-5.9039,-5.9099,-5.9099,-5.9099,-5.9039,-5.9069,-5.9039,-5.9099,-5.9099,-5.9099]},{"header":{"parameterUnit":"m.s-1","parameterCategory":1,"la1":31.0,"la2":29.5877,"lo1":-88.7671,"lo2":-86.6584,"dy":0.0162,"dx":0.0185,"nx":115,"ny":88,"refTime":"2026-05-03T00:00:00:Z","depth":0,"parameterNumber":3,"parameterNumberName":"V-component_of_WINDS"},"data":[0.0,0.0,0.0,0.0,0.0,0.0,0.0,0.0,0.0,0.0,0.0,0.0,0.0,0.0,0.0,0.0,0.0,0.0,0.0,0.0,0.0,0.0,0.0,0.0,0.0,0.0,0.0,0.0,0.0,0.0,0.0,0.0,0.0,0.0,0.0,0.0,0.0,0.0,0.0,0.0,0.0,0.0,0.0,0.0,0.0,0.0,0.0,0.0,0.0,0.0,0.0,0.0,0.0,0.0,0.0,0.0,0.0,0.0,0.0,0.0,0.0,0.0,0.0,0.0,0.0,0.0,0.0,0.0,0.0,0.0,0.0,0.0,0.0,0.0,0.0,0.0,0.0,0.0,0.0,0.0,0.0,0.0,0.0,0.0,0.0,0.0,0.0,0.0,0.0,0.0,0.0,0.0,0.0,0.0,0.0,0.0,0.0,0.0,0.0,0.0,0.0,0.0,0.0,0.0,0.0,0.0,0.0,0.0,0.0,0.0,0.0,0.0,0.0,0.0,0.0,0.0,0.0,0.0,0.0,0.0,0.0,0.0,0.0,0.0,0.0,0.0,0.0,0.0,0.0,0.0,0.0,0.0,0.0,0.0,0.0,0.0,0.0,0.0,0.0,0.0,0.0,0.0,0.0,0.0,0.0,0.0,0.0,0.0,0.0,0.0,0.0,0.0,0.0,0.0,0.0,0.0,0.0,0.0,0.0,0.0,0.0,0.0,0.0,0.0,0.0,0.0,0.0,0.0,0.0,0.0,0.0,0.0,0.0,0.0,0.0,0.0,0.0,0.0,0.0,0.0,0.0,0.0,0.0,0.0,0.0,0.0,0.0,0.0,0.0,0.0,0.0,0.0,0.0,0.0,0.0,0.0,0.0,0.0,0.0,0.0,0.0,0.0,0.0,0.0,0.0,0.0,0.0,0.0,0.0,0.0,0.0,0.0,0.0,0.0,0.0,0.0,0.0,0.0,0.0,0.0,0.0,0.0,0.0,0.0,0.0,0.0,0.0,0.0,0.0,0.0,0.0,0.0,0.0,0.0,0.0,0.0,0.0,0.0,0.0,0.0,0.0,0.0,0.0,0.0,0.0,0.0,0.0,0.0,0.0,0.0,0.0,0.0,0.0,0.0,0.0,0.0,0.0,0.0,0.0,0.0,0.0,0.0,0.0,0.0,0.0,0.0,0.0,0.0,0.0,0.0,0.0,0.0,0.0,0.0,0.0,0.0,0.0,0.0,0.0,0.0,0.0,0.0,0.0,0.0,0.0,0.0,0.0,0.0,0.0,0.0,0.0,0.0,0.0,0.0,0.0,0.0,0.0,0.0,0.0,0.0,0.0,0.0,0.0,0.0,0.0,0.0,0.0,0.0,0.0,0.0,0.0,0.0,0.0,0.0,0.0,0.0,0.0,0.0,0.0,0.0,0.0,0.0,0.0,0.0,0.0,0.0,0.0,0.0,0.0,0.0,0.0,0.0,0.0,0.0,0.0,0.0,0.0,0.0,0.0,0.0,0.0,0.0,0.0,0.0,0.0,0.0,0.0,0.0,0.0,0.0,0.0,0.0,0.0,0.0,0.0,0.0,0.0,0.0,0.0,0.0,0.0,0.0,0.0,0.0,0.0,0.0,0.0,0.0,0.0,0.0,0.0,0.0,0.0,0.0,0.0,0.0,0.0,0.0,0.0,0.0,0.0,0.0,0.0,0.0,0.0,0.0,0.0,0.0,0.0,0.0,0.0,0.0,0.0,0.0,0.0,0.0,0.0,0.0,0.0,0.0,0.0,0.0,0.0,0.0,0.0,0.0,0.0,0.0,0.0,0.0,0.0,0.0,0.0,0.0,0.0,0.0,0.0,0.0,0.0,0.0,0.0,0.0,0.0,0.0,0.0,0.0,0.0,0.0,0.0,0.0,0.0,0.0,0.0,0.0,0.0,0.0,0.0,0.0,0.0,0.0,0.0,0.0,0.0,0.0,0.0,0.0,0.0,0.0,0.0,0.0,0.0,0.0,0.0,0.0,0.0,0.0,0.0,0.0,0.0,0.0,0.0,0.0,0.0,0.0,0.0,0.0,0.0,0.0,0.0,0.0,0.0,0.0,0.0,0.0,0.0,0.0,0.0,0.0,0.0,0.0,0.0,0.0,0.0,0.0,0.0,0.0,0.0,0.0,0.0,0.0,0.0,0.0,0.0,0.0,0.0,0.0,0.0,0.0,0.0,0.0,0.0,0.0,0.0,0.0,0.0,0.0,0.0,0.0,0.0,0.0,0.0,0.0,0.0,0.0,0.0,0.0,0.0,0.0,0.0,0.0,0.0,0.0,0.0,0.0,0.0,0.0,0.0,0.0,0.0,0.0,0.0,0.0,0.0,0.0,0.0,0.0,0.0,0.0,0.0,0.0,0.0,0.0,0.0,0.0,0.0,0.0,0.0,0.0,0.0,0.0,0.0,0.0,0.0,0.0,0.0,0.0,0.0,0.0,0.0,0.0,0.0,0.0,0.0,0.0,0.0,0.0,0.0,0.0,0.0,0.0,0.0,0.0,0.0,0.0,0.0,0.0,0.0,0.0,0.0,0.0,0.0,0.0,0.0,0.0,0.0,0.0,0.0,0.0,0.0,0.0,0.0,0.0,0.0,0.0,0.0,0.0,0.0,0.0,0.0,0.0,0.0,0.0,0.0,0.0,0.0,0.0,0.0,0.0,0.0,0.0,0.0,0.0,0.0,0.0,0.0,0.0,0.0,0.0,0.0,0.0,0.0,0.0,0.0,0.0,0.0,0.0,0.0,0.0,0.0,0.0,0.0,0.0,0.0,0.0,0.0,0.0,0.0,0.0,0.0,0.0,0.0,0.0,0.0,0.0,0.0,0.0,0.0,0.0,0.0,0.0,0.0,0.0,0.0,0.0,0.0,0.0,0.0,0.0,0.0,0.0,0.0,0.0,0.0,0.0,0.0,0.0,0.0,0.0,0.0,0.0,0.0,0.0,0.0,0.0,0.0,0.0,0.0,0.0,0.0,0.0,0.0,0.0,0.0,0.0,0.0,0.0,0.0,0.0,0.0,0.0,0.0,0.0,0.0,0.0,0.0,0.0,0.0,0.0,0.0,0.0,0.0,0.0,0.0,0.0,0.0,0.0,0.0,0.0,0.0,0.0,0.0,0.0,0.0,0.0,0.0,0.0,0.0,0.0,0.0,0.0,0.0,0.0,0.0,0.0,0.0,0.0,0.0,0.0,0.0,0.0,0.0,0.0,0.0,0.0,0.0,0.0,0.0,0.0,0.0,0.0,0.0,0.0,0.0,0.0,0.0,0.0,0.0,0.0,0.0,0.0,0.0,0.0,0.0,0.0,0.0,0.0,0.0,0.0,0.0,0.0,0.0,0.0,0.0,0.0,0.0,0.0,0.0,0.0,0.0,0.0,0.0,0.0,0.0,0.0,0.0,0.0,0.0,0.0,0.0,0.0,0.0,0.0,0.0,0.0,0.0,0.0,0.0,0.0,0.0,0.0,0.0,0.0,0.0,0.0,0.0,0.0,0.0,0.0,0.0,0.0,0.0,0.0,0.0,0.0,0.0,0.0,0.0,0.0,0.0,0.0,0.0,0.0,0.0,0.0,0.0,0.0,0.0,0.0,0.0,0.0,0.0,0.0,0.0,0.0,0.0,0.0,0.0,0.0,0.0,0.0,0.0,0.0,0.0,0.0,0.0,0.0,0.0,0.0,0.0,0.0,0.0,0.0,0.0,0.0,0.0,0.0,0.0,0.0,0.0,0.0,0.0,0.0,0.0,0.0,0.0,0.0,0.0,0.0,0.0,0.0,0.0,0.0,0.0,0.0,0.0,0.0,0.0,0.0,0.0,0.0,0.0,0.0,0.0,0.0,0.0,0.0,0.0,0.0,0.0,0.0,0.0,0.0,0.0,0.0,0.0,0.0,0.0,0.0,0.0,0.0,0.0,0.0,0.0,0.0,0.0,0.0,0.0,0.0,0.0,0.0,0.0,0.0,0.0,0.0,0.0,0.0,0.0,0.0,0.0,0.0,0.0,0.0,0.0,0.0,0.0,0.0,0.0,0.0,0.0,0.0,0.0,0.0,0.0,0.0,0.0,0.0,0.0,0.0,0.0,0.0,0.0,0.0,0.0,0.0,0.0,0.0,0.0,0.0,0.0,0.0,0.0,0.0,0.0,0.0,0.0,0.0,0.0,0.0,0.0,0.0,0.0,0.0,0.0,0.0,0.0,0.0,0.0,0.0,0.0,0.0,0.0,0.0,0.0,0.0,0.0,0.0,-4.7589,0.0,0.0,0.0,0.0,0.0,0.0,0.0,0.0,0.0,0.0,0.0,0.0,0.0,0.0,0.0,0.0,0.0,0.0,0.0,0.0,0.0,0.0,0.0,0.0,0.0,0.0,0.0,0.0,0.0,0.0,0.0,0.0,0.0,0.0,0.0,0.0,0.0,0.0,0.0,0.0,0.0,0.0,0.0,0.0,0.0,0.0,0.0,0.0,0.0,0.0,0.0,0.0,0.0,0.0,0.0,0.0,0.0,0.0,0.0,0.0,0.0,0.0,0.0,0.0,0.0,0.0,0.0,0.0,0.0,0.0,0.0,0.0,0.0,0.0,0.0,0.0,0.0,0.0,0.0,0.0,0.0,0.0,0.0,0.0,0.0,0.0,0.0,0.0,0.0,0.0,0.0,0.0,0.0,0.0,0.0,0.0,0.0,0.0,0.0,0.0,0.0,0.0,0.0,0.0,0.0,0.0,0.0,0.0,0.0,0.0,-5.1119,-5.0349,-4.8938,-4.7842,-4.7101,0.0,0.0,0.0,0.0,0.0,0.0,0.0,0.0,0.0,0.0,0.0,0.0,0.0,0.0,0.0,0.0,0.0,0.0,0.0,0.0,0.0,0.0,0.0,0.0,0.0,0.0,0.0,0.0,0.0,0.0,0.0,0.0,0.0,0.0,0.0,0.0,0.0,0.0,0.0,0.0,0.0,0.0,0.0,0.0,0.0,0.0,0.0,0.0,0.0,0.0,0.0,0.0,0.0,0.0,0.0,0.0,0.0,0.0,0.0,0.0,0.0,0.0,0.0,0.0,0.0,0.0,0.0,0.0,0.0,0.0,0.0,0.0,0.0,0.0,0.0,0.0,0.0,0.0,0.0,0.0,0.0,0.0,0.0,0.0,0.0,0.0,0.0,0.0,0.0,0.0,0.0,0.0,0.0,0.0,0.0,0.0,0.0,0.0,0.0,0.0,0.0,0.0,0.0,0.0,0.0,0.0,0.0,0.0,0.0,0.0,0.0,0.0,-4.8778,-4.7489,-4.669,0.0,0.0,0.0,0.0,0.0,0.0,0.0,0.0,0.0,0.0,0.0,0.0,0.0,0.0,0.0,0.0,0.0,0.0,0.0,0.0,0.0,0.0,0.0,0.0,0.0,0.0,0.0,0.0,0.0,0.0,0.0,0.0,0.0,0.0,0.0,0.0,0.0,0.0,0.0,0.0,0.0,0.0,0.0,0.0,0.0,0.0,0.0,0.0,0.0,0.0,0.0,0.0,0.0,0.0,0.0,0.0,0.0,0.0,0.0,0.0,0.0,0.0,0.0,0.0,0.0,0.0,0.0,0.0,0.0,0.0,0.0,0.0,0.0,0.0,0.0,0.0,0.0,0.0,0.0,0.0,0.0,0.0,0.0,0.0,0.0,0.0,0.0,0.0,0.0,0.0,0.0,0.0,0.0,0.0,0.0,0.0,0.0,0.0,0.0,0.0,0.0,0.0,0.0,0.0,0.0,0.0,0.0,0.0,0.0,0.0,-5.1615,-5.1598,-5.0,0.0,-4.6481,0.0,0.0,0.0,0.0,0.0,0.0,0.0,0.0,0.0,0.0,0.0,0.0,0.0,0.0,0.0,0.0,0.0,0.0,0.0,0.0,0.0,0.0,0.0,0.0,0.0,0.0,0.0,0.0,0.0,0.0,0.0,0.0,0.0,0.0,0.0,0.0,0.0,0.0,0.0,0.0,0.0,0.0,0.0,0.0,0.0,0.0,0.0,0.0,0.0,0.0,0.0,0.0,0.0,0.0,0.0,0.0,0.0,0.0,0.0,0.0,0.0,0.0,0.0,0.0,0.0,0.0,0.0,0.0,0.0,0.0,0.0,0.0,0.0,0.0,0.0,0.0,0.0,0.0,0.0,0.0,0.0,0.0,0.0,0.0,0.0,0.0,0.0,0.0,0.0,0.0,0.0,0.0,0.0,0.0,0.0,0.0,0.0,0.0,0.0,0.0,0.0,0.0,0.0,0.0,0.0,0.0,0.0,0.0,0.0,0.0,-5.2571,-5.278,-5.1246,-4.9118,0.0,0.0,0.0,0.0,0.0,0.0,0.0,0.0,0.0,0.0,0.0,0.0,0.0,0.0,0.0,0.0,0.0,0.0,0.0,0.0,0.0,0.0,0.0,0.0,0.0,0.0,0.0,0.0,0.0,0.0,0.0,0.0,0.0,0.0,0.0,0.0,0.0,0.0,0.0,0.0,0.0,0.0,0.0,0.0,0.0,0.0,0.0,0.0,0.0,0.0,0.0,0.0,0.0,0.0,0.0,0.0,0.0,0.0,0.0,0.0,0.0,0.0,0.0,0.0,0.0,0.0,0.0,0.0,0.0,0.0,0.0,0.0,0.0,0.0,0.0,0.0,0.0,0.0,0.0,0.0,0.0,0.0,0.0,0.0,0.0,0.0,0.0,0.0,0.0,0.0,0.0,0.0,0.0,0.0,0.0,0.0,0.0,0.0,0.0,0.0,0.0,0.0,0.0,0.0,0.0,0.0,0.0,0.0,0.0,0.0,-5.2519,-5.2745,-5.2839,-5.1811,-4.9725,-4.652,0.0,0.0,0.0,0.0,0.0,0.0,0.0,0.0,0.0,0.0,0.0,0.0,0.0,0.0,0.0,0.0,0.0,0.0,0.0,0.0,0.0,0.0,0.0,0.0,0.0,0.0,0.0,0.0,0.0,0.0,0.0,0.0,0.0,0.0,0.0,0.0,0.0,0.0,0.0,0.0,0.0,0.0,0.0,0.0,0.0,0.0,0.0,0.0,0.0,0.0,0.0,0.0,0.0,0.0,0.0,0.0,0.0,0.0,0.0,0.0,0.0,0.0,0.0,0.0,0.0,0.0,0.0,0.0,0.0,0.0,0.0,0.0,0.0,0.0,0.0,0.0,0.0,0.0,0.0,0.0,0.0,0.0,0.0,0.0,0.0,0.0,0.0,0.0,0.0,0.0,0.0,0.0,0.0,0.0,0.0,0.0,0.0,0.0,0.0,0.0,0.0,0.0,0.0,0.0,0.0,0.0,0.0,0.0,0.0,-5.2004,-5.1794,-5.144,-5.1298,-4.9976,0.0,0.0,0.0,0.0,0.0,0.0,0.0,0.0,0.0,0.0,0.0,0.0,0.0,0.0,0.0,0.0,0.0,0.0,0.0,0.0,0.0,0.0,0.0,0.0,0.0,0.0,0.0,0.0,0.0,0.0,0.0,0.0,0.0,0.0,0.0,0.0,0.0,0.0,0.0,0.0,0.0,0.0,0.0,0.0,0.0,0.0,0.0,0.0,0.0,0.0,0.0,0.0,0.0,0.0,0.0,0.0,0.0,0.0,0.0,0.0,0.0,0.0,0.0,0.0,0.0,0.0,0.0,0.0,0.0,0.0,0.0,0.0,0.0,0.0,0.0,0.0,0.0,0.0,0.0,0.0,0.0,0.0,0.0,0.0,0.0,0.0,0.0,0.0,0.0,0.0,0.0,0.0,0.0,0.0,0.0,0.0,0.0,0.0,0.0,0.0,0.0,0.0,0.0,0.0,0.0,0.0,0.0,0.0,0.0,-5.1427,-5.1932,-5.1917,-5.1228,-5.0783,-4.9053,0.0,0.0,0.0,0.0,0.0,0.0,0.0,0.0,0.0,0.0,0.0,0.0,0.0,0.0,0.0,0.0,0.0,0.0,0.0,0.0,0.0,0.0,0.0,0.0,0.0,0.0,0.0,0.0,0.0,0.0,0.0,0.0,0.0,0.0,0.0,0.0,0.0,0.0,0.0,0.0,0.0,0.0,0.0,0.0,0.0,0.0,0.0,0.0,0.0,0.0,0.0,0.0,0.0,0.0,0.0,0.0,0.0,0.0,0.0,0.0,0.0,0.0,0.0,0.0,0.0,0.0,0.0,0.0,0.0,0.0,0.0,0.0,0.0,0.0,0.0,0.0,0.0,0.0,0.0,0.0,0.0,0.0,0.0,0.0,0.0,0.0,0.0,0.0,0.0,0.0,0.0,0.0,0.0,0.0,0.0,0.0,0.0,0.0,0.0,0.0,0.0,0.0,0.0,0.0,0.0,0.0,0.0,0.0,0.0,-5.1551,0.0,-5.2501,0.0,-5.0594,-4.8729,0.0,0.0,0.0,0.0,0.0,0.0,0.0,0.0,0.0,0.0,0.0,0.0,0.0,0.0,0.0,0.0,0.0,0.0,0.0,0.0,0.0,0.0,0.0,0.0,0.0,0.0,0.0,0.0,0.0,0.0,0.0,0.0,0.0,0.0,0.0,0.0,0.0,0.0,0.0,0.0,0.0,0.0,0.0,0.0,0.0,0.0,0.0,0.0,0.0,0.0,0.0,0.0,0.0,0.0,0.0,0.0,0.0,0.0,0.0,0.0,0.0,0.0,0.0,0.0,0.0,0.0,0.0,0.0,0.0,0.0,0.0,0.0,0.0,0.0,0.0,0.0,0.0,0.0,0.0,0.0,0.0,0.0,0.0,0.0,0.0,0.0,0.0,0.0,0.0,0.0,0.0,0.0,0.0,0.0,0.0,0.0,0.0,0.0,0.0,0.0,0.0,0.0,0.0,0.0,0.0,0.0,0.0,0.0,-5.2753,-5.2661,-5.3676,-5.3334,-5.1581,-5.0711,-4.9084,0.0,0.0,0.0,0.0,0.0,0.0,0.0,0.0,0.0,0.0,0.0,0.0,0.0,0.0,0.0,0.0,0.0,0.0,0.0,0.0,0.0,0.0,0.0,0.0,0.0,0.0,0.0,0.0,0.0,0.0,0.0,0.0,0.0,0.0,0.0,0.0,0.0,0.0,0.0,0.0,0.0,0.0,0.0,0.0,0.0,0.0,0.0,0.0,0.0,0.0,0.0,0.0,0.0,0.0,0.0,0.0,0.0,0.0,0.0,0.0,0.0,0.0,0.0,0.0,0.0,0.0,0.0,0.0,0.0,0.0,0.0,0.0,0.0,0.0,0.0,0.0,0.0,0.0,0.0,0.0,0.0,0.0,0.0,0.0,0.0,0.0,0.0,0.0,0.0,0.0,0.0,0.0,0.0,0.0,0.0,0.0,0.0,0.0,0.0,0.0,0.0,0.0,0.0,0.0,0.0,0.0,0.0,0.0,0.0,-5.4156,-5.4339,-5.3324,-5.1114,-4.9487,-4.7602,0.0,0.0,0.0,0.0,0.0,0.0,0.0,0.0,0.0,0.0,0.0,0.0,0.0,0.0,0.0,0.0,0.0,0.0,0.0,0.0,0.0,0.0,0.0,0.0,0.0,0.0,0.0,0.0,0.0,0.0,0.0,0.0,0.0,0.0,0.0,0.0,0.0,0.0,0.0,0.0,0.0,0.0,0.0,0.0,0.0,0.0,0.0,0.0,0.0,0.0,0.0,0.0,0.0,0.0,0.0,0.0,0.0,0.0,0.0,0.0,0.0,0.0,0.0,0.0,0.0,0.0,0.0,0.0,0.0,0.0,0.0,0.0,0.0,0.0,0.0,0.0,0.0,0.0,0.0,0.0,0.0,0.0,0.0,0.0,0.0,0.0,0.0,0.0,0.0,0.0,0.0,0.0,0.0,0.0,0.0,0.0,0.0,0.0,0.0,0.0,0.0,0.0,0.0,0.0,0.0,0.0,0.0,0.0,0.0,-5.7361,-5.7017,-5.5678,-5.319,-5.1104,-4.8951,-4.6718,0.0,0.0,0.0,0.0,0.0,0.0,0.0,0.0,0.0,0.0,0.0,0.0,0.0,0.0,0.0,0.0,0.0,0.0,0.0,0.0,0.0,0.0,0.0,0.0,0.0,0.0,0.0,0.0,0.0,0.0,0.0,0.0,0.0,0.0,0.0,0.0,0.0,0.0,0.0,0.0,0.0,0.0,0.0,0.0,0.0,0.0,0.0,0.0,0.0,0.0,0.0,0.0,0.0,0.0,0.0,0.0,0.0,0.0,0.0,0.0,0.0,0.0,0.0,0.0,0.0,0.0,0.0,0.0,0.0,0.0,0.0,0.0,0.0,0.0,0.0,0.0,0.0,0.0,0.0,0.0,0.0,0.0,0.0,0.0,0.0,0.0,0.0,0.0,0.0,0.0,0.0,0.0,0.0,0.0,0.0,0.0,0.0,0.0,0.0,0.0,0.0,0.0,0.0,0.0,0.0,0.0,0.0,0.0,-6.1958,-6.1576,-6.0096,-5.7287,-5.4872,-5.257,0.0,0.0,0.0,0.0,0.0,0.0,0.0,0.0,0.0,0.0,0.0,0.0,0.0,0.0,0.0,0.0,0.0,0.0,0.0,0.0,0.0,0.0,0.0,0.0,0.0,0.0,0.0,0.0,0.0,0.0,0.0,0.0,0.0,0.0,0.0,0.0,0.0,0.0,0.0,0.0,0.0,0.0,0.0,0.0,0.0,0.0,0.0,0.0,0.0,0.0,0.0,0.0,0.0,0.0,0.0,0.0,0.0,0.0,0.0,0.0,0.0,0.0,0.0,0.0,0.0,0.0,0.0,0.0,0.0,0.0,0.0,0.0,0.0,0.0,0.0,0.0,0.0,0.0,0.0,0.0,0.0,0.0,0.0,0.0,0.0,0.0,0.0,0.0,0.0,0.0,0.0,0.0,0.0,0.0,0.0,0.0,0.0,0.0,0.0,0.0,0.0,0.0,0.0,0.0,0.0,0.0,0.0,0.0,0.0,-6.4927,-6.6826,-6.5047,-5.9546,-5.7103,-5.4363,0.0,0.0,0.0,0.0,0.0,0.0,0.0,0.0,0.0,0.0,0.0,0.0,0.0,0.0,0.0,0.0,0.0,0.0,0.0,0.0,0.0,0.0,0.0,0.0,0.0,0.0,0.0,0.0,0.0,0.0,0.0,0.0,0.0,0.0,0.0,0.0,0.0,0.0,0.0,0.0,0.0,0.0,0.0,0.0,0.0,0.0,0.0,0.0,0.0,0.0,0.0,0.0,0.0,0.0,0.0,0.0,0.0,0.0,0.0,0.0,0.0,0.0,0.0,0.0,0.0,0.0,0.0,0.0,0.0,0.0,0.0,0.0,0.0,0.0,0.0,0.0,0.0,0.0,0.0,0.0,0.0,0.0,0.0,0.0,0.0,0.0,0.0,0.0,0.0,0.0,0.0,0.0,0.0,0.0,0.0,0.0,0.0,0.0,0.0,0.0,0.0,0.0,0.0,0.0,0.0,0.0,0.0,0.0,-6.3205,-6.7128,-7.0362,-6.9586,-6.4444,-6.096,-5.7408,0.0,0.0,0.0,0.0,0.0,0.0,0.0,0.0,0.0,0.0,0.0,0.0,0.0,0.0,0.0,0.0,0.0,0.0,0.0,0.0,0.0,0.0,0.0,0.0,0.0,0.0,0.0,0.0,0.0,0.0,0.0,0.0,0.0,0.0,0.0,0.0,0.0,0.0,0.0,0.0,0.0,0.0,0.0,0.0,0.0,0.0,0.0,0.0,0.0,0.0,0.0,0.0,0.0,0.0,0.0,0.0,0.0,0.0,0.0,0.0,0.0,0.0,0.0,0.0,0.0,0.0,0.0,0.0,0.0,0.0,0.0,0.0,0.0,0.0,0.0,0.0,0.0,0.0,0.0,0.0,0.0,0.0,0.0,0.0,0.0,0.0,0.0,0.0,0.0,0.0,0.0,0.0,0.0,0.0,0.0,0.0,0.0,0.0,0.0,0.0,0.0,0.0,0.0,0.0,0.0,0.0,0.0,0.0,-6.5268,-6.8725,-7.258,-7.3274,-7.0398,-6.5493,-6.1061,0.0,0.0,0.0,0.0,0.0,0.0,0.0,0.0,0.0,0.0,0.0,0.0,0.0,0.0,0.0,0.0,0.0,0.0,0.0,0.0,0.0,0.0,0.0,0.0,0.0,0.0,0.0,0.0,0.0,0.0,0.0,0.0,0.0,0.0,0.0,0.0,0.0,0.0,0.0,0.0,0.0,0.0,0.0,0.0,0.0,0.0,0.0,0.0,0.0,0.0,0.0,0.0,0.0,0.0,0.0,0.0,0.0,0.0,0.0,0.0,0.0,0.0,0.0,0.0,0.0,0.0,0.0,0.0,0.0,0.0,0.0,0.0,0.0,0.0,0.0,0.0,0.0,0.0,0.0,0.0,0.0,0.0,0.0,0.0,0.0,0.0,0.0,0.0,0.0,0.0,0.0,0.0,0.0,0.0,0.0,0.0,0.0,0.0,0.0,0.0,0.0,0.0,0.0,0.0,0.0,0.0,0.0,0.0,-6.6878,-7.0288,-7.3126,-7.3747,-7.1988,-6.7996,-6.3835,0.0,0.0,0.0,0.0,0.0,0.0,0.0,0.0,0.0,0.0,0.0,0.0,0.0,0.0,0.0,0.0,0.0,0.0,0.0,0.0,0.0,0.0,0.0,0.0,0.0,0.0,0.0,0.0,0.0,0.0,0.0,0.0,0.0,0.0,0.0,0.0,0.0,0.0,0.0,0.0,0.0,0.0,0.0,0.0,0.0,0.0,0.0,0.0,-4.5514,0.0,0.0,0.0,0.0,0.0,0.0,0.0,0.0,0.0,0.0,0.0,0.0,0.0,0.0,0.0,0.0,0.0,0.0,0.0,0.0,0.0,0.0,0.0,0.0,0.0,0.0,0.0,0.0,0.0,0.0,0.0,0.0,0.0,0.0,0.0,0.0,0.0,0.0,0.0,0.0,0.0,0.0,0.0,0.0,0.0,0.0,0.0,0.0,0.0,0.0,0.0,0.0,0.0,0.0,0.0,0.0,0.0,0.0,0.0,-6.8877,-7.1816,-7.4355,-7.4965,-7.3443,-7.1176,-6.7184,0.0,0.0,0.0,0.0,0.0,0.0,0.0,0.0,0.0,0.0,0.0,0.0,0.0,0.0,0.0,0.0,0.0,0.0,0.0,0.0,0.0,0.0,0.0,0.0,0.0,0.0,0.0,0.0,0.0,0.0,0.0,0.0,0.0,0.0,0.0,0.0,0.0,0.0,0.0,0.0,0.0,0.0,0.0,0.0,0.0,0.0,0.0,0.0,0.0,0.0,0.0,0.0,0.0,0.0,0.0,0.0,0.0,0.0,0.0,0.0,0.0,0.0,0.0,0.0,0.0,0.0,0.0,0.0,0.0,0.0,0.0,0.0,0.0,0.0,0.0,0.0,0.0,0.0,0.0,0.0,0.0,0.0,0.0,0.0,0.0,0.0,0.0,0.0,0.0,0.0,0.0,0.0,0.0,0.0,0.0,0.0,0.0,0.0,0.0,0.0,0.0,0.0,0.0,0.0,0.0,0.0,0.0,-6.7046,-7.0727,-7.3157,-7.5515,-7.5912,-7.4322,-7.3443,-6.9654,-6.2651,0.0,0.0,0.0,0.0,0.0,0.0,0.0,0.0,0.0,0.0,0.0,0.0,0.0,0.0,0.0,0.0,0.0,0.0,0.0,0.0,0.0,0.0,0.0,0.0,0.0,0.0,0.0,0.0,0.0,0.0,0.0,0.0,0.0,0.0,0.0,0.0,0.0,0.0,-4.0153,-4.2713,0.0,0.0,0.0,0.0,0.0,0.0,0.0,0.0,-4.3348,0.0,0.0,0.0,0.0,0.0,0.0,0.0,0.0,0.0,0.0,0.0,0.0,0.0,0.0,0.0,0.0,0.0,0.0,0.0,0.0,0.0,0.0,0.0,0.0,0.0,0.0,0.0,0.0,0.0,0.0,0.0,0.0,0.0,0.0,0.0,0.0,0.0,0.0,0.0,0.0,0.0,0.0,0.0,0.0,0.0,0.0,0.0,0.0,0.0,0.0,0.0,0.0,0.0,0.0,0.0,0.0,-6.3095,-6.8223,-7.1778,-7.3533,-7.5058,-7.4897,-7.2834,-7.1447,-6.8098,-6.2685,0.0,0.0,0.0,0.0,0.0,0.0,0.0,0.0,0.0,0.0,0.0,0.0,0.0,0.0,0.0,0.0,0.0,0.0,0.0,0.0,0.0,0.0,0.0,0.0,0.0,0.0,0.0,0.0,0.0,0.0,0.0,0.0,0.0,0.0,0.0,0.0,0.0,0.0,0.0,-4.4923,-4.5963,0.0,0.0,0.0,0.0,0.0,0.0,0.0,0.0,-4.3539,0.0,0.0,0.0,0.0,0.0,0.0,0.0,0.0,0.0,0.0,0.0,0.0,0.0,0.0,0.0,0.0,0.0,0.0,0.0,0.0,0.0,0.0,0.0,0.0,0.0,0.0,0.0,0.0,0.0,0.0,0.0,0.0,0.0,0.0,0.0,0.0,0.0,0.0,0.0,0.0,0.0,0.0,0.0,0.0,0.0,0.0,0.0,0.0,0.0,0.0,0.0,0.0,0.0,0.0,0.0,-6.4266,-6.9788,-7.3074,-7.41,-7.551,-7.5067,-7.2496,-7.0601,-6.7184,0.0,0.0,0.0,0.0,0.0,0.0,0.0,0.0,0.0,0.0,0.0,0.0,0.0,0.0,0.0,0.0,0.0,0.0,0.0,0.0,0.0,0.0,0.0,0.0,0.0,0.0,0.0,0.0,0.0,0.0,0.0,0.0,0.0,0.0,0.0,0.0,0.0,0.0,0.0,0.0,-4.7369,-4.8626,-4.7938,0.0,0.0,0.0,0.0,0.0,0.0,-4.4609,-4.4285,0.0,0.0,0.0,0.0,0.0,0.0,0.0,0.0,0.0,0.0,0.0,0.0,0.0,0.0,0.0,0.0,0.0,0.0,0.0,0.0,0.0,0.0,0.0,0.0,0.0,0.0,0.0,0.0,0.0,0.0,0.0,0.0,0.0,0.0,0.0,0.0,0.0,0.0,0.0,0.0,0.0,0.0,0.0,0.0,0.0,0.0,0.0,0.0,0.0,0.0,0.0,0.0,0.0,0.0,0.0,-6.4972,-7.0575,-7.3723,-7.4145,-7.562,-7.4931,-7.1853,-6.9722,-6.6102,0.0,0.0,0.0,0.0,0.0,0.0,0.0,0.0,0.0,0.0,0.0,0.0,0.0,0.0,0.0,0.0,0.0,0.0,0.0,0.0,0.0,0.0,0.0,0.0,0.0,0.0,0.0,0.0,0.0,0.0,0.0,0.0,0.0,0.0,0.0,0.0,0.0,0.0,0.0,0.0,0.0,-5.084,-4.9793,-4.9194,0.0,0.0,0.0,0.0,-4.6112,-4.6297,0.0,0.0,0.0,0.0,0.0,0.0,0.0,0.0,0.0,0.0,0.0,0.0,0.0,0.0,0.0,0.0,0.0,0.0,0.0,0.0,0.0,0.0,0.0,0.0,0.0,0.0,0.0,0.0,0.0,0.0,0.0,0.0,0.0,0.0,0.0,0.0,0.0,0.0,0.0,0.0,0.0,0.0,0.0,0.0,0.0,0.0,0.0,0.0,0.0,0.0,0.0,0.0,0.0,0.0,0.0,0.0,-6.4428,-6.9727,-7.2517,-7.2948,-7.4145,-7.3138,-6.9586,-6.7929,-6.4309,0.0,0.0,0.0,0.0,0.0,0.0,0.0,0.0,0.0,0.0,0.0,0.0,0.0,0.0,0.0,0.0,0.0,0.0,0.0,0.0,0.0,0.0,0.0,0.0,0.0,0.0,0.0,0.0,0.0,0.0,0.0,0.0,0.0,0.0,0.0,0.0,0.0,0.0,0.0,0.0,0.0,-5.1169,-5.102,-5.093,-5.0601,0.0,0.0,-4.9464,-4.8895,-4.9824,0.0,0.0,0.0,0.0,0.0,0.0,0.0,0.0,0.0,0.0,0.0,0.0,0.0,0.0,0.0,0.0,0.0,0.0,0.0,0.0,0.0,0.0,0.0,0.0,0.0,0.0,0.0,0.0,0.0,0.0,0.0,0.0,0.0,0.0,0.0,0.0,0.0,0.0,0.0,0.0,0.0,0.0,0.0,0.0,0.0,0.0,0.0,0.0,0.0,0.0,0.0,0.0,0.0,0.0,0.0,-5.8843,-6.4041,-6.9125,-7.2008,-7.2576,-7.3501,-7.2428,-6.918,-6.6812,-6.3159,0.0,0.0,0.0,0.0,0.0,0.0,0.0,0.0,0.0,0.0,0.0,0.0,0.0,0.0,0.0,0.0,0.0,0.0,0.0,0.0,0.0,0.0,0.0,0.0,0.0,0.0,0.0,0.0,0.0,0.0,0.0,0.0,0.0,0.0,0.0,0.0,0.0,0.0,0.0,0.0,0.0,0.0,-5.2875,-5.2905,0.0,0.0,0.0,-5.2636,-5.3114,0.0,0.0,0.0,0.0,0.0,0.0,0.0,0.0,0.0,0.0,0.0,0.0,0.0,0.0,0.0,0.0,0.0,0.0,0.0,0.0,0.0,0.0,0.0,0.0,0.0,0.0,0.0,0.0,0.0,0.0,0.0,0.0,0.0,0.0,0.0,0.0,0.0,0.0,0.0,0.0,0.0,0.0,0.0,0.0,0.0,0.0,0.0,0.0,0.0,0.0,0.0,0.0,0.0,0.0,0.0,0.0,0.0,-6.3681,-6.8538,-7.1379,-7.2124,-7.2665,-7.1616,-6.8876,-6.6068,0.0,0.0,0.0,0.0,0.0,0.0,0.0,0.0,0.0,0.0,0.0,0.0,0.0,0.0,0.0,0.0,0.0,0.0,0.0,0.0,0.0,0.0,0.0,0.0,0.0,0.0,0.0,-3.5637,0.0,0.0,0.0,0.0,0.0,0.0,0.0,0.0,0.0,0.0,0.0,0.0,0.0,0.0,-5.3743,-5.4581,-5.5119,-5.5598,0.0,0.0,-5.5718,-5.6526,-5.6704,-5.5634,0.0,0.0,0.0,0.0,0.0,0.0,0.0,0.0,0.0,0.0,0.0,0.0,0.0,0.0,0.0,0.0,0.0,0.0,0.0,0.0,0.0,0.0,0.0,0.0,0.0,0.0,0.0,0.0,0.0,0.0,0.0,0.0,0.0,0.0,0.0,0.0,0.0,0.0,0.0,0.0,0.0,0.0,0.0,0.0,0.0,0.0,0.0,0.0,0.0,0.0,0.0,0.0,0.0,0.0,0.0,-6.3314,-6.7978,-7.0635,-7.1345,-7.1447,-7.0331,-6.803,-6.5797,-6.2178,0.0,0.0,0.0,0.0,0.0,0.0,0.0,0.0,0.0,0.0,0.0,0.0,0.0,0.0,0.0,0.0,0.0,0.0,0.0,0.0,0.0,0.0,0.0,0.0,0.0,0.0,0.0,0.0,0.0,0.0,0.0,0.0,0.0,0.0,0.0,0.0,0.0,0.0,0.0,0.0,0.0,-5.461,-5.5867,-5.7603,-5.88,0.0,0.0,-5.859,-5.8082,-5.7974,-5.6654,-5.283,0.0,0.0,0.0,0.0,0.0,0.0,0.0,0.0,0.0,0.0,0.0,0.0,0.0,0.0,0.0,0.0,0.0,0.0,0.0,0.0,0.0,0.0,0.0,0.0,0.0,0.0,0.0,0.0,0.0,0.0,0.0,0.0,0.0,0.0,0.0,0.0,0.0,0.0,0.0,0.0,0.0,0.0,0.0,0.0,0.0,0.0,0.0,0.0,0.0,0.0,0.0,0.0,0.0,-5.6184,-6.1826,-6.6923,-6.9877,-7.0567,-7.0601,-6.9722,-6.7929,-6.617,-6.2821,0.0,0.0,0.0,0.0,0.0,0.0,0.0,0.0,0.0,0.0,0.0,0.0,0.0,0.0,0.0,0.0,0.0,0.0,0.0,0.0,0.0,0.0,0.0,0.0,0.0,0.0,0.0,0.0,-3.6537,-3.6686,-3.6686,0.0,0.0,0.0,0.0,0.0,0.0,0.0,0.0,0.0,0.0,-5.5119,-5.7603,-5.9668,0.0,0.0,-6.1553,-6.1313,-6.0685,-5.9526,-5.7611,-5.4529,-5.0276,0.0,0.0,0.0,0.0,0.0,0.0,0.0,0.0,0.0,0.0,0.0,0.0,0.0,0.0,0.0,0.0,0.0,0.0,0.0,0.0,0.0,0.0,0.0,0.0,0.0,0.0,0.0,0.0,0.0,0.0,0.0,0.0,0.0,0.0,0.0,0.0,0.0,0.0,0.0,0.0,0.0,0.0,0.0,0.0,0.0,0.0,0.0,0.0,0.0,0.0,0.0,0.0,-5.5135,-6.0677,-6.582,-6.8861,-6.9823,-6.96,-6.8857,-6.759,-6.6136,-6.3024,0.0,0.0,0.0,0.0,0.0,0.0,0.0,0.0,0.0,0.0,0.0,0.0,0.0,0.0,0.0,0.0,0.0,0.0,0.0,0.0,0.0,0.0,0.0,0.0,0.0,0.0,0.0,0.0,-3.7853,-3.7704,-3.7704,0.0,0.0,0.0,0.0,0.0,0.0,0.0,0.0,0.0,0.0,-5.6436,-5.9308,-6.1403,-6.2839,-6.3288,-6.3199,-6.272,-6.1642,-5.9968,-5.7898,-5.5006,0.0,0.0,0.0,0.0,0.0,0.0,0.0,0.0,0.0,0.0,0.0,0.0,0.0,0.0,0.0,0.0,0.0,0.0,0.0,0.0,0.0,0.0,0.0,0.0,0.0,0.0,0.0,-4.8379,0.0,0.0,-4.8306,0.0,0.0,0.0,0.0,0.0,0.0,0.0,0.0,0.0,0.0,0.0,0.0,0.0,0.0,0.0,0.0,0.0,0.0,0.0,0.0,0.0,0.0,-5.3881,-6.0347,-6.4661,-6.759,-6.9045,-6.8378,-6.7671,-6.6846,-6.5392,-6.2516,-5.7915,0.0,0.0,0.0,0.0,0.0,0.0,0.0,0.0,0.0,0.0,0.0,0.0,0.0,0.0,0.0,0.0,0.0,0.0,0.0,0.0,0.0,0.0,0.0,0.0,0.0,0.0,-3.926,-3.8751,-3.8362,0.0,0.0,0.0,0.0,0.0,0.0,0.0,0.0,0.0,0.0,-5.476,-5.877,-6.0805,-6.272,-6.3947,-6.3977,-6.3468,-6.2421,-6.0505,-5.906,-5.695,0.0,0.0,0.0,0.0,0.0,0.0,0.0,0.0,0.0,0.0,0.0,0.0,0.0,0.0,0.0,0.0,0.0,0.0,0.0,0.0,0.0,0.0,0.0,0.0,0.0,0.0,0.0,-5.2637,-5.2307,0.0,0.0,0.0,0.0,0.0,0.0,0.0,0.0,0.0,0.0,0.0,-5.826,-5.7884,0.0,0.0,0.0,0.0,0.0,0.0,0.0,0.0,0.0,0.0,0.0,0.0,-5.2804,-5.7988,-6.3802,-6.7083,-6.7557,-6.7793,-6.7286,-6.6102,-6.5121,-6.1569,-5.5175,0.0,0.0,0.0,0.0,0.0,0.0,0.0,0.0,0.0,0.0,0.0,0.0,0.0,0.0,0.0,0.0,0.0,0.0,0.0,0.0,0.0,0.0,0.0,0.0,0.0,-3.9649,0.0,0.0,0.0,0.0,0.0,0.0,0.0,0.0,0.0,0.0,0.0,-4.8087,-5.2905,-5.6555,-5.9668,-6.2091,-6.3707,-6.4695,0.0,0.0,0.0,0.0,0.0,0.0,0.0,0.0,0.0,0.0,0.0,0.0,0.0,0.0,-5.4251,-5.2546,-5.096,-4.9494,-4.8207,0.0,0.0,0.0,0.0,0.0,0.0,0.0,0.0,0.0,0.0,0.0,0.0,0.0,0.0,-5.6381,0.0,-5.5464,0.0,0.0,0.0,0.0,0.0,0.0,0.0,0.0,-6.2475,-6.3328,-6.261,-6.2352,-6.1514,0.0,-5.9701,-5.6706,0.0,0.0,0.0,0.0,0.0,0.0,0.0,0.0,-5.2672,-5.7205,-6.3046,-6.62,-6.6406,-6.6878,-6.6539,-6.5324,-6.3599,-6.0148,-5.4803,-5.1048,-4.7564,0.0,0.0,0.0,0.0,0.0,0.0,0.0,0.0,0.0,0.0,0.0,0.0,0.0,0.0,0.0,0.0,0.0,0.0,0.0,0.0,0.0,0.0,0.0,-4.0636,0.0,0.0,0.0,0.0,0.0,0.0,0.0,0.0,0.0,-4.5707,-4.7782,-5.093,-5.531,-5.8112,-6.0595,-6.278,0.0,0.0,0.0,0.0,0.0,0.0,0.0,-5.6447,-5.516,-5.3803,-5.3337,-5.4436,-5.5916,-5.7393,-5.889,0.0,0.0,-5.7004,-5.5538,-5.4281,-5.3174,-5.3314,-5.3689,-5.3923,-5.4798,-5.6047,0.0,0.0,0.0,0.0,0.0,0.0,0.0,0.0,-5.9832,-6.0382,0.0,-5.9318,0.0,0.0,0.0,0.0,0.0,-5.6675,0.0,0.0,-6.6145,-6.7561,-6.721,-6.6555,-6.5363,-6.3549,-6.2151,-5.9761,-5.628,-5.1297,0.0,0.0,0.0,0.0,0.0,0.0,-5.345,-5.7814,-6.2327,-6.4948,-6.5561,-6.5657,-6.5284,-6.4512,-6.1061,-5.849,-5.6867,-5.3348,-5.0371,-4.8173,-4.5906,0.0,0.0,0.0,0.0,0.0,0.0,0.0,0.0,0.0,0.0,0.0,0.0,0.0,0.0,0.0,0.0,0.0,0.0,0.0,0.0,-4.1245,0.0,0.0,0.0,0.0,0.0,0.0,0.0,0.0,0.0,0.0,-4.8613,-5.1334,-5.4261,-5.6792,0.0,0.0,0.0,0.0,-6.3977,-6.3977,-6.3438,-6.2361,-6.0446,-5.9031,-5.7719,-5.6515,0.0,0.0,-5.8961,-5.9757,-6.0356,-6.1074,-6.1194,-6.1164,-6.1104,-5.9877,-5.883,-5.8201,-5.8034,-5.8438,-5.8984,-5.9501,-6.05,-6.5668,0.0,0.0,0.0,0.0,-6.2365,-6.3576,-6.4787,-6.5118,-6.5852,-6.6659,-6.4273,0.0,0.0,0.0,0.0,0.0,0.0,-6.2328,-6.5485,-6.7577,-6.866,-6.8888,-6.7833,-6.6524,-6.5082,-6.3061,-6.0599,-5.7607,-5.4814,-5.1277,-4.7017,0.0,0.0,0.0,0.0,-5.3957,-5.7848,-6.18,-6.3905,-6.414,-6.4661,-6.4593,-6.3835,-6.1772,-6.0182,-5.9167,-5.6122,-5.3653,-5.1961,-4.8748,0.0,0.0,0.0,0.0,0.0,0.0,0.0,0.0,0.0,0.0,0.0,0.0,0.0,0.0,0.0,0.0,0.0,0.0,0.0,-4.1918,-4.2742,-4.2671,0.0,0.0,0.0,0.0,0.0,0.0,0.0,0.0,0.0,-5.3712,-5.4752,-5.6089,0.0,0.0,-6.1403,-6.2271,-6.2929,-6.3348,-6.3318,-6.278,0.0,-6.0984,-5.9648,-5.8714,-5.8349,-5.9117,-6.0398,-6.2276,-6.2391,-6.2421,-6.3019,-6.281,-6.251,-6.245,-6.1433,-6.0535,-6.0296,-6.0636,-6.1117,-6.1792,-6.2411,-6.3113,-7.066,-6.71,-6.6659,-6.6182,-6.5852,-6.7467,-6.8788,-6.9889,-7.0367,-7.1174,-7.2055,-6.9376,-6.71,-6.5007,-6.1153,0.0,0.0,0.0,-6.4457,-6.7026,-6.8641,-6.9612,-6.9982,-6.9044,-6.7724,-6.6031,-6.3657,-6.1177,-5.8805,-5.6918,-5.4563,-5.1799,0.0,0.0,-5.0744,-5.2706,-5.5209,-5.8321,-6.1723,-6.3487,-6.3531,-6.3937,-6.3835,-6.3091,-6.1603,-6.0588,-6.008,-5.7543,-5.548,-5.3991,-5.0882,-4.7612,0.0,0.0,0.0,0.0,0.0,0.0,0.0,0.0,0.0,0.0,0.0,-3.2418,-3.3243,0.0,0.0,0.0,-3.7883,-4.0606,-4.312,-4.3838,0.0,0.0,0.0,0.0,0.0,0.0,0.0,-5.0451,-5.3354,-5.5722,-5.7111,-5.7781,-5.8607,-5.9783,-6.0796,-6.1732,-6.2391,0.0,-6.3079,-6.3079,-6.275,-6.2241,-6.1583,-6.0552,-5.9887,-5.9878,-6.0805,-6.1961,-6.3292,-6.3288,-6.3228,-6.3468,-6.3318,-6.3079,-6.3079,-6.2421,-6.2091,-6.254,-6.2758,-6.3088,-6.4096,-6.4398,-6.4543,-7.4001,-7.378,-7.1578,-7.055,-7.0513,-7.2018,-7.3597,-7.5065,-7.5028,-7.5909,-7.7157,-7.4074,-7.1321,-6.8752,-6.4163,0.0,-6.4494,-6.5264,-6.6439,-6.8017,-6.9522,-7.0454,-7.0894,-7.0168,-6.8811,-6.6815,-6.3962,-6.1782,-6.0078,-5.8035,-5.707,-5.6934,-5.2875,-5.1826,-5.3822,-5.5209,-5.6968,-5.9201,-6.1961,-6.3385,-6.3429,-6.3362,-6.299,-6.2313,-6.0858,-6.0114,-6.0047,-5.8084,-5.6325,-5.4871,-5.2505,-4.9521,-4.5785,0.0,0.0,0.0,0.0,0.0,0.0,0.0,0.0,0.0,0.0,0.0,0.0,0.0,0.0,0.0,-3.9709,0.0,-4.3599,-4.4855,0.0,0.0,0.0,-4.4586,-4.6591,-4.8446,-5.0601,-5.3204,0.0,0.0,-5.9078,-6.0325,-6.1134,-6.1224,-6.1732,-6.2301,-6.2899,-6.3019,-6.3079,-6.3079,-6.3079,-6.2839,-6.2271,-6.166,-6.1312,-6.1253,-6.1727,-6.243,-6.3019,-6.3109,-6.3079,-6.3109,-6.3079,-6.3079,-6.3079,-6.3019,-6.3468,-6.4575,-6.4338,-6.4338,-6.5383,-6.5323,-6.4934,-7.646,-7.6423,-7.5836,-7.4551,-7.2936,-7.3927,-7.5249,-7.6644,-7.6093,-7.6754,-7.8112,-7.5506,-7.2679,-6.9669,-6.732,-6.6806,-6.776,-6.7944,-6.8898,-7.044,-7.0844,-7.1317,-7.1838,-7.0296,-6.8984,-6.779,-6.4673,-6.2603,-6.1734,-6.0115,-5.9302,-5.9235,-5.7679,-5.6867,-5.6867,-5.7205,-5.849,-6.0723,-6.2053,-6.2696,-6.2651,-6.211,-6.1738,-6.1569,-6.0622,-6.008,-6.008,-5.9066,-5.8051,-5.7103,-5.4693,-5.1827,-4.8758,-4.4716,0.0,0.0,0.0,0.0,0.0,0.0,0.0,0.0,0.0,-3.4352,-3.5669,0.0,-3.7255,0.0,-4.1683,-4.4556,-4.689,-4.7848,0.0,0.0,-4.8237,-4.8626,-5.0571,-5.1648,-5.3264,-5.5867,-5.7304,-5.8483,-5.9737,-6.0544,-6.1261,-6.1834,-6.2007,-6.2151,-6.2331,-6.278,-6.3079,-6.3079,-6.3079,-6.3019,-6.2869,-6.2724,-6.2549,-6.2694,-6.2754,-6.2959,-6.3049,-6.3079,-6.3079,-6.3079,-6.3079,-6.3079,-6.3049,-6.3079,-6.3348,-6.4066,-6.4099,-6.4249,-6.5024,-6.5021,-6.4985,-7.7341,-7.7341,-7.7341,-7.6533,-7.5359,-7.6203,-7.7047,-7.7818,-7.7414,-7.7745,-7.8479,-7.635,-7.4258,-7.2202,-7.0917,-7.0403,-7.0513,-7.0513,-7.0991,-7.1835,-7.1835,-7.2034,-7.2343,-7.0909,-6.9695,-6.8697,-6.5896,-6.4039,-6.3093,-6.149,-6.0622,-6.0622,-5.9877,-5.9471,-5.9404,-5.9066,-5.9674,-6.1298,-6.1704,-6.1917,-6.1893,-6.1206,-6.0757,-6.0723,-5.9674,-5.9133,-5.9099,-5.8011,-5.7027,-5.6179,-5.4167,-5.1735,-4.8898,-4.5239,-4.1693,0.0,0.0,0.0,0.0,0.0,0.0,0.0,0.0,0.0,0.0,0.0,-4.0277,-4.1893,-4.4496,-4.692,-4.8955,-5.0272,-5.1289,-5.1947,-5.1947,-5.2456,-5.3803,-5.4551,-5.5598,-5.7334,-5.8411,-5.9279,-6.0086,-6.0984,-6.1649,-6.2076,-6.2426,-6.254,-6.257,-6.2869,-6.3079,-6.3079,-6.3079,-6.3079,-6.3079,-6.3079,-6.3079,-6.3079,-6.3079,-6.3079,-6.3079,-6.3079,-6.2989,-6.272,-6.2869,-6.2989,-6.272,-6.2899,-6.3199,-6.3498,-6.359,-6.3889,-6.4455,-6.433,-6.4146,-7.7341,-7.7341,-7.7341,-7.7341,-7.7378,-7.8112,-7.8479,-7.8589,-7.8479,-7.8442,-7.8332,-7.679,-7.5652,-7.4882,-7.4074,-7.323,-7.2532,-7.2532,-7.2532,-7.2532,-7.2532,-7.2459,-7.2255,-7.1464,-7.031,-6.8934,-6.6911,-6.5301,-6.3967,-6.2241,-6.1434,-6.14,-6.0757,-6.0757,-6.14,-6.0757,-6.0723,-6.1434,-6.1366,-6.1282,-6.1136,-6.0299,-5.9776,-5.9641,-5.8254,-5.7408,-5.7306,-5.5875,-5.4552,-5.3502,-5.2191,-5.0253,-4.7766,-4.5017,-4.226,0.0,-3.82,0.0,0.0,0.0,0.0,0.0,0.0,0.0,0.0,-4.2521,-4.3778,-4.5633,-4.7459,-4.9134,-5.0601,-5.2366,-5.3743,-5.4491,-5.5089,-5.5688,-5.6346,-5.6915,-5.7483,-5.8171,-5.9249,-5.9986,-6.0114,-6.1267,-6.1948,-6.2076,-6.2575,-6.281,-6.2929,-6.2989,-6.3079,-6.3079,-6.3019,-6.2869,-6.2899,-6.2899,-6.2724,-6.281,-6.272,-6.2839,-6.275,-6.278,-6.26,-6.2151,-6.2391,-6.26,-6.2151,-6.251,-6.281,-6.2929,-6.2844,-6.3023,-6.3677,-6.3528,-6.3109,-7.7341,-7.7341,-7.7341,-7.7341,-7.7341,-7.7488,-7.7965,-7.8552,-7.7855,-7.7561,-7.7488,-7.6533,-7.5652,-7.4845,-7.4037,-7.323,-7.2532,-7.2532,-7.2532,-7.2532,-7.2532,-7.2108,-7.1333,-7.0339,-6.9127,-6.7509,-6.5721,-6.4456,-6.357,-6.2676,-6.2178,-6.2178,-6.2009,-6.2042,-6.2178,0.0,0.0,0.0,-6.1603,-6.0993,-6.0316,-5.8987,-5.8017,-5.7408,-5.5987,0.0,-5.4363,-5.3751,-5.2497,-5.0681,-5.0301,0.0,0.0,0.0,0.0,0.0,0.0,0.0,0.0,0.0,0.0,0.0,-4.5454,-4.5514,-4.3988,-4.5364,-4.698,-4.8386,-4.9344,-5.084,-5.3234,-5.4251,-5.5269,-5.6406,-5.6645,-5.7004,-5.7663,-5.7872,-5.8171,-5.883,-5.9159,-5.9507,-6.0024,-6.0736,-6.147,-6.1928,-6.2246,-6.2301,-6.2271,-6.269,-6.3049,-6.3049,-6.26,-6.2301,-6.2271,-6.1868,-6.1545,-6.153,-6.1493,-6.1493,-6.1553,-6.1553,-6.1523,-6.1313,-6.1403,-6.1672,-6.1972,-6.1792,-6.1732,-6.2181,-6.1868,-6.1786,-6.2963,-6.3169,-6.3079,-7.7341,0.0,-7.7341,-7.7341,0.0,-7.7341,-7.7561,-7.7928,-7.7524,-7.7341,-7.7304,-7.6864,-7.6056,-7.4882,-7.4478,-7.3634,-7.2532,-7.2532,-7.2532,-7.2532,-7.2532,-7.194,-7.0961,-7.0172,-6.8802,-6.6874,-6.5443,-6.43,-6.3383,-6.2736,-6.2415,-6.2415,-6.2415,-6.2415,-6.2381,-6.2042,-6.1839,-6.1883,-6.0723,-5.9967,-5.9553,-5.8439,-5.7543,-5.6799,-5.5646,0.0,0.0,0.0,0.0,0.0,0.0,0.0,0.0,0.0,0.0,-4.203,-4.1816,-4.1667,-4.1444,-4.3479,-4.5364,-4.6681,-4.8596,-4.9164,-4.7818,-4.8955,-5.0034,-5.0665,-5.1892,-5.3234,-5.4551,-5.5867,-5.6885,-5.7513,-5.7902,-5.8231,-5.853,-5.862,-5.874,-5.9009,-5.9099,-5.9297,-5.9615,-6.0526,-6.1052,-6.1184,-6.1655,-6.1942,-6.1702,-6.1882,-6.2091,-6.2091,-6.1852,-6.1642,-6.1583,-6.1357,-6.1094,-6.1164,-6.1117,-6.1057,-6.1074,-6.1104,-6.1014,-6.0745,-6.0864,-6.1164,-6.1074,-6.1074,-6.1224,-6.1523,-6.1327,-6.1273,-6.2032,-6.2091,-6.2211,-7.7341,-7.7341,-7.7341,-7.7341,-7.7341,-7.7341,-7.7341,-7.7341,0.0,0.0,0.0,-7.7341,-7.6362,-7.4895,-7.4859,-7.3919,-7.2416,-7.2321,-7.2321,-7.2321,-7.2321,-7.1596,-7.035,-6.9828,-6.8378,-6.6195,-6.5113,-6.4126,-6.3083,-6.2659,-6.2415,-6.2415,-6.2415,-6.2313,-6.2144,-6.1467,-6.1028,-6.0867,-5.9641,-5.8937,-5.8817,-5.8128,-5.734,-5.663,-5.5673,-5.4351,-5.2564,-5.1789,-5.0594,-4.9117,-4.8891,-4.8306,-4.721,-4.6407,-4.5435,-4.4278,-4.4706,-4.5095,-4.5214,-4.683,-4.8207,-4.9105,-5.075,-5.1708,-5.1588,-5.2067,-5.2432,-5.2502,-5.4141,-5.5269,-5.5568,-5.7064,-5.8171,-5.8291,-5.877,-5.9099,-5.9099,-5.9099,-5.9099,-5.9099,-5.9099,-5.9099,-5.9159,-6.0176,-6.0753,-6.038,-6.0969,-6.1523,-6.0954,-6.1014,-6.1224,-6.1224,-6.1104,-6.0924,-6.0924,-6.0775,-6.0775,-6.0655,-6.0656,-6.0705,-6.0736,-6.0775,-6.0535,-5.9997,-6.0416,-6.0505,-6.0236,-6.0416,-6.0805,-6.0894,-6.0835,-6.0775,-6.0775,-6.0693,-6.085,-7.7341,-7.7341,-7.7341,-7.7341,-7.7341,-7.7341,-7.7341,-7.7341,-7.7341,-7.7341,-7.7341,-7.7341,-7.6362,-7.4738,-7.4518,-7.3519,-7.1878,-7.1718,-7.162,-7.162,-7.1656,-7.0536,-6.8678,-6.8306,-6.6836,-6.4495,-6.3755,-6.3212,-6.277,-6.2537,-6.2415,-6.2415,-6.2415,-6.2076,-6.1434,-6.0655,-5.9945,-5.9336,-5.9099,-5.8666,-5.8106,-5.7348,-5.663,-5.5886,-5.4791,-5.3228,-5.1206,-5.0416,-4.8807,-4.633,-4.7034,-4.7137,-4.6491,-4.6894,-4.7015,-4.6856,-4.7332,-4.7989,-4.8595,-4.9344,-5.0601,-5.2336,-5.3294,-5.3533,-5.2965,-5.2995,-5.3331,-5.3909,-5.477,-5.5616,-5.6706,-5.7617,-5.8381,-5.886,-5.9039,-5.9099,-5.9099,-5.9099,-5.9099,-5.9099,-5.9099,-5.9099,-5.9189,-5.9787,-6.0245,-6.0112,-6.0335,-6.0176,-5.9847,-6.0386,-6.1044,-6.1044,-6.0595,-6.0296,-6.0206,-5.9757,-5.9548,-5.9398,-5.9507,-5.9507,-5.9518,-5.9578,-5.9488,-5.9308,-5.9458,-5.9608,-5.9907,-5.9668,-5.9757,-6.0086,-5.9877,-5.9548,-5.9548,-5.9148,-5.9002,-7.7341,-7.7341,-7.7341,-7.7341,-7.7341,-7.7341,-7.7341,-7.7341,-7.7341,-7.7341,-7.7341,-7.7341,-7.6301,-7.4591,-7.407,-7.2943,-7.1103,-7.074,-7.0539,-7.0539,-7.0539,-6.9479,-6.7646,-6.7082,-6.5698,-6.3655,-6.3034,-6.2707,-6.2537,-6.2459,-6.2415,-6.2347,-6.2009,-6.1637,-6.1264,-6.0114,-5.9336,-5.9032,-5.8518,-5.8039,-5.7566,-5.7144,-5.6526,-5.5676,-5.4759,-5.3419,-5.1424,-5.0831,-4.9546,-4.761,-4.814,-4.8343,-4.7938,-4.8233,-4.8383,-4.8386,-4.9015,-4.9494,-4.9763,-5.075,-5.2007,-5.3593,-5.4012,-5.4251,-5.4281,-5.4251,-5.4401,-5.477,-5.5598,-5.6408,-5.7072,-5.8047,-5.877,-5.9069,-5.9099,-5.9099,-5.9099,-5.9099,-5.9099,-5.9099,-5.9099,-5.9099,-5.9099,-5.9668,-5.9937,-5.9708,-5.9638,-5.9428,-5.9159,-5.9608,-6.0027,-5.9997,-5.9757,-5.9578,-5.9548,-5.9338,-5.9129,-5.9099,-5.9099,-5.9099,-5.9099,-5.9099,-5.9099,-5.9099,-5.9099,-5.9219,-5.9548,-5.9338,-5.9279,-5.9368,-5.9368,-5.9129,-5.9021,-5.7951,-5.7168,-7.7341,-7.7341,-7.7341,-7.7341,-7.7341,-7.7341,-7.7341,-7.7341,-7.7341,-7.7243,-7.7181,-7.7181,-7.6188,-7.4433,-7.3652,-7.2319,-7.0624,-6.9814,-6.9421,-6.9457,-6.9457,-6.8502,-6.6775,-6.6142,-6.4918,-6.3211,-6.2591,-6.2415,-6.2415,-6.2415,-6.2279,-6.211,-6.1569,-6.1129,-6.0757,-5.9607,-5.893,-5.8727,-5.7891,-5.7331,-5.7105,-5.6801,-5.6305,-5.539,-5.4775,-5.36,-5.1933,-5.1445,-5.0599,-4.9326,-4.9551,-4.9644,-4.9494,-4.9643,-4.9763,-4.9972,-5.0381,-5.0738,-5.0896,-5.1977,-5.3084,-5.4102,-5.4341,-5.464,-5.5119,-5.5209,-5.5209,-5.5299,-5.6166,-5.6914,-5.7172,-5.8118,-5.8949,-5.9069,-5.9099,-5.9099,-5.9099,-5.9099,-5.9099,-5.9099,-5.9099,-5.9099,-5.9189,-5.9548,-5.9638,-5.9249,-5.9099,-5.9099,-5.9099,-5.9099,-5.9099,-5.9099,-5.9099,-5.9129,-5.9099,-5.9129,-5.9099,-5.9099,-5.9099,-5.9099,-5.9099,-5.9099,-5.9099,-5.9099,-5.9099,-5.9129,-5.9129,-5.9129,-5.9129,-5.9159,-5.9129,-5.9021,-5.8525,-5.702,-5.5496,-7.7341,-7.7341,-7.7304,-7.7341,-7.7243,-7.7279,-7.7279,-7.7243,-7.7341,-7.7118,-7.6801,-7.6866,-7.5967,-7.4392,-7.3153,-7.1728,-7.0293,-6.9287,-6.8746,-6.8746,-6.8746,-6.7794,-6.5925,-6.5634,-6.4616,-6.2863,-6.2547,-6.2415,-6.2415,-6.2381,-6.2042,-6.1467,-6.1332,-6.0588,-5.9404,-5.9099,-5.8693,-5.8017,-5.7398,-5.6768,-5.6282,-5.5922,-5.541,-5.4773,-5.4274,-5.3364,-5.195,-5.1467,-5.0634,-4.9464,-4.9884,-5.0152,-5.0182,-5.069,-5.1289,-5.1828,-5.1899,-5.2256,-5.2905,-5.3623,-5.4042,-5.4221,-5.476,-5.5089,-5.5179,-5.5209,-5.5209,-5.5329,-5.5837,-5.6527,-5.7035,-5.7791,-5.8501,-5.8949,-5.9069,-5.9099,-5.9099,-5.9099,-5.9099,-5.9099,-5.9099,-5.9099,-5.9129,-5.9219,-5.9219,-5.9129,-5.9099,-5.9099,-5.9099,-5.9099,-5.9099,-5.9099,-5.9099,-5.9099,-5.9099,-5.9099,-5.9099,-5.9099,-5.9099,-5.9069,-5.9039,-5.9009,-5.9069,-5.874,-5.8949,-5.889,-5.8949,-5.9099,-5.9009,-5.883,-5.8752,-5.8714,-5.7611,-5.585,-5.4449,-7.7341,-7.7341,-7.7217,-7.7092,-7.6902,-7.6737,-7.6672,-7.6737,-7.6672,-7.6475,-7.5967,-7.576,-7.5012,-7.3833,-7.2136,-7.0713,-6.9471,-6.8189,-6.7604,-6.7604,-6.7604,-6.6736,-6.5176,-6.5016,-6.4118,-6.2615,-6.2425,-6.2415,-6.2313,-6.1975,-6.1603,-6.1197,-6.0419,-5.9641,-5.9032,-5.8592,-5.8186,-5.7881,-5.7214,-5.6303,-5.5329,-5.5117,-5.4653,-5.3891,-5.349,-5.2958,-5.2147,-5.1698,-5.1151,-5.0451,-5.069,-5.081,-5.081,-5.1079,-5.1319,-5.1618,-5.2001,-5.2688,-5.3743,-5.4072,-5.4371,-5.476,-5.5029,-5.5209,-5.5209,-5.5209,-5.5209,-5.5269,-5.5777,-5.6346,-5.6601,-5.7543,-5.8231,-5.853,-5.886,-5.9099,-5.9099,-5.9099,-5.9099,-5.9099,-5.9099,-5.9099,-5.9099,-5.9099,-5.9099,-5.9099,-5.9099,-5.9099,-5.9099,-5.9099,-5.9099,-5.9099,-5.9099,-5.9099,-5.9099,-5.9099,-5.9099,-5.9099,-5.9099,-5.9039,-5.862,-5.853,-5.8411,-5.8022,-5.8022,-5.8022,-5.7842,-5.7902,-5.7932,-5.7856,-5.7506,-5.7075,-5.5674,-5.3999,-5.2661,-7.7341,-7.7243,-7.6929,-7.657,-7.6208,-7.5862,-7.5724,-7.5793,-7.5724,-7.5442,-7.4935,-7.4452,-7.3905,-7.3041,-7.1236,-6.9899,-6.8857,-6.7471,-6.6812,-6.6812,-6.6812,-6.6,-6.4715,-6.4613,-6.3835,-6.2618,-6.2415,-6.2415,-6.2347,-6.1907,-6.14,-6.0858,-5.9844,-5.9099,-5.8693,-5.8045,-5.7808,-5.7662,-5.6911,-5.5749,-5.4621,-5.4264,-5.3664,-5.2785,-5.2457,-5.2215,-5.2033,-5.1665,-5.1416,-5.1229,-5.1229,-5.1229,-5.1229,-5.1229,-5.1259,-5.1533,-5.2247,-5.3144,-5.4162,-5.4371,-5.467,-5.5119,-5.5209,-5.5209,-5.5209,-5.5209,-5.5209,-5.5239,-5.5628,-5.5939,-5.6263,-5.7092,-5.7663,-5.8052,-5.859,-5.889,-5.9069,-5.9099,-5.9099,-5.9099,-5.9099,-5.9099,-5.9099,-5.9099,-5.9099,-5.9099,-5.9099,-5.9099,-5.9099,-5.9099,-5.9099,-5.9099,-5.8979,-5.8919,-5.9039,-5.9099,-5.9099,-5.9009,-5.8949,-5.8607,-5.8112,-5.8052,-5.7812,-5.7513,-5.7214,-5.7154,-5.7363,-5.7244,-5.69,-5.6795,-5.6373,-5.5496,-5.4346,-5.2498,-5.1078,-7.7341,-7.7118,-7.6264,-7.5685,-7.5299,-7.4645,-7.4421,-7.4421,-7.4421,-7.4193,-7.3799,-7.3206,-7.2749,-7.231,-7.0732,-6.983,-6.9203,-6.7574,-6.6846,-6.6812,-6.6812,-6.6034,-6.4647,-6.458,-6.3802,-6.2482,-6.2415,-6.2415,-6.2381,-6.2313,-6.1603,-6.0216,-6.0013,-5.9302,-5.8186,-5.7769,-5.7514,-5.7181,-5.6257,-5.5181,-5.4062,-5.3258,-5.2366,-5.1479,-5.1323,-5.1323,-5.1293,-5.1199,-5.1229,-5.1229,-5.1229,-5.1229,-5.1229,-5.1229,-5.1473,-5.2111,-5.3271,-5.4072,-5.4221,-5.47,-5.5089,-5.5179,-5.5209,-5.5209,-5.5209,-5.5209,-5.5209,-5.5209,-5.5269,-5.552,-5.6022,-5.6402,-5.6885,-5.7842,-5.8112,-5.8501,-5.9009,-5.9069,-5.9099,-5.9099,-5.9099,-5.9099,-5.9099,-5.9099,-5.9099,-5.9099,-5.9099,-5.9099,-5.9099,-5.9099,-5.9039,-5.889,-5.862,-5.8381,-5.8919,-5.8811,-5.8871,-5.874,-5.8308,-5.8023,-5.7888,-5.7663,-5.7304,-5.7034,-5.6855,-5.6825,-5.7004,-5.684,-5.6467,-5.5929,-5.5129,-5.4161,-5.2706,-5.1431,-5.0036,-7.6541,-7.6,-7.5406,-7.49,-7.4376,-7.3799,-7.3641,-7.3606,-7.3641,-7.3402,-7.3066,-7.2651,-7.2228,-7.1761,-7.0123,-6.9304,-6.9151,-6.7963,-6.7252,-6.688,-6.6812,-6.6034,-6.4715,-6.4593,-6.3848,-6.2584,-6.2415,-6.2415,-6.2313,-6.1941,-6.1163,-6.0182,-5.9607,-5.8896,-5.7977,-5.7588,-5.7181,-5.6581,-5.5716,-5.4653,-5.3371,-5.2726,-5.2033,-5.1323,-5.1229,-5.1229,-5.1229,-5.1229,-5.1229,-5.1229,-5.1229,-5.1229,-5.1229,-5.1229,-5.1503,-5.2111,-5.2708,-5.3294,-5.4102,-5.4431,-5.476,-5.5149,-5.5209,-5.5209,-5.5209,-5.5209,-5.5209,-5.5209,-5.5209,-5.537,-5.555,-5.5939,-5.6346,-5.6825,-5.7633,-5.8201,-5.8501,-5.883,-5.9099,-5.9099,-5.9099,-5.9099,-5.9099,-5.9099,-5.9099,-5.9099,-5.9099,-5.9069,-5.9009,-5.877,-5.8471,-5.8381,-5.7932,-5.7543,-5.7723,-5.7821,-5.7832,-5.7766,-5.7558,-5.7228,-5.6974,-5.6825,-5.6496,-5.6137,-5.5974,-5.5664,-5.559,-5.4902,-5.4697,-5.3964,-5.3155,-5.2296,-5.0847,-4.9719,-4.8666,-7.5513,-7.4861,-7.4376,-7.3834,-7.3311,-7.2818,-7.2567,-7.2567,-7.2567,-7.2432,-7.221,-7.2038,-7.1674,-7.1036,-6.9979,-6.9113,-6.8673,-6.7895,-6.7286,-6.6846,-6.6812,-6.6034,-6.4783,-6.4559,-6.3814,-6.2584,-6.2415,-6.2415,-6.2347,-6.1795,-6.0941,-5.9852,-5.9271,-5.8564,-5.7607,-5.703,-5.6459,-5.5763,-5.487,-5.3891,-5.2754,-5.2276,-5.1849,-5.1323,-5.1229,-5.1229,-5.1229,-5.1229,-5.1229,-5.1229,-5.1229,-5.1229,-5.1229,-5.1229,-5.1413,-5.1807,-5.2072,-5.2665,-5.3713,-5.4072,-5.4491,-5.5119,-5.5209,-5.5209,-5.5209,-5.5209,-5.5209,-5.5209,-5.5209,-5.5209,-5.5269,-5.5598,-5.5927,-5.6226,-5.7154,-5.7872,-5.8141,-5.871,-5.9039,-5.9099,-5.9099,-5.9099,-5.9099,-5.9099,-5.9009,-5.883,-5.877,-5.874,-5.8441,-5.8112,-5.7782,-5.7752,-5.7214,-5.6885,-5.6795,-5.6735,-5.7107,-5.7079,-5.6899,-5.6569,-5.6256,-5.6047,-5.5675,-5.5257,-5.4773,-5.4304,-5.3756,-5.3126,-5.2368,-5.1638,-5.0966,-5.0232,-4.9097,-4.8117,-4.7342,-7.4117,-7.3721,-7.3044,-7.2596,-7.2244,-7.1518,-7.13,-7.1287,-7.1232,-7.1219,-7.1185,-7.1266,-7.0825,-7.0263,-6.9891,-6.9248,-6.8064,-6.7252,-6.688,-6.6812,-6.6812,-6.6,-6.4647,-6.4593,-6.3814,-6.2448,-6.2415,-6.2415,-6.2381,-6.1975,-6.111,-5.97,-5.9197,-5.8196,-5.668,-5.602,-5.5426,-5.4819,-5.3891,-5.2993,-5.2276,-5.1849,-5.1479,-5.1229,-5.1229,-5.1229,-5.1229,-5.1229,-5.1229,-5.1229,-5.1229,-5.1229,-5.1229,-5.1229,-5.1229,-5.1349,-5.1828,-5.2456,-5.3174,-5.3803,-5.4401,-5.5059,-5.5209,-5.5209,-5.5209,-5.5209,-5.5209,-5.5209,-5.5209,-5.5209,-5.5209,-5.5269,-5.5508,-5.6077,-5.6765,-5.7423,-5.7932,-5.862,-5.9069,-5.8949,-5.889,-5.9039,-5.9069,-5.886,-5.862,-5.8351,-5.8141,-5.7932,-5.7513,-5.7274,-5.7124,-5.7004,-5.6585,-5.6196,-5.5927,-5.5748,-5.6256,-5.6555,-5.6269,-5.5939,-5.5632,-5.5483,-5.51,-5.4671,-5.389,-5.3337,-5.2216,-5.1509,-5.0819,-5.0073,-4.9189,-4.8665,-4.7964,-4.7248,-4.6762,-7.3322,-7.2914,-7.1981,-7.1388,-7.0958,-7.0168,-6.9789,-6.9789,-6.9789,-6.9789,-6.9789,-6.9789,-6.9654,-6.935,-6.8876,-6.8368,-6.7827,-6.7184,-6.6812,-6.6812,-6.6812,-6.6034,-6.4816,-6.4546,-6.3802,-6.2618,-6.2415,-6.2381,-6.2302,-6.1951,-6.0745,-5.9145,-5.8363,-5.7168,-5.5377,-5.4736,-5.4232,-5.3514,-5.2962,-5.2276,-5.1572,-5.1416,-5.1323,-5.1229,-5.1229,-5.1229,-5.1229,-5.1229,-5.1229,-5.1229,-5.1229,-5.1229,-5.1229,-5.1229,-5.1229,-5.1229,-5.1409,-5.2037,-5.3025,-5.3414,-5.4042,-5.491,-5.5209,-5.5209,-5.5209,-5.5209,-5.5209,-5.5209,-5.5209,-5.5209,-5.5209,-5.5209,-5.5299,-5.5478,-5.6436,-5.6974,-5.7004,-5.7423,-5.7663,-5.7723,-5.7736,-5.7945,-5.8231,-5.8158,-5.7888,-5.7962,-5.7693,-5.7274,-5.7094,-5.6645,-5.6466,-5.6406,-5.5927,-5.5598,-5.5377,-5.5287,-5.5466,-5.5649,-5.544,-5.5218,-5.4953,-5.4598,-5.4289,-5.3576,-5.2779,-5.192,-5.0906,-4.999,-4.9243,-4.8857,-4.8224,-4.773,-4.7197,-4.6743,-4.6376,-7.1763,-7.1268,-7.0892,-7.0481,-6.9897,-6.9335,-6.9079,-6.9079,-6.9079,-6.9079,-6.9113,-6.9113,-6.891,-6.8605,-6.8098,-6.776,-6.7455,-6.7015,-6.6812,-6.6812,-6.6812,-6.6,-6.4647,-6.3971,-6.3362,-6.2584,-6.229,-6.2177,-6.2144,-6.1399,-6.0093,-5.8264,-5.745,-5.6199,-5.4242,-5.3719,-5.3227,-5.2695,-5.2276,-5.1757,-5.1323,-5.1229,-5.1229,-5.1229,-5.1229,-5.1229,-5.1229,-5.1229,-5.1229,-5.1229,-5.1229,-5.1229,-5.1229,-5.1229,-5.1229,-5.1259,-5.1528,-5.2097,-5.3025,-5.3473,-5.4012,-5.494,-5.5209,-5.5209,-5.5209,-5.5209,-5.5209,-5.5209,-5.5209,-5.5209,-5.5209,-5.5209,-5.5209,-5.5209,-5.6107,-5.6645,-5.6555,-5.6855,-5.7094,-5.7184,-5.7184,-5.7393,-5.7483,-5.7438,-5.7182,-5.7274,-5.7034,-5.6585,-5.6406,-5.6017,-5.5897,-5.5807,-5.5436,-5.5126,-5.4905,-5.4786,-5.4666,-5.47,-5.4702,-5.4345,-5.4013,-5.354,-5.3097,-5.1892,-5.1017,-5.0238,-4.9247,-4.8469,-4.773,-4.7419,-4.7406,-4.6985,-4.6572,-4.6547,-4.6326,-6.9722,-6.9214,-6.9789,-6.9674,-6.9045,-6.8876,-6.8808,-6.8876,-6.8876,-6.8808,-6.8842,-6.8741,-6.847,-6.7963,-6.7726,-6.7421,-6.6914,-6.6846,-6.6812,-6.6812,-6.6745,-6.6034,-6.4613,-6.3294,-6.2584,-6.237,-6.2119,-6.1843,-6.1513,-6.0604,-5.9101,-5.7152,-5.6201,-5.4982,-5.3357,-5.2815,-5.2487,-5.2185,-5.1757,-5.1479,-5.1229,-5.1229,-5.1229,-5.1229,-5.1229,-5.1229,-5.1229,-5.1229,-5.1229,-5.1229,-5.1229,-5.1229,-5.1229,-5.1259,-5.1349,-5.1344,-5.1917,-5.2546,-5.3234,-5.3773,-5.4401,-5.5089,-5.5209,-5.5209,-5.5209,-5.5209,-5.5209,-5.5209,-5.5209,-5.5209,-5.5209,-5.5209,-5.5209,-5.5269,-5.5748,-5.6286,-5.6915,-5.6944,-5.6735,-5.6795,-5.6929,-5.7032,-5.6974,-5.6929,-5.6629,-5.6509,-5.6226,-5.5897,-5.5598,-5.5418,-5.5269,-5.5108,-5.5036,-5.4568,-5.4274,-5.3774,-5.3554,-5.3053,-5.3116,-5.288,-5.2721,-5.2169,-5.1428,-5.035,-4.9475,-4.8558,-4.7912,-4.7349,-4.69,-4.6798,-4.656,-4.6301,-4.6326,-4.6326,-4.6326,-6.9282,-6.9079,-6.8673,-6.8402,-6.8132,-6.7658,-6.7455,-6.7421,-6.7455,-6.7523,-6.7455,-6.7421,-6.7387,-6.7117,-6.7117,-6.6981,-6.6846,-6.6812,-6.6812,-6.6812,-6.6812,-6.5967,-6.4546,-6.3091,-6.2381,-6.2336,-6.1862,-6.1451,-6.0837,-5.9512,-5.778,-5.5583,-5.4725,-5.3469,-5.194,-5.1757,-5.1572,-5.1509,-5.1416,-5.1323,-5.1229,-5.1229,-5.1229,-5.1229,-5.1229,-5.1229,-5.1229,-5.1229,-5.1229,-5.1229,-5.1229,-5.1229,-5.1289,-5.1648,-5.1882,-5.1988,-5.2569,-5.3204,-5.3803,-5.4132,-5.4521,-5.5089,-5.5209,-5.5209,-5.5209,-5.5209,-5.5209,-5.5209,-5.5209,-5.5209,-5.5209,-5.5209,-5.5209,-5.5209,-5.5418,-5.5748,-5.6166,-5.5987,-5.5688,-5.5688,-5.5688,-5.5927,-5.6166,-5.6047,-5.5939,-5.5987,-5.5777,-5.5448,-5.5138,-5.5078,-5.4976,-5.4976,-5.4773,-5.4097,-5.3535,-5.2903,-5.2329,-5.147,-5.1225,-5.1099,-5.096,-5.0544,-4.9702,-4.87,-4.8469,-4.7677,-4.7231,-4.678,-4.6446,-4.6301,-4.6326,-4.6326,-4.6326,-4.6326,-4.6326,-6.8402,-6.8132,-6.7963,-6.7726,-6.7421,-6.6981,-6.6812,-6.6812,-6.6812,-6.6812,-6.6812,-6.6812,-6.6812,-6.6812,-6.6812,-6.6812,-6.6812,-6.6812,-6.6812,-6.666,-6.6221,-6.5329,-6.4166,-6.2763,-6.1941,-6.1709,-6.1251,-6.068,-5.9903,-5.8606,-5.6738,-5.5008,-5.3926,-5.2725,-5.1353,-5.1229,-5.1229,-5.1229,-5.1229,-5.1229,-5.1229,-5.1229,-5.1229,-5.1229,-5.1229,-5.1229,-5.1229,-5.1229,-5.1229,-5.1229,-5.1229,-5.1289,-5.1593,-5.1917,-5.2293,-5.2595,-5.3277,-5.3803,-5.4162,-5.4431,-5.479,-5.5119,-5.5209,-5.5209,-5.5209,-5.5209,-5.5209,-5.5209,-5.5209,-5.5209,-5.5209,-5.5209,-5.5209,-5.5209,-5.5209,-5.5359,-5.5748,-5.5448,-5.5239,-5.5209,-5.5209,-5.5299,-5.5748,-5.5388,-5.5448,-5.5568,-5.5347,-5.5066,-5.4845,-5.4743,-5.4539,-5.4304,-5.3785,-5.302,-5.2301,-5.1642,-5.093,-5.0133,-4.9606,-4.94,-4.932,-4.8957,-4.8262,-4.756,-4.7231,-4.6993,-4.6661,-4.6446,-4.6446,-4.6326,-4.6326,-4.6326,-4.6326,-4.6326,-4.6326,-6.7421,-6.688,-6.7523,-6.7421,-6.688,-6.6812,-6.6812,-6.6812,-6.6812,-6.6812,-6.6812,-6.6812,-6.6812,-6.6812,-6.6812,-6.6812,-6.6728,-6.6643,-6.6643,-6.6204,-6.5325,-6.4148,-6.333,-6.2078,-6.1198,-6.0703,-6.0044,-5.9484,-5.8722,-5.7651,-5.6184,-5.463,-5.3754,-5.2773,-5.1588,-5.1289,-5.1229,-5.1229,-5.1229,-5.1229,-5.1229,-5.1229,-5.1229,-5.1229,-5.1229,-5.1229,-5.1229,-5.1229,-5.1229,-5.1229,-5.1229,-5.1503,-5.2051,-5.2162,-5.2681,-5.3307,-5.3893,-5.4341,-5.4401,-5.485,-5.5149,-5.5209,-5.5209,-5.5209,-5.5209,-5.5209,-5.5209,-5.5209,-5.5209,-5.5209,-5.5209,-5.5209,-5.5209,-5.5209,-5.5209,-5.5209,-5.5209,-5.5209,-5.5209,-5.5209,-5.5209,-5.5209,-5.5209,-5.5209,-5.5209,-5.5388,-5.5036,-5.4568,-5.42,-5.3756,-5.3413,-5.2992,-5.2352,-5.1731,-5.0934,-5.0232,-4.9529,-4.8736,-4.812,-4.7844,-4.7781,-4.7468,-4.69,-4.6421,-4.6661,-4.6661,-4.6421,-4.6326,-4.6326,-4.6326,-4.6326,-4.6326,-4.6326,-4.6326,-4.6326,-6.6948,-6.6846,-6.6981,-6.6948,-6.6846,-6.6812,-6.6812,-6.6812,-6.6812,-6.6812,-6.6812,-6.6812,-6.6812,-6.6812,-6.6812,-6.6762,-6.6507,-6.6302,-6.6095,-6.5404,-6.365,-6.2525,-6.1937,-6.1146,-6.0417,-5.9443,-5.8769,-5.8184,-5.7371,-5.6493,-5.5328,-5.4315,-5.3248,-5.2402,-5.2007,-5.1498,-5.1229,-5.1229,-5.1229,-5.1229,-5.1229,-5.1229,-5.1229,-5.1229,-5.1229,-5.1229,-5.1229,-5.1229,-5.1229,-5.1229,-5.1289,-5.1563,-5.2171,-5.2768,-5.3345,-5.3952,-5.4589,-5.497,-5.4999,-5.5089,-5.5209,-5.5209,-5.5209,-5.5209,-5.5209,-5.5209,-5.5209,-5.5209,-5.5209,-5.5209,-5.5209,-5.5209,-5.5209,-5.5209,-5.5209,-5.5209,-5.5209,-5.5209,-5.5209,-5.5209,-5.5209,-5.5179,-5.5179,-5.5078,-5.5078,-5.5078,-5.4641,-5.4068,-5.3413,-5.2751,-5.2216,-5.1674,-5.1017,-5.0266,-4.9616,-4.8921,-4.8341,-4.7847,-4.7291,-4.6889,-4.6737,-4.6661,-4.6421,-4.6326,-4.6301,-4.6326,-4.6326,-4.6326,-4.6326,-4.6326,-4.6326,-4.6326,-4.6326,-4.6326,-4.6326,-6.6812,-6.6812,-6.6812,-6.6812,-6.6812,-6.6812,-6.6812,-6.6812,-6.6812,-6.6812,-6.6812,-6.6812,-6.6812,-6.6812,-6.6812,-6.6643,-6.6182,-6.5537,-6.4679,-6.3741,-6.2317,-6.1148,-5.9916,-5.9462,-5.8796,-5.8058,-5.771,-5.7166,-5.6572,-5.5847,-5.5115,-5.4192,-5.3443,-5.2845,-5.2276,-5.1828,-5.1528,-5.1259,-5.1229,-5.1229,-5.1229,-5.1229,-5.1229,-5.1229,-5.1229,-5.1229,-5.1229,-5.1229,-5.1379,-5.1588,-5.1708,-5.1987,-5.2597,-5.3248,-5.3913,-5.463,-5.4929,-5.5179,-5.5179,-5.5209,-5.5209,-5.5209,-5.5209,-5.5209,-5.5209,-5.5209,-5.5209,-5.5209,-5.5209,-5.5209,-5.5209,-5.5209,-5.5209,-5.5209,-5.5209,-5.5209,-5.5209,-5.5209,-5.5209,-5.5179,-5.5108,-5.4887,-5.4857,-5.4684,-5.445,-5.4186,-5.3442,-5.2914,-5.2244,-5.1593,-5.0796,-5.0266,-4.9589,-4.8904,-4.8353,-4.7677,-4.7112,-4.69,-4.6711,-4.6522,-4.6446,-4.6421,-4.6301,-4.6326,-4.6326,-4.6326,-4.6326,-4.6326,-4.6326,-4.6326,-4.6326,-4.6326,-4.6326,-4.6326,-4.6326,-6.6812,-6.6812,-6.6812,-6.6812,-6.6812,-6.6812,-6.6812,-6.6812,-6.6812,-6.6812,-6.6812,-6.6812,-6.6812,-6.6728,-6.6643,-6.6354,-6.5415,-6.425,-6.2998,-6.1981,-6.0899,-5.9724,-5.8363,-5.7673,-5.7205,-5.705,-5.6671,-5.6313,-5.6039,-5.575,-5.515,-5.4431,-5.4192,-5.3593,-5.2755,-5.2217,-5.1917,-5.1528,-5.1319,-5.1229,-5.1229,-5.1229,-5.1229,-5.1229,-5.1229,-5.1229,-5.1259,-5.1379,-5.1648,-5.2157,-5.2396,-5.2833,-5.3356,-5.3856,-5.4491,-5.5119,-5.5179,-5.5179,-5.5209,-5.5209,-5.5209,-5.5209,-5.5209,-5.5209,-5.5209,-5.5209,-5.5209,-5.5209,-5.5209,-5.5209,-5.5209,-5.5209,-5.5209,-5.5209,-5.5209,-5.5209,-5.5209,-5.5209,-5.5239,-5.5388,-5.4964,-5.4582,-5.4288,-5.395,-5.3581,-5.303,-5.2295,-5.1621,-5.0962,-5.0266,-4.9502,-4.8815,-4.812,-4.8146,-4.7606,-4.7751,-4.7009,-4.6597,-4.6451,-4.6351,-4.6326,-4.6326,-4.6326,-4.6326,-4.6326,-4.6326,-4.6326,-4.6326,-4.6326,-4.6326,-4.6326,-4.6326,-4.6326,-4.6326,-4.6326,-6.6812,-6.6812,-6.6812,-6.6812,-6.6812,-6.6812,-6.6812,-6.6812,-6.6812,-6.6812,-6.6812,-6.6812,-6.6728,-6.6473,-6.6268,-6.5415,-6.3854,-6.2492,-6.1308,-6.0411,-5.9296,-5.7968,-5.7395,-5.645,-5.5948,-5.5581,-5.5561,-5.5501,-5.5511,-5.528,-5.519,-5.491,-5.4521,-5.3982,-5.3533,-5.2875,-5.2217,-5.1858,-5.1468,-5.1229,-5.1229,-5.1229,-5.1229,-5.1229,-5.1229,-5.1229,-5.1349,-5.1738,-5.2097,-5.2306,-5.3294,-5.3811,-5.4029,-5.4201,-5.4581,-5.5029,-5.5209,-5.5209,-5.5209,-5.5209,-5.5209,-5.5209,-5.5209,-5.5209,-5.5209,-5.5209,-5.5209,-5.5209,-5.5209,-5.5209,-5.5209,-5.5209,-5.5209,-5.5209,-5.5209,-5.5209,-5.5209,-5.5239,-5.5418,-5.5748,-5.504,-5.4142,-5.3581,-5.2982,-5.2272,-5.1593,-5.0823,-5.0181,-4.9475,-4.87,-4.8029,-4.7349,-4.6661,-4.699,-4.705,-4.7536,-4.751,-4.7071,-4.6824,-4.6547,-4.6522,-4.6326,-4.6326,-4.6326,-4.6326,-4.6326,-4.6326,-4.6326,-4.6326,-4.6326,-4.6326,-4.6326,-4.6326,-4.6326,-4.6326,-6.6812,-6.6812,-6.6812,-6.6812,-6.6812,-6.6812,-6.6812,-6.6812,-6.6812,-6.6812,-6.6812,-6.6812,-6.6643,-6.6182,-6.568,-6.4159,-6.1884,-6.0371,-5.934,-5.8277,-5.7324,-5.6707,-5.6395,-5.5611,-5.535,-5.528,-5.5209,-5.5209,-5.5209,-5.5209,-5.5209,-5.5119,-5.482,-5.4551,-5.4072,-5.3234,-5.2576,-5.2187,-5.1588,-5.1229,-5.1229,-5.1229,-5.1229,-5.1229,-5.1229,-5.1229,-5.1349,-5.1858,-5.2366,-5.2815,-5.3653,-5.4251,-5.4551,-5.47,-5.485,-5.5119,-5.5209,-5.5209,-5.5209,-5.5209,-5.5209,-5.5209,-5.5209,-5.5209,-5.5209,-5.5209,-5.5209,-5.5209,-5.5209,-5.5209,-5.5209,-5.5209,-5.5209,-5.5209,-5.5209,-5.5209,-5.5179,-5.5179,-5.5436,-5.5722,-5.479,-5.3727,-5.2751,-5.2045,-5.0989,-5.0173,-4.9408,-4.8779,-4.812,-4.756,-4.7019,-4.6983,-4.6627,-4.7104,-4.7456,-4.7803,-4.7821,-4.7399,-4.7147,-4.6869,-4.6547,-4.6326,-4.6326,-4.6326,-4.6326,-4.6326,-4.6326,-4.6326,-4.6326,-4.6326,-4.6326,-4.6326,-4.6326,-4.6326,-4.6326,-6.6812,-6.6812,-6.6812,-6.6812,-6.6812,-6.6812,-6.6728,-6.6728,-6.6643,-6.6643,-6.6558,-6.6473,-6.6182,-6.547,-6.4309,-6.2396,-5.9742,-5.8623,-5.7497,-5.6624,-5.6221,-5.576,-5.5329,-5.5209,-5.5179,-5.5179,-5.5209,-5.5209,-5.5209,-5.5209,-5.5209,-5.5179,-5.5179,-5.497,-5.4371,-5.3563,-5.2935,-5.2366,-5.1588,-5.1259,-5.1229,-5.1229,-5.1229,-5.1229,-5.1229,-5.1229,-5.1289,-5.2067,-5.2636,-5.3204,-5.3952,-5.464,-5.5089,-5.5179,-5.5179,-5.5209,-5.5209,-5.5209,-5.5209,-5.5209,-5.5209,-5.5209,-5.5209,-5.5209,-5.5209,-5.5209,-5.5209,-5.5209,-5.5209,-5.5209,-5.5209,-5.5209,-5.5209,-5.5179,-5.5209,-5.5108,-5.4976,-5.4905,-5.4849,-5.4761,-5.4065,-5.3203,-5.2223,-5.0905,-4.9951,-4.8769,-4.7899,-4.7847,-4.7205,-4.7112,-4.6762,-4.6849,-4.7079,-4.7631,-4.8033,-4.8309,-4.8207,-4.7604,-4.7349,-4.7186,-4.6718,-4.6326,-4.6326,-4.6326,-4.6326,-4.6326,-4.6326,-4.6326,-4.6326,-4.6326,-4.6326,-4.6326,-4.6326,-4.6326,-4.6326,-6.6812,-6.6812,-6.6812,-6.6812,-6.6812,-6.6812,-6.6643,-6.6473,-6.6268,-6.6095,-6.5834,-6.5537,-6.5024,-6.3975,-6.2045,-6.0209,-5.8592,-5.7375,-5.6606,-5.5987,-5.5628,-5.5359,-5.5209,-5.5209,-5.5209,-5.5209,-5.5209,-5.5209,-5.5209,-5.5209,-5.5209,-5.5209,-5.5179,-5.5119,-5.485,-5.3892,-5.3174,-5.2875,-5.1887,-5.1259,-5.1259,-5.1259,-5.1229,-5.1229,-5.1229,-5.1289,-5.1468,-5.2336,-5.3084,-5.3324,-5.4431,-5.5059,-5.5209,-5.5209,-5.5209,-5.5209,-5.5209,-5.5209,-5.5209,-5.5209,-5.5209,-5.5209,-5.5209,-5.5209,-5.5209,-5.5209,-5.5209,-5.5209,-5.5209,-5.5209,-5.5209,-5.5209,-5.5209,-5.5078,-5.4976,-5.4671,-5.4436,-5.3964,-5.4036,-5.3377,-5.2652,-5.2159,-5.1393,-5.0017,-4.8753,-4.7519,-4.6617,-4.6566,-4.6591,-4.6642,-4.6975,-4.728,-4.7631,-4.8184,-4.856,-4.8837,-4.841,-4.7832,-4.7622,-4.7383,-4.6743,-4.6326,-4.6326,-4.6326,-4.6326,-4.6326,-4.6326,-4.6326,-4.6326,-4.6326,-4.6326,-4.6326,-4.6326,-4.6326,-4.6326,-6.5783,-6.6812,-6.6812,-6.6812,-6.6812,-6.6812,-6.6558,-6.6182,-6.568,-6.5237,-6.4688,-6.3838,-6.274,-6.1248,-5.9451,-5.8254,-5.7152,-5.6233,-5.5831,-5.573,-5.5359,-5.5209,-5.5209,-5.5209,-5.5209,-5.5209,-5.5209,-5.5209,-5.5209,-5.5209,-5.5209,-5.5209,-5.5209,-5.5179,-5.5119,-5.4251,-5.3862,-5.3384,-5.2546,-5.1832,-5.1623,-5.1473,-5.1259,-5.1259,-5.1259,-5.1468,-5.1947,-5.2606,-5.3384,-5.3773,-5.476,-5.5179,-5.5209,-5.5209,-5.5209,-5.5209,-5.5209,-5.5209,-5.5209,-5.5209,-5.5209,-5.5209,-5.5209,-5.5209,-5.5209,-5.5179,-5.5179,-5.5209,-5.5209,-5.5179,-5.5179,-5.5209,-5.5209,-5.5078,-5.4671,-5.4097,-5.3652,-5.3097,-5.2673,-5.1892,-5.1319,-5.0795,-5.0271,-4.9201,-4.8003,-4.7138,-4.6496,-4.6471,-4.6597,-4.6799,-4.728,-4.8083,-4.841,-4.8761,-4.9063,-4.9314,-4.8686,-4.8183,-4.7795,-4.7459,-4.6718,-4.6326,-4.6326,-4.6326,-4.6326,-4.6326,-4.6326,-4.6326,-4.6326,-4.6326,-4.6326,-4.6326,-4.6326,-4.6326,-4.6326,-6.4437,-6.5612,-6.6018,-6.6271,-6.644,-6.6473,-6.6095,-6.5537,-6.4844,-6.4262,-6.3447,-6.2109,-6.0481,-5.8851,-5.7825,-5.688,-5.5999,-5.5418,-5.5239,-5.5209,-5.5209,-5.5209,-5.5209,-5.5209,-5.5209,-5.5209,-5.5209,-5.5209,-5.5209,-5.5209,-5.5209,-5.5209,-5.5209,-5.5209,-5.5029,-5.4521,-5.4042,-5.3683,-5.2905,-5.2492,-5.2377,-5.2012,-5.1798,-5.1738,-5.1768,-5.1947,-5.2456,-5.3114,-5.3773,-5.4162,-5.482,-5.5179,-5.5209,-5.5209,-5.5209,-5.5209,-5.5209,-5.5209,-5.5209,-5.5209,-5.5209,-5.5209,-5.5209,-5.5209,-5.5179,-5.5179,-5.5018,-5.4929,-5.4845,-5.4743,-5.4773,-5.4671,-5.4671,-5.4333,-5.4023,-5.3337,-5.2644,-5.2,-5.1237,-5.0573,-4.9905,-4.927,-4.8819,-4.8116,-4.7365,-4.6636,-4.6326,-4.6376,-4.6702,-4.7054,-4.7732,-4.8535,-4.8887,-4.9138,-4.9339,-4.9389,-4.8812,-4.8359,-4.8095,-4.7485,-4.6622,-4.6351,-4.6326,-4.6326,-4.6326,-4.6326,-4.6326,-4.6326,-4.6326,-4.6326,-4.6326,-4.6326,-4.6326,-4.6326,-4.6326,-6.2706,-6.2573,-6.3826,-6.4785,-6.5415,-6.5514,-6.509,-6.4262,-6.3829,-6.3004,-6.1905,-6.0609,-5.8924,-5.7725,-5.6889,-5.6083,-5.5299,-5.5209,-5.5209,-5.5209,-5.5209,-5.5209,-5.5209,-5.5209,-5.5209,-5.5209,-5.5209,-5.5209,-5.5209,-5.5209,-5.5209,-5.5209,-5.5209,-5.5209,-5.5029,-5.467,-5.4132,-5.3773,-5.3264,-5.3144,-5.3121,-5.2935,-5.2875,-5.2905,-5.2965,-5.3084,-5.3144,-5.3713,-5.4162,-5.4341,-5.488,-5.5179,-5.5209,-5.5209,-5.5209,-5.5209,-5.5209,-5.5209,-5.5209,-5.5209,-5.5209,-5.5209,-5.5209,-5.5209,-5.5179,-5.4905,-5.4756,-5.4315,-5.4053,-5.3739,-5.3635,-5.3605,-5.3471,-5.3232,-5.2673,-5.2,-5.1237,-5.0489,-4.9816,-4.9274,-4.8683,-4.8126,-4.7843,-4.7405,-4.7129,-4.6421,-4.6577,-4.6627,-4.7255,-4.7682,-4.8259,-4.8887,-4.9238,-4.9464,-4.9515,-4.9339,-4.9038,-4.8585,-4.8146,-4.7465,-4.6648,-4.6426,-4.6326,-4.6326,-4.6326,-4.6326,-4.6326,-4.6326,-4.6326,-4.6326,-4.6326,-4.6326,-4.6326,-4.6326,-4.6326,-6.0444,-6.0316,-6.0604,-6.1487,-6.2685,-6.314,-6.2963,-6.2492,-6.2133,-6.0827,-5.9134,-5.7982,-5.7021,-5.6254,-5.5872,-5.555,-5.5209,-5.5209,-5.5209,-5.5209,-5.5209,-5.5209,-5.5209,-5.5209,-5.5209,-5.5209,-5.5209,-5.5209,-5.5209,-5.5209,-5.5209,-5.5209,-5.5209,-5.5209,-5.5059,-5.494,-5.461,-5.4371,-5.4012,-5.3803,-5.3751,-5.3324,-5.3174,-5.3174,-5.3174,-5.3414,-5.3743,-5.4042,-5.4401,-5.473,-5.5029,-5.5149,-5.5209,-5.5209,-5.5209,-5.5209,-5.5209,-5.5209,-5.5209,-5.5209,-5.5209,-5.5209,-5.5209,-5.5209,-5.5179,-5.4773,-5.42,-5.3642,-5.3106,-5.2759,-5.1849,-5.179,-5.1727,-5.1537,-5.1237,-5.0462,-4.9816,-4.916,-4.8584,-4.8029,-4.7442,-4.701,-4.6773,-4.6679,-4.6491,-4.6326,-4.6627,-4.7004,-4.7581,-4.8209,-4.8761,-4.9088,-4.9414,-4.954,-4.959,-4.9464,-4.9289,-4.8762,-4.815,-4.7475,-4.6803,-4.6401,-4.6326,-4.6326,-4.6326,-4.6326,-4.6326,-4.6326,-4.6326,-4.6326,-4.6326,-4.6326,-4.6326,-4.6326,-4.6326,-5.8493,-5.831,-5.7766,-5.8746,-6.0582,-6.1281,-6.131,-6.0819,-6.0625,-5.9215,-5.6795,-5.6316,-5.5807,-5.5329,-5.5209,-5.5239,-5.5209,-5.5209,-5.5209,-5.5209,-5.5209,-5.5209,-5.5209,-5.5209,-5.5209,-5.5209,-5.5209,-5.5209,-5.5209,-5.5209,-5.5209,-5.5209,-5.5209,-5.5209,-5.5209,-5.5209,-5.5209,-5.5059,-5.479,-5.4491,-5.4441,-5.4072,-5.3862,-5.3862,-5.3922,-5.4072,-5.4401,-5.461,-5.473,-5.4999,-5.5179,-5.5179,-5.5209,-5.5209,-5.5209,-5.5209,-5.5209,-5.5209,-5.5209,-5.5209,-5.5209,-5.5209,-5.5209,-5.5209,-5.5078,-5.4641,-5.3994,-5.314,-5.2501,-5.1626,-5.0628,-5.0531,-5.0378,-5.035,-4.9816,-4.9133,-4.8673,-4.8029,-4.7349,-4.678,-4.6522,-4.6819,-4.6869,-4.6894,-4.6748,-4.6753,-4.7054,-4.738,-4.7782,-4.8435,-4.9113,-4.9364,-4.954,-4.959,-4.959,-4.949,-4.9364,-4.8937,-4.8409,-4.778,-4.723,-4.6803,-4.6401,-4.6326,-4.6326,-4.6326,-4.6326,-4.6326,-4.6326,-4.6326,-4.6326,-4.6326,-4.6326,-4.6326,-4.6326,-5.6831,-5.6311,-5.5711,-5.7007,-5.9367,-6.0308,-6.026,-5.9602,-5.9287,-5.8164,-5.6449,-5.6137,-5.5777,-5.5299,-5.5209,-5.5269,-5.5299,-5.5239,-5.5239,-5.5329,-5.5239,-5.5209,-5.5239,-5.5269,-5.5299,-5.5209,-5.5209,-5.5209,-5.5209,-5.5209,-5.5209,-5.5209,-5.5209,-5.5209,-5.5209,-5.5209,-5.5209,-5.5179,-5.5119,-5.5059,-5.4999,-5.488,-5.485,-5.482,-5.479,-5.488,-5.494,-5.497,-5.5059,-5.5149,-5.5209,-5.5209,-5.5209,-5.5209,-5.5209,-5.5209,-5.5209,-5.5209,-5.5209,-5.5179,-5.5179,-5.5179,-5.5209,-5.5209,-5.5078,-5.4611,-5.395,-5.3036,-5.2266,-5.1236,-5.0398,-4.9674,-4.9373,-4.9037,-4.851,-4.829,-4.787,-4.759,-4.7116,-4.695,-4.705,-4.7176,-4.7252,-4.7399,-4.7079,-4.7205,-4.7506,-4.7807,-4.8109,-4.8636,-4.9364,-4.949,-4.959,-4.959,-4.959,-4.959,-4.9439,-4.9063,-4.8559,-4.8109,-4.7682,-4.7179,-4.6803,-4.6476,-4.6326,-4.6326,-4.6326,-4.6326,-4.6326,-4.6326,-4.6326,-4.6326,-4.6326,-4.6326,-4.6326,-5.6311,-5.575,-5.5381,-5.5722,-5.6738,-5.7902,-5.791,-5.7474,-5.7281,-5.6865,-5.6239,-5.5748,-5.5448,-5.5239,-5.5239,-5.5388,-5.5688,-5.5299,-5.5299,-5.5748,-5.5388,-5.5568,-5.5598,-5.5448,-5.5448,-5.5658,-5.5538,-5.5209,-5.5209,-5.5209,-5.5209,-5.5209,-5.5209,-5.5209,-5.5209,-5.5209,-5.5209,-5.5209,-5.5179,-5.5179,-5.5209,-5.5209,-5.5209,-5.5209,-5.5209,-5.5209,-5.5209,-5.5209,-5.5209,-5.5209,-5.5209,-5.5209,-5.5209,-5.5209,-5.5209,-5.5209,-5.5209,-5.5209,-5.5078,-5.5078,-5.4976,-5.5108,-5.5078,-5.5078,-5.5078,-5.4641,-5.3892,-5.299,-5.1994,-5.0761,-4.9399,-4.8629,-4.8277,-4.7838,-4.7536,-4.7765,-4.7648,-4.7626,-4.7506,-4.7531,-4.7606,-4.7657,-4.7831,-4.7958,-4.7808,-4.7883,-4.8159,-4.8284,-4.851,-4.8962,-4.954,-4.9565,-4.959,-4.959,-4.959,-4.959,-4.959,-4.9364,-4.901,-4.8607,-4.8159,-4.7657,-4.7179,-4.6853,-4.6552,-4.6326,-4.6326,-4.6326,-4.6326,-4.6326,-4.6326,-4.6326,-4.6326,-4.6326,-4.6326,-5.575,-5.5481,-5.528,-5.5209,-5.5359,-5.6316,-5.6526,-5.6196,-5.6166,-5.6077,-5.5777,-5.5359,-5.5209,-5.5209,-5.5239,-5.5329,-5.5777,-5.5448,-5.5269,-5.5777,-5.5418,-5.5448,-5.5538,-5.5496,-5.5394,-5.5675,-5.5538,-5.5209,-5.5209,-5.5209,-5.5209,-5.5209,-5.5209,-5.5209,-5.5209,-5.5209,-5.5209,-5.5209,-5.5209,-5.5209,-5.5209,-5.5209,-5.5209,-5.5209,-5.5209,-5.5209,-5.5209,-5.5209,-5.5209,-5.5209,-5.5209,-5.5209,-5.5209,-5.5209,-5.5209,-5.5209,-5.5209,-5.5209,-5.5209,-5.4773,-5.4627,-5.4583,-5.4687,-5.4671,-5.4568,-5.4023,-5.3421,-5.2625,-5.1666,-5.0348,-4.8927,-4.8133,-4.7718,-4.7399,-4.7405,-4.7631,-4.7782,-4.7883,-4.7908,-4.7983,-4.8184,-4.8234,-4.841,-4.8559,-4.8632,-4.871,-4.8812,-4.8862,-4.8887,-4.9264,-4.959,-4.959,-4.959,-4.959,-4.959,-4.959,-4.959,-4.959,-4.9311,-4.8982,-4.8685,-4.8184,-4.7707,-4.723,-4.6928,-4.6627,-4.6376,-4.6326,-4.6326,-4.6326,-4.6326,-4.6326,-4.6326,-4.6326,-4.6326,-5.5179,-5.5209,-5.5179,-5.5209,-5.5299,-5.5867,-5.6137,-5.6166,-5.6137,-5.5748,-5.5209,-5.5239,-5.5209,-5.5209,-5.5209,-5.5299,-5.5359,-5.5269,-5.5329,-5.5329,-5.5299,-5.5359,-5.5377,-5.5351,-5.5381,-5.5347,-5.5239,-5.5209,-5.5209,-5.5209,-5.5209,-5.5209,-5.5209,-5.5209,-5.5209,-5.5209,-5.5209,-5.5209,-5.5209,-5.5209,-5.5209,-5.5209,-5.5209,-5.5209,-5.5209,-5.5209,-5.5209,-5.5209,-5.5209,-5.5209,-5.5209,-5.5209,-5.5209,-5.5209,-5.5209,-5.5108,-5.5138,-5.4976,-5.4905,-5.4363,-5.4031,-5.3761,-5.3724,-5.3675,-5.3492,-5.3366,-5.2934,-5.2301,-5.1478,-5.0238,-4.8974,-4.8458,-4.8058,-4.7875,-4.7782,-4.7958,-4.8083,-4.8159,-4.8159,-4.8309,-4.8636,-4.8837,-4.9138,-4.9286,-4.9057,-4.9185,-4.9213,-4.9138,-4.9188,-4.9314,-4.9565,-4.959,-4.959,-4.959,-4.959,-4.959,-4.959,-4.959,-4.9565,-4.9261,-4.9012,-4.8686,-4.8234,-4.7757,-4.7305,-4.6928,-4.6502,-4.6326,-4.6326,-4.6326,-4.6326,-4.6326,-4.6326,-4.6326,-4.6326,-5.5209,-5.5209,-5.5209,-5.5209,-5.5209,-5.5388,-5.5718,-5.6077,-5.5718,-5.5329,-5.5209,-5.5209,-5.5209,-5.5209,-5.5209,-5.5478,-5.5538,-5.5538,-5.5598,-5.5538,-5.5359,-5.5538,-5.5526,-5.5424,-5.5543,-5.5543,-5.5466,-5.5209,-5.5209,-5.5209,-5.5209,-5.5209,-5.5209,-5.5209,-5.5209,-5.5209,-5.5209,-5.5209,-5.5209,-5.5209,-5.5209,-5.5209,-5.5209,-5.5209,-5.5209,-5.5209,-5.5209,-5.5209,-5.5209,-5.5209,-5.5209,-5.5209,-5.5209,-5.5209,-5.5138,-5.4628,-5.4406,-5.4126,-5.4007,-5.3588,-5.3177,-5.2659,-5.2491,-5.2574,-5.2546,-5.2547,-5.2374,-5.1846,-5.1294,-5.0255,-4.9456,-4.898,-4.8502,-4.8308,-4.8335,-4.8535,-4.8686,-4.8786,-4.8812,-4.8862,-4.9163,-4.9213,-4.9565,-4.9565,-4.9361,-4.9565,-4.9565,-4.9439,-4.9414,-4.9515,-4.9565,-4.959,-4.959,-4.959,-4.959,-4.959,-4.959,-4.959,-4.9565,-4.954,-4.9339,-4.9012,-4.8686,-4.8234,-4.7682,-4.7054,-4.6426,-4.6426,-4.6652,-4.6376,-4.6351,-4.6326,-4.6326,-4.6426,-4.6527,-5.5209,-5.5209,-5.5209,-5.5209,-5.5209,-5.5209,-5.5448,-5.5658,-5.5359,-5.5209,-5.5209,-5.5209,-5.5209,-5.5209,-5.5209,-5.5359,-5.5658,-5.5388,-5.5388,-5.5418,-5.5388,-5.5448,-5.5478,-5.5478,-5.5406,-5.5556,-5.5496,-5.5209,-5.5209,-5.5209,-5.5209,-5.5209,-5.5209,-5.5209,-5.5209,-5.5209,-5.5209,-5.5209,-5.5209,-5.5209,-5.5209,-5.5209,-5.5209,-5.5209,-5.5209,-5.5209,-5.5209,-5.5209,-5.5209,-5.5209,-5.5209,-5.5209,-5.5078,-5.4976,-5.4679,-5.4165,-5.3662,-5.3388,-5.3067,-5.2659,-5.2149,-5.1734,-5.1384,-5.1176,-5.1335,-5.1358,-5.1462,-5.1368,-5.099,-5.0525,-5.0019,-4.9439,-4.914,-4.8812,-4.8962,-4.9213,-4.9364,-4.9515,-4.954,-4.954,-4.9565,-4.954,-4.959,-4.959,-4.959,-4.959,-4.959,-4.9565,-4.9515,-4.9565,-4.959,-4.959,-4.959,-4.959,-4.959,-4.959,-4.959,-4.959,-4.959,-4.9565,-4.9515,-4.9364,-4.9038,-4.8535,-4.8008,-4.7431,-4.6928,-4.6979,-4.7079,-4.6803,-4.6849,-4.6928,-4.6979,-4.6781,-4.6881,-5.5149,-5.5209,-5.5209,-5.5209,-5.5209,-5.5209,-5.5209,-5.5209,-5.5209,-5.5209,-5.5209,-5.5209,-5.5209,-5.5209,-5.5209,-5.5209,-5.5329,-5.5239,-5.5209,-5.5209,-5.5239,-5.5299,-5.5299,-5.5209,-5.5329,-5.5239,-5.5209,-5.5209,-5.5209,-5.5209,-5.5209,-5.5209,-5.5209,-5.5209,-5.5209,-5.5209,-5.5209,-5.5209,-5.5209,-5.5209,-5.5209,-5.5209,-5.5209,-5.5209,-5.5209,-5.5209,-5.5209,-5.5209,-5.5209,-5.5209,-5.5209,-5.5209,-5.4887,-5.4363,-5.3978,-5.3444,-5.2883,-5.2463,-5.2204,-5.1816,-5.1374,-5.0975,-5.0487,-5.0348,-5.0395,-5.0558,-5.071,-5.0671,-5.0272,-5.0162,-4.9696,-4.9495,-4.9267,-4.9215,-4.9238,-4.9414,-4.9515,-4.959,-4.959,-4.959,-4.959,-4.959,-4.959,-4.959,-4.959,-4.959,-4.959,-4.959,-4.959,-4.959,-4.959,-4.959,-4.959,-4.959,-4.959,-4.959,-4.959,-4.959,-4.959,-4.959,-4.9565,-4.9464,-4.9389,-4.8837,-4.8284,-4.8058,-4.7732,-4.7631,-4.7579,-4.7551,-4.7576,-4.778,-4.7707,-4.7482,-4.7507,-5.473,-5.5179,-5.5209,-5.5209,-5.5209,-5.5209,-5.5209,-5.5209,-5.5209,-5.5209,-5.5209,-5.5209,-5.5209,-5.5209,-5.5209,-5.5209,-5.5209,-5.5209,-5.5209,-5.5209,-5.5209,-5.5209,-5.5209,-5.5209,-5.5209,-5.5209,-5.5209,-5.5209,-5.5209,-5.5209,-5.5209,-5.5209,-5.5209,-5.5209,-5.5209,-5.5209,-5.5209,-5.5209,-5.5209,-5.5209,-5.5209,-5.5209,-5.5209,-5.5209,-5.5209,-5.5209,-5.5209,-5.5209,-5.5209,-5.5209,-5.5209,-5.4958,-5.4488,-5.3564,-5.2961,-5.2465,-5.1762,-5.1421,-5.1186,-5.1016,-5.0699,-5.0565,-5.0201,-5.0003,-4.9824,-4.9901,-4.9926,-4.9875,-4.9799,-4.9595,-4.9543,-4.9492,-4.9467,-4.9414,-4.949,-4.954,-4.959,-4.959,-4.959,-4.959,-4.959,-4.959,-4.959,-4.959,-4.959,-4.959,-4.959,-4.959,-4.959,-4.959,-4.959,-4.959,-4.959,-4.959,-4.959,-4.959,-4.959,-4.959,-4.959,-4.959,-4.959,-4.954,-4.9439,-4.9038,-4.8611,-4.846,-4.8259,-4.7933,-4.7906,-4.8055,-4.8156,-4.8259,-4.8283,-4.8156,-4.8258,-5.4431,-5.479,-5.5059,-5.5209,-5.5209,-5.5209,-5.5209,-5.5209,-5.5209,-5.5209,-5.5209,-5.5209,-5.5209,-5.5209,-5.5209,-5.5209,-5.5209,-5.5209,-5.5209,-5.5209,-5.5209,-5.5209,-5.5209,-5.5209,-5.5209,-5.5209,-5.5209,-5.5209,-5.5209,-5.5209,-5.5209,-5.5209,-5.5209,-5.5209,-5.5209,-5.5209,-5.5209,-5.5209,-5.5209,-5.5209,-5.5209,-5.5209,-5.5209,-5.5209,-5.5209,-5.5209,-5.5209,-5.5209,-5.5209,-5.5078,-5.4976,-5.4624,-5.3862,-5.2799,-5.1904,-5.1223,-5.0671,-5.0221,-5.0149,-5.0219,-5.0201,-4.9977,-4.9952,-4.9694,-4.9694,-4.9671,-4.9671,-4.9645,-4.9645,-4.954,-4.954,-4.949,-4.949,-4.954,-4.954,-4.959,-4.959,-4.959,-4.959,-4.959,-4.959,-4.959,-4.959,-4.959,-4.959,-4.959,-4.959,-4.959,-4.959,-4.959,-4.959,-4.959,-4.959,-4.959,-4.959,-4.959,-4.959,-4.959,-4.959,-4.959,-4.959,-4.959,-4.9464,-4.9213,-4.9063,-4.9063,-4.8812,-4.851,-4.8611,-4.8888,-4.8786,-4.871,-4.8704,-4.8749,-4.8907,-5.4042,-5.4281,-5.491,-5.5209,-5.5209,-5.5209,-5.5209,-5.5209,-5.5209,-5.5209,-5.5209,-5.5209,-5.5209,-5.5209,-5.5209,-5.5209,-5.5209,-5.5209,-5.5209,-5.5209,-5.5209,-5.5209,-5.5209,-5.5209,-5.5209,-5.5209,-5.5209,-5.5209,-5.5209,-5.5209,-5.5209,-5.5209,-5.5209,-5.5209,-5.5209,-5.5209,-5.5209,-5.5209,-5.5209,-5.5209,-5.5209,-5.5209,-5.5209,-5.5209,-5.5209,-5.5209,-5.5209,-5.5209,-5.5209,-5.4921,-5.4613,-5.3935,-5.3058,-5.1943,-5.0803,-4.9996,-4.9611,-4.943,-4.952,-4.9723,-4.9593,-4.9565,-4.959,-4.959,-4.959,-4.959,-4.959,-4.959,-4.959,-4.959,-4.959,-4.959,-4.959,-4.959,-4.959,-4.959,-4.959,-4.959,-4.959,-4.959,-4.959,-4.959,-4.959,-4.959,-4.959,-4.959,-4.959,-4.959,-4.959,-4.959,-4.959,-4.959,-4.959,-4.959,-4.959,-4.959,-4.959,-4.959,-4.959,-4.959,-4.959,-4.959,-4.959,-4.9565,-4.9464,-4.9389,-4.9414,-4.9238,-4.9414,-4.9439,-4.9339,-4.9213,-4.9185,-4.9207,-4.9386,-5.3234,-5.4281,-5.491,-5.5179,-5.5179,-5.5179,-5.5209,-5.5179,-5.5209,-5.5209,-5.5209,-5.5209,-5.5209,-5.5209,-5.5209,-5.5209,-5.5209,-5.5209,-5.5209,-5.5209,-5.5209,-5.5209,-5.5209,-5.5209,-5.5209,-5.5209,-5.5209,-5.5209,-5.5209,-5.5209,-5.5209,-5.5209,-5.5209,-5.5209,-5.5209,-5.5209,-5.5209,-5.5209,-5.5179,-5.5179,-5.5209,-5.5209,-5.5209,-5.5209,-5.5209,-5.5209,-5.5209,-5.5209,-5.5406,-5.513,-5.4351,-5.3357,-5.2187,-5.0823,-4.9578,-4.9005,-4.8641,-4.8759,-4.8938,-4.9289,-4.9414,-4.959,-4.959,-4.959,-4.959,-4.959,-4.959,-4.959,-4.959,-4.959,-4.959,-4.959,-4.959,-4.959,-4.959,-4.959,-4.959,-4.959,-4.959,-4.959,-4.959,-4.959,-4.959,-4.959,-4.959,-4.959,-4.959,-4.959,-4.959,-4.959,-4.959,-4.959,-4.959,-4.959,-4.959,-4.959,-4.959,-4.959,-4.959,-4.959,-4.959,-4.959,-4.959,-4.959,-4.959,-4.954,-4.959,-4.959,-4.959,-4.954,-4.9565,-4.954,-4.959,-4.959,-4.959]}]]